<?xml version="1.0" encoding="utf-8"?>
<gpx xmlns:xsi="http://www.w3.org/2001/XMLSchema-instance" xmlns:xsd="http://www.w3.org/2001/XMLSchema" version="1.1" creator="Shapelink.com" xmlns="http://www.topografix.com/GPX/1/1" xmlns:gpxtpx="http://www.garmin.com/xmlschemas/TrackPointExtension/v1">
  <metadata>
    <name>Löpning 8.77 km, 2018-01-27</name>
    <desc></desc>
    <author><name>Bengt-Åke Forslund</name></author> 
    <time>2018-01-27T12:27:09Z</time>
  </metadata>
  <trk>
    <name>Löpning 8.77 km, 2018-01-27</name>
    <trkseg>
      <trkpt lat="62.63590106011" lon="17.96784149482">
        <ele>63</ele>
        <time>2018-01-27T12:27:09Z</time>
      </trkpt>
      <trkpt lat="62.635998625426" lon="17.96824969335">
        <ele>63.8</ele>
        <time>2018-01-27T12:28:16Z</time>
      </trkpt>
      <trkpt lat="62.636014131941" lon="17.968308199012">
        <ele>63.8</ele>
        <time>2018-01-27T12:28:17Z</time>
      </trkpt>
      <trkpt lat="62.636028548809" lon="17.968359663878">
        <ele>63.8</ele>
        <time>2018-01-27T12:28:18Z</time>
      </trkpt>
      <trkpt lat="62.636045983161" lon="17.968391179822">
        <ele>63.8</ele>
        <time>2018-01-27T12:28:19Z</time>
      </trkpt>
      <trkpt lat="62.636064171884" lon="17.968428814553">
        <ele>64</ele>
        <time>2018-01-27T12:28:20Z</time>
      </trkpt>
      <trkpt lat="62.636085210453" lon="17.968463096524">
        <ele>64</ele>
        <time>2018-01-27T12:28:21Z</time>
      </trkpt>
      <trkpt lat="62.636110775248" lon="17.968488242224">
        <ele>64.2</ele>
        <time>2018-01-27T12:28:22Z</time>
      </trkpt>
      <trkpt lat="62.636137178233" lon="17.968514980485">
        <ele>64.4</ele>
        <time>2018-01-27T12:28:23Z</time>
      </trkpt>
      <trkpt lat="62.636161485743" lon="17.96853216338">
        <ele>64.6</ele>
        <time>2018-01-27T12:28:24Z</time>
      </trkpt>
      <trkpt lat="62.636183362502" lon="17.968547502257">
        <ele>64.8</ele>
        <time>2018-01-27T12:28:25Z</time>
      </trkpt>
      <trkpt lat="62.636208927297" lon="17.968562589677">
        <ele>64.8</ele>
        <time>2018-01-27T12:28:26Z</time>
      </trkpt>
      <trkpt lat="62.636234072997" lon="17.968572480319">
        <ele>65</ele>
        <time>2018-01-27T12:28:27Z</time>
      </trkpt>
      <trkpt lat="62.636265086027" lon="17.968590920499">
        <ele>65</ele>
        <time>2018-01-27T12:28:28Z</time>
      </trkpt>
      <trkpt lat="62.636292411021" lon="17.968602487521">
        <ele>65</ele>
        <time>2018-01-27T12:28:29Z</time>
      </trkpt>
      <trkpt lat="62.636327615001" lon="17.968630147791">
        <ele>64.8</ele>
        <time>2018-01-27T12:28:30Z</time>
      </trkpt>
      <trkpt lat="62.636355694366" lon="17.968655042034">
        <ele>65</ele>
        <time>2018-01-27T12:28:31Z</time>
      </trkpt>
      <trkpt lat="62.63638218117" lon="17.96869309586">
        <ele>65</ele>
        <time>2018-01-27T12:28:32Z</time>
      </trkpt>
      <trkpt lat="62.636406153404" lon="17.968737771387">
        <ele>65</ele>
        <time>2018-01-27T12:28:33Z</time>
      </trkpt>
      <trkpt lat="62.63643079619" lon="17.968781608724">
        <ele>65</ele>
        <time>2018-01-27T12:28:34Z</time>
      </trkpt>
      <trkpt lat="62.636451583302" lon="17.968832403038">
        <ele>65.2</ele>
        <time>2018-01-27T12:28:35Z</time>
      </trkpt>
      <trkpt lat="62.636471364586" lon="17.968878838764">
        <ele>65.2</ele>
        <time>2018-01-27T12:28:36Z</time>
      </trkpt>
      <trkpt lat="62.636491062051" lon="17.968924268662">
        <ele>65.2</ele>
        <time>2018-01-27T12:28:37Z</time>
      </trkpt>
      <trkpt lat="62.636514447552" lon="17.968968776551">
        <ele>65.2</ele>
        <time>2018-01-27T12:28:38Z</time>
      </trkpt>
      <trkpt lat="62.63653808451" lon="17.96901579901">
        <ele>65.2</ele>
        <time>2018-01-27T12:28:39Z</time>
      </trkpt>
      <trkpt lat="62.636556440871" lon="17.969073215025">
        <ele>65.2</ele>
        <time>2018-01-27T12:28:40Z</time>
      </trkpt>
      <trkpt lat="62.636575970698" lon="17.969127948832">
        <ele>65.2</ele>
        <time>2018-01-27T12:28:41Z</time>
      </trkpt>
      <trkpt lat="62.636593824145" lon="17.969187795598">
        <ele>65.2</ele>
        <time>2018-01-27T12:28:42Z</time>
      </trkpt>
      <trkpt lat="62.636612264325" lon="17.969252922961">
        <ele>65.2</ele>
        <time>2018-01-27T12:28:43Z</time>
      </trkpt>
      <trkpt lat="62.63662944722" lon="17.969304387827">
        <ele>65.2</ele>
        <time>2018-01-27T12:28:44Z</time>
      </trkpt>
      <trkpt lat="62.636644702278" lon="17.969375885434">
        <ele>65.2</ele>
        <time>2018-01-27T12:28:45Z</time>
      </trkpt>
      <trkpt lat="62.636662639544" lon="17.969431373612">
        <ele>65.4</ele>
        <time>2018-01-27T12:28:46Z</time>
      </trkpt>
      <trkpt lat="62.636678397516" lon="17.969491555654">
        <ele>65.4</ele>
        <time>2018-01-27T12:28:47Z</time>
      </trkpt>
      <trkpt lat="62.636693401117" lon="17.969553162619">
        <ele>65.4</ele>
        <time>2018-01-27T12:28:48Z</time>
      </trkpt>
      <trkpt lat="62.636712008935" lon="17.96959666468">
        <ele>65.4</ele>
        <time>2018-01-27T12:28:49Z</time>
      </trkpt>
      <trkpt lat="62.636725922889" lon="17.969656846722">
        <ele>65.4</ele>
        <time>2018-01-27T12:28:50Z</time>
      </trkpt>
      <trkpt lat="62.636738244282" lon="17.969697582756">
        <ele>65.2</ele>
        <time>2018-01-27T12:28:51Z</time>
      </trkpt>
      <trkpt lat="62.636750062761" lon="17.969749131441">
        <ele>65.4</ele>
        <time>2018-01-27T12:28:52Z</time>
      </trkpt>
      <trkpt lat="62.636758277023" lon="17.969803362334">
        <ele>65.4</ele>
        <time>2018-01-27T12:28:53Z</time>
      </trkpt>
      <trkpt lat="62.63677613047" lon="17.969839404504">
        <ele>65.4</ele>
        <time>2018-01-27T12:28:54Z</time>
      </trkpt>
      <trkpt lat="62.636790044424" lon="17.969889947361">
        <ele>65.6</ele>
        <time>2018-01-27T12:28:55Z</time>
      </trkpt>
      <trkpt lat="62.636803036369" lon="17.969934036155">
        <ele>65.6</ele>
        <time>2018-01-27T12:28:56Z</time>
      </trkpt>
      <trkpt lat="62.636821225092" lon="17.969981812985">
        <ele>65.6</ele>
        <time>2018-01-27T12:28:57Z</time>
      </trkpt>
      <trkpt lat="62.636844107679" lon="17.970027913435">
        <ele>65.6</ele>
        <time>2018-01-27T12:28:58Z</time>
      </trkpt>
      <trkpt lat="62.636864894791" lon="17.970055741343">
        <ele>65.8</ele>
        <time>2018-01-27T12:28:59Z</time>
      </trkpt>
      <trkpt lat="62.636891716871" lon="17.970096812653">
        <ele>65.8</ele>
        <time>2018-01-27T12:29:00Z</time>
      </trkpt>
      <trkpt lat="62.636916359657" lon="17.970125059656">
        <ele>65.8</ele>
        <time>2018-01-27T12:29:01Z</time>
      </trkpt>
      <trkpt lat="62.636947791782" lon="17.97015992836">
        <ele>65.8</ele>
        <time>2018-01-27T12:29:02Z</time>
      </trkpt>
      <trkpt lat="62.636977379889" lon="17.970182056576">
        <ele>65.8</ele>
        <time>2018-01-27T12:29:03Z</time>
      </trkpt>
      <trkpt lat="62.637009734023" lon="17.97020267605">
        <ele>66</ele>
        <time>2018-01-27T12:29:04Z</time>
      </trkpt>
      <trkpt lat="62.637047620211" lon="17.970213991615">
        <ele>66</ele>
        <time>2018-01-27T12:29:05Z</time>
      </trkpt>
      <trkpt lat="62.6370837462" lon="17.97021357252">
        <ele>66</ele>
        <time>2018-01-27T12:29:06Z</time>
      </trkpt>
      <trkpt lat="62.637125488062" lon="17.970205777353">
        <ele>65.8</ele>
        <time>2018-01-27T12:29:07Z</time>
      </trkpt>
      <trkpt lat="62.63716337425" lon="17.970190438476">
        <ele>65.6</ele>
        <time>2018-01-27T12:29:08Z</time>
      </trkpt>
      <trkpt lat="62.63720360737" lon="17.970172249753">
        <ele>65.4</ele>
        <time>2018-01-27T12:29:09Z</time>
      </trkpt>
      <trkpt lat="62.637245013956" lon="17.970150792089">
        <ele>65.2</ele>
        <time>2018-01-27T12:29:10Z</time>
      </trkpt>
      <trkpt lat="62.637284660343" lon="17.970130004977">
        <ele>65.2</ele>
        <time>2018-01-27T12:29:11Z</time>
      </trkpt>
      <trkpt lat="62.637332940087" lon="17.970105278372">
        <ele>65</ele>
        <time>2018-01-27T12:29:12Z</time>
      </trkpt>
      <trkpt lat="62.637373424664" lon="17.970087508744">
        <ele>65</ele>
        <time>2018-01-27T12:29:13Z</time>
      </trkpt>
      <trkpt lat="62.637419692752" lon="17.970071750772">
        <ele>64.6</ele>
        <time>2018-01-27T12:29:14Z</time>
      </trkpt>
      <trkpt lat="62.637465793202" lon="17.970061524854">
        <ele>64.4</ele>
        <time>2018-01-27T12:29:15Z</time>
      </trkpt>
      <trkpt lat="62.637504852856" lon="17.970062279225">
        <ele>64.2</ele>
        <time>2018-01-27T12:29:16Z</time>
      </trkpt>
      <trkpt lat="62.637549444564" lon="17.970086335278">
        <ele>64.2</ele>
        <time>2018-01-27T12:29:17Z</time>
      </trkpt>
      <trkpt lat="62.637587079295" lon="17.970122712724">
        <ele>63.8</ele>
        <time>2018-01-27T12:29:18Z</time>
      </trkpt>
      <trkpt lat="62.63761934961" lon="17.970180380196">
        <ele>63.8</ele>
        <time>2018-01-27T12:29:19Z</time>
      </trkpt>
      <trkpt lat="62.637643154206" lon="17.970240729876">
        <ele>63.6</ele>
        <time>2018-01-27T12:29:20Z</time>
      </trkpt>
      <trkpt lat="62.637674334874" lon="17.970302672117">
        <ele>63.6</ele>
        <time>2018-01-27T12:29:21Z</time>
      </trkpt>
      <trkpt lat="62.637700570221" lon="17.97036277034">
        <ele>63.4</ele>
        <time>2018-01-27T12:29:22Z</time>
      </trkpt>
      <trkpt lat="62.637721105876" lon="17.970432843024">
        <ele>63.2</ele>
        <time>2018-01-27T12:29:23Z</time>
      </trkpt>
      <trkpt lat="62.637743653187" lon="17.970489923763">
        <ele>63.2</ele>
        <time>2018-01-27T12:29:24Z</time>
      </trkpt>
      <trkpt lat="62.637759830254" lon="17.9705505249">
        <ele>63.2</ele>
        <time>2018-01-27T12:29:25Z</time>
      </trkpt>
      <trkpt lat="62.637776761692" lon="17.970606599811">
        <ele>63.2</ele>
        <time>2018-01-27T12:29:26Z</time>
      </trkpt>
      <trkpt lat="62.637793609311" lon="17.97066284236">
        <ele>63.2</ele>
        <time>2018-01-27T12:29:27Z</time>
      </trkpt>
      <trkpt lat="62.63780542779" lon="17.970717576167">
        <ele>63.2</ele>
        <time>2018-01-27T12:29:28Z</time>
      </trkpt>
      <trkpt lat="62.637818084459" lon="17.970781446245">
        <ele>63.2</ele>
        <time>2018-01-27T12:29:29Z</time>
      </trkpt>
      <trkpt lat="62.637828310377" lon="17.97082880398">
        <ele>63.2</ele>
        <time>2018-01-27T12:29:30Z</time>
      </trkpt>
      <trkpt lat="62.637837446648" lon="17.97088077176">
        <ele>63.2</ele>
        <time>2018-01-27T12:29:31Z</time>
      </trkpt>
      <trkpt lat="62.637852617887" lon="17.970941791992">
        <ele>63.2</ele>
        <time>2018-01-27T12:29:32Z</time>
      </trkpt>
      <trkpt lat="62.637859491045" lon="17.971004656242">
        <ele>63.4</ele>
        <time>2018-01-27T12:29:33Z</time>
      </trkpt>
      <trkpt lat="62.637868962592" lon="17.971066263207">
        <ele>63.4</ele>
        <time>2018-01-27T12:29:34Z</time>
      </trkpt>
      <trkpt lat="62.637879356148" lon="17.971115045865">
        <ele>63.4</ele>
        <time>2018-01-27T12:29:35Z</time>
      </trkpt>
      <trkpt lat="62.637887402772" lon="17.971169863491">
        <ele>63.6</ele>
        <time>2018-01-27T12:29:36Z</time>
      </trkpt>
      <trkpt lat="62.637898299242" lon="17.97124203165">
        <ele>63.6</ele>
        <time>2018-01-27T12:29:37Z</time>
      </trkpt>
      <trkpt lat="62.637906513504" lon="17.971303554796">
        <ele>63.6</ele>
        <time>2018-01-27T12:29:38Z</time>
      </trkpt>
      <trkpt lat="62.637916990879" lon="17.971357115137">
        <ele>63.6</ele>
        <time>2018-01-27T12:29:39Z</time>
      </trkpt>
      <trkpt lat="62.637926630064" lon="17.971401958302">
        <ele>63.6</ele>
        <time>2018-01-27T12:29:40Z</time>
      </trkpt>
      <trkpt lat="62.63793199448" lon="17.971461469792">
        <ele>63.6</ele>
        <time>2018-01-27T12:29:41Z</time>
      </trkpt>
      <trkpt lat="62.637939035276" lon="17.971517377065">
        <ele>63.6</ele>
        <time>2018-01-27T12:29:42Z</time>
      </trkpt>
      <trkpt lat="62.637944148235" lon="17.971580828048">
        <ele>63.8</ele>
        <time>2018-01-27T12:29:43Z</time>
      </trkpt>
      <trkpt lat="62.63795378742" lon="17.971636148588">
        <ele>63.8</ele>
        <time>2018-01-27T12:29:44Z</time>
      </trkpt>
      <trkpt lat="62.637958062189" lon="17.971694235155">
        <ele>63.8</ele>
        <time>2018-01-27T12:29:45Z</time>
      </trkpt>
      <trkpt lat="62.637965186804" lon="17.971746873487">
        <ele>64</ele>
        <time>2018-01-27T12:29:46Z</time>
      </trkpt>
      <trkpt lat="62.63796971303" lon="17.971807977538">
        <ele>64</ele>
        <time>2018-01-27T12:29:47Z</time>
      </trkpt>
      <trkpt lat="62.637971640867" lon="17.971872015254">
        <ele>64</ele>
        <time>2018-01-27T12:29:48Z</time>
      </trkpt>
      <trkpt lat="62.637974909808" lon="17.971917361333">
        <ele>64.2</ele>
        <time>2018-01-27T12:29:49Z</time>
      </trkpt>
      <trkpt lat="62.637974825989" lon="17.971985673818">
        <ele>64.2</ele>
        <time>2018-01-27T12:29:50Z</time>
      </trkpt>
      <trkpt lat="62.637977843473" lon="17.972042251643">
        <ele>64.2</ele>
        <time>2018-01-27T12:29:51Z</time>
      </trkpt>
      <trkpt lat="62.637979352215" lon="17.972112743422">
        <ele>64.4</ele>
        <time>2018-01-27T12:29:52Z</time>
      </trkpt>
      <trkpt lat="62.637979855129" lon="17.972182732287">
        <ele>64.4</ele>
        <time>2018-01-27T12:29:53Z</time>
      </trkpt>
      <trkpt lat="62.637981280052" lon="17.972234783886">
        <ele>64.4</ele>
        <time>2018-01-27T12:29:54Z</time>
      </trkpt>
      <trkpt lat="62.637979603672" lon="17.972301084715">
        <ele>64.4</ele>
        <time>2018-01-27T12:29:55Z</time>
      </trkpt>
      <trkpt lat="62.637982118242" lon="17.972355231789">
        <ele>64.4</ele>
        <time>2018-01-27T12:29:56Z</time>
      </trkpt>
      <trkpt lat="62.637987566477" lon="17.972397811841">
        <ele>64.4</ele>
        <time>2018-01-27T12:29:57Z</time>
      </trkpt>
      <trkpt lat="62.637998882042" lon="17.972456317503">
        <ele>64.4</ele>
        <time>2018-01-27T12:29:58Z</time>
      </trkpt>
      <trkpt lat="62.638006509571" lon="17.97250602217">
        <ele>64.6</ele>
        <time>2018-01-27T12:29:59Z</time>
      </trkpt>
      <trkpt lat="62.638009275598" lon="17.97257475375">
        <ele>64.6</ele>
        <time>2018-01-27T12:30:00Z</time>
      </trkpt>
      <trkpt lat="62.638012125444" lon="17.97263594162">
        <ele>64.6</ele>
        <time>2018-01-27T12:30:01Z</time>
      </trkpt>
      <trkpt lat="62.638018495688" lon="17.972695369291">
        <ele>64.6</ele>
        <time>2018-01-27T12:30:02Z</time>
      </trkpt>
      <trkpt lat="62.638019501516" lon="17.972762927405">
        <ele>64.8</ele>
        <time>2018-01-27T12:30:03Z</time>
      </trkpt>
      <trkpt lat="62.638026961407" lon="17.972821935981">
        <ele>64.8</ele>
        <time>2018-01-27T12:30:04Z</time>
      </trkpt>
      <trkpt lat="62.638027045226" lon="17.97287650215">
        <ele>65</ele>
        <time>2018-01-27T12:30:05Z</time>
      </trkpt>
      <trkpt lat="62.638029308339" lon="17.972935846002">
        <ele>65.2</ele>
        <time>2018-01-27T12:30:06Z</time>
      </trkpt>
      <trkpt lat="62.638031487633" lon="17.972995106035">
        <ele>65.4</ele>
        <time>2018-01-27T12:30:07Z</time>
      </trkpt>
      <trkpt lat="62.638030397986" lon="17.973061323045">
        <ele>65.4</ele>
        <time>2018-01-27T12:30:08Z</time>
      </trkpt>
      <trkpt lat="62.638032325823" lon="17.973123265286">
        <ele>65.8</ele>
        <time>2018-01-27T12:30:09Z</time>
      </trkpt>
      <trkpt lat="62.638034421298" lon="17.973174227238">
        <ele>66</ele>
        <time>2018-01-27T12:30:10Z</time>
      </trkpt>
      <trkpt lat="62.638030146529" lon="17.973230637425">
        <ele>66</ele>
        <time>2018-01-27T12:30:11Z</time>
      </trkpt>
      <trkpt lat="62.638031655271" lon="17.97328134792">
        <ele>66</ele>
        <time>2018-01-27T12:30:12Z</time>
      </trkpt>
      <trkpt lat="62.638028134873" lon="17.973337925745">
        <ele>66.2</ele>
        <time>2018-01-27T12:30:13Z</time>
      </trkpt>
      <trkpt lat="62.638026290855" lon="17.973403891298">
        <ele>66.4</ele>
        <time>2018-01-27T12:30:14Z</time>
      </trkpt>
      <trkpt lat="62.638024949751" lon="17.973460217666">
        <ele>66.6</ele>
        <time>2018-01-27T12:30:15Z</time>
      </trkpt>
      <trkpt lat="62.638015981118" lon="17.973513694188">
        <ele>66.8</ele>
        <time>2018-01-27T12:30:16Z</time>
      </trkpt>
      <trkpt lat="62.638006258114" lon="17.973575720248">
        <ele>67</ele>
        <time>2018-01-27T12:30:17Z</time>
      </trkpt>
      <trkpt lat="62.6380057552" lon="17.973637997765">
        <ele>67</ele>
        <time>2018-01-27T12:30:18Z</time>
      </trkpt>
      <trkpt lat="62.638008856503" lon="17.973698095988">
        <ele>67.2</ele>
        <time>2018-01-27T12:30:19Z</time>
      </trkpt>
      <trkpt lat="62.638011119616" lon="17.973752913614">
        <ele>67.2</ele>
        <time>2018-01-27T12:30:20Z</time>
      </trkpt>
      <trkpt lat="62.63801329891" lon="17.973806809231">
        <ele>67.2</ele>
        <time>2018-01-27T12:30:21Z</time>
      </trkpt>
      <trkpt lat="62.638015981118" lon="17.973864392884">
        <ele>67.2</ele>
        <time>2018-01-27T12:30:22Z</time>
      </trkpt>
      <trkpt lat="62.638017070765" lon="17.973924994021">
        <ele>67.2</ele>
        <time>2018-01-27T12:30:23Z</time>
      </trkpt>
      <trkpt lat="62.638021429353" lon="17.973976123611">
        <ele>67.4</ele>
        <time>2018-01-27T12:30:24Z</time>
      </trkpt>
      <trkpt lat="62.638024614475" lon="17.974038904042">
        <ele>67.4</ele>
        <time>2018-01-27T12:30:25Z</time>
      </trkpt>
      <trkpt lat="62.638027464321" lon="17.974087854338">
        <ele>67.4</ele>
        <time>2018-01-27T12:30:26Z</time>
      </trkpt>
      <trkpt lat="62.638026458493" lon="17.974155747728">
        <ele>67.4</ele>
        <time>2018-01-27T12:30:27Z</time>
      </trkpt>
      <trkpt lat="62.638028134873" lon="17.974211571182">
        <ele>67.4</ele>
        <time>2018-01-27T12:30:28Z</time>
      </trkpt>
      <trkpt lat="62.638030649443" lon="17.974274267794">
        <ele>67.4</ele>
        <time>2018-01-27T12:30:29Z</time>
      </trkpt>
      <trkpt lat="62.63803257728" lon="17.974337383501">
        <ele>67.4</ele>
        <time>2018-01-27T12:30:30Z</time>
      </trkpt>
      <trkpt lat="62.63803341547" lon="17.974386417616">
        <ele>67.4</ele>
        <time>2018-01-27T12:30:31Z</time>
      </trkpt>
      <trkpt lat="62.638033164013" lon="17.974448527495">
        <ele>67.4</ele>
        <time>2018-01-27T12:30:32Z</time>
      </trkpt>
      <trkpt lat="62.638033164013" lon="17.974504518587">
        <ele>67.4</ele>
        <time>2018-01-27T12:30:33Z</time>
      </trkpt>
      <trkpt lat="62.638033499289" lon="17.974578111669">
        <ele>67.4</ele>
        <time>2018-01-27T12:30:34Z</time>
      </trkpt>
      <trkpt lat="62.63803006271" lon="17.97463837753">
        <ele>67.2</ele>
        <time>2018-01-27T12:30:35Z</time>
      </trkpt>
      <trkpt lat="62.638020088249" lon="17.97469369807">
        <ele>67.2</ele>
        <time>2018-01-27T12:30:36Z</time>
      </trkpt>
      <trkpt lat="62.638009694693" lon="17.974759831261">
        <ele>67.2</ele>
        <time>2018-01-27T12:30:37Z</time>
      </trkpt>
      <trkpt lat="62.6379973733" lon="17.974807356634">
        <ele>67.2</ele>
        <time>2018-01-27T12:30:38Z</time>
      </trkpt>
      <trkpt lat="62.637978430206" lon="17.974852535075">
        <ele>67.2</ele>
        <time>2018-01-27T12:30:39Z</time>
      </trkpt>
      <trkpt lat="62.637967785193" lon="17.974901653009">
        <ele>67.2</ele>
        <time>2018-01-27T12:30:40Z</time>
      </trkpt>
      <trkpt lat="62.637948590642" lon="17.974937024627">
        <ele>67.4</ele>
        <time>2018-01-27T12:30:41Z</time>
      </trkpt>
      <trkpt lat="62.637930401919" lon="17.974982370706">
        <ele>67.4</ele>
        <time>2018-01-27T12:30:42Z</time>
      </trkpt>
      <trkpt lat="62.637911961739" lon="17.975013132279">
        <ele>67.6</ele>
        <time>2018-01-27T12:30:43Z</time>
      </trkpt>
      <trkpt lat="62.637896119948" lon="17.975049174449">
        <ele>67.6</ele>
        <time>2018-01-27T12:30:44Z</time>
      </trkpt>
      <trkpt lat="62.637879607605" lon="17.975077756728">
        <ele>67.8</ele>
        <time>2018-01-27T12:30:45Z</time>
      </trkpt>
      <trkpt lat="62.637866364203" lon="17.975112206337">
        <ele>68</ele>
        <time>2018-01-27T12:30:46Z</time>
      </trkpt>
      <trkpt lat="62.637850773869" lon="17.975146739765">
        <ele>68.2</ele>
        <time>2018-01-27T12:30:47Z</time>
      </trkpt>
      <trkpt lat="62.637833590974" lon="17.97518320103">
        <ele>68.2</ele>
        <time>2018-01-27T12:30:48Z</time>
      </trkpt>
      <trkpt lat="62.637822443047" lon="17.97522008139">
        <ele>68.6</ele>
        <time>2018-01-27T12:30:49Z</time>
      </trkpt>
      <trkpt lat="62.637801991211" lon="17.975254195723">
        <ele>68.8</ele>
        <time>2018-01-27T12:30:50Z</time>
      </trkpt>
      <trkpt lat="62.637792519664" lon="17.975286801314">
        <ele>69</ele>
        <time>2018-01-27T12:30:51Z</time>
      </trkpt>
      <trkpt lat="62.63777273838" lon="17.975320077457">
        <ele>69</ele>
        <time>2018-01-27T12:30:52Z</time>
      </trkpt>
      <trkpt lat="62.63776100372" lon="17.975350336116">
        <ele>69.2</ele>
        <time>2018-01-27T12:30:53Z</time>
      </trkpt>
      <trkpt lat="62.637742395902" lon="17.975381684422">
        <ele>69.2</ele>
        <time>2018-01-27T12:30:54Z</time>
      </trkpt>
      <trkpt lat="62.637725296826" lon="17.975406411027">
        <ele>69.4</ele>
        <time>2018-01-27T12:30:55Z</time>
      </trkpt>
      <trkpt lat="62.637714735632" lon="17.975428623062">
        <ele>69.6</ele>
        <time>2018-01-27T12:30:56Z</time>
      </trkpt>
      <trkpt lat="62.637696211633" lon="17.97545058364">
        <ele>69.8</ele>
        <time>2018-01-27T12:30:57Z</time>
      </trkpt>
      <trkpt lat="62.637676849444" lon="17.97545980373">
        <ele>70.2</ele>
        <time>2018-01-27T12:30:58Z</time>
      </trkpt>
      <trkpt lat="62.637661342929" lon="17.975480171747">
        <ele>70.4</ele>
        <time>2018-01-27T12:30:59Z</time>
      </trkpt>
      <trkpt lat="62.637636364867" lon="17.975493750425">
        <ele>70.6</ele>
        <time>2018-01-27T12:31:00Z</time>
      </trkpt>
      <trkpt lat="62.637615493936" lon="17.97551344789">
        <ele>70.8</ele>
        <time>2018-01-27T12:31:01Z</time>
      </trkpt>
      <trkpt lat="62.637591773159" lon="17.975527613301">
        <ele>71.2</ele>
        <time>2018-01-27T12:31:02Z</time>
      </trkpt>
      <trkpt lat="62.637568303839" lon="17.975542533083">
        <ele>71</ele>
        <time>2018-01-27T12:31:03Z</time>
      </trkpt>
      <trkpt lat="62.637550953306" lon="17.975559296883">
        <ele>71.2</ele>
        <time>2018-01-27T12:31:04Z</time>
      </trkpt>
      <trkpt lat="62.637527400167" lon="17.975572875561">
        <ele>71.2</ele>
        <time>2018-01-27T12:31:05Z</time>
      </trkpt>
      <trkpt lat="62.637511390738" lon="17.975591148103">
        <ele>71.4</ele>
        <time>2018-01-27T12:31:06Z</time>
      </trkpt>
      <trkpt lat="62.637487167047" lon="17.975609588283">
        <ele>71.6</ele>
        <time>2018-01-27T12:31:07Z</time>
      </trkpt>
      <trkpt lat="62.637466463754" lon="17.975624340427">
        <ele>71.6</ele>
        <time>2018-01-27T12:31:08Z</time>
      </trkpt>
      <trkpt lat="62.637451460153" lon="17.975649067032">
        <ele>71.8</ele>
        <time>2018-01-27T12:31:09Z</time>
      </trkpt>
      <trkpt lat="62.637427236462" lon="17.975658790036">
        <ele>72</ele>
        <time>2018-01-27T12:31:10Z</time>
      </trkpt>
      <trkpt lat="62.6374106403" lon="17.975682426994">
        <ele>72.2</ele>
        <time>2018-01-27T12:31:11Z</time>
      </trkpt>
      <trkpt lat="62.637382477116" lon="17.975705141943">
        <ele>72.4</ele>
        <time>2018-01-27T12:31:12Z</time>
      </trkpt>
      <trkpt lat="62.637355990312" lon="17.975727270159">
        <ele>72.6</ele>
        <time>2018-01-27T12:31:13Z</time>
      </trkpt>
      <trkpt lat="62.637338639779" lon="17.975756774447">
        <ele>72.8</ele>
        <time>2018-01-27T12:31:14Z</time>
      </trkpt>
      <trkpt lat="62.637318271762" lon="17.975786027278">
        <ele>72.8</ele>
        <time>2018-01-27T12:31:15Z</time>
      </trkpt>
      <trkpt lat="62.637304693084" lon="17.975811172978">
        <ele>73</ele>
        <time>2018-01-27T12:31:16Z</time>
      </trkpt>
      <trkpt lat="62.637289438026" lon="17.975848137157">
        <ele>73.2</ele>
        <time>2018-01-27T12:31:17Z</time>
      </trkpt>
      <trkpt lat="62.637269489104" lon="17.975876970893">
        <ele>73.2</ele>
        <time>2018-01-27T12:31:18Z</time>
      </trkpt>
      <trkpt lat="62.637257000073" lon="17.97591410271">
        <ele>73.4</ele>
        <time>2018-01-27T12:31:19Z</time>
      </trkpt>
      <trkpt lat="62.637240152454" lon="17.975942768808">
        <ele>73.8</ele>
        <time>2018-01-27T12:31:20Z</time>
      </trkpt>
      <trkpt lat="62.637226406138" lon="17.975976547865">
        <ele>73.8</ele>
        <time>2018-01-27T12:31:21Z</time>
      </trkpt>
      <trkpt lat="62.637217437505" lon="17.976031197853">
        <ele>74.2</ele>
        <time>2018-01-27T12:31:22Z</time>
      </trkpt>
      <trkpt lat="62.637206624854" lon="17.97606832967">
        <ele>74.4</ele>
        <time>2018-01-27T12:31:23Z</time>
      </trkpt>
      <trkpt lat="62.637195979841" lon="17.976128176436">
        <ele>74.6</ele>
        <time>2018-01-27T12:31:24Z</time>
      </trkpt>
      <trkpt lat="62.637182401163" lon="17.976173773972">
        <ele>74.8</ele>
        <time>2018-01-27T12:31:25Z</time>
      </trkpt>
      <trkpt lat="62.637178210213" lon="17.9762250712">
        <ele>75</ele>
        <time>2018-01-27T12:31:26Z</time>
      </trkpt>
      <trkpt lat="62.637166643191" lon="17.976271506926">
        <ele>75</ele>
        <time>2018-01-27T12:31:27Z</time>
      </trkpt>
      <trkpt lat="62.637160440585" lon="17.976322133602">
        <ele>75.2</ele>
        <time>2018-01-27T12:31:28Z</time>
      </trkpt>
      <trkpt lat="62.637149795572" lon="17.976367731138">
        <ele>75.4</ele>
        <time>2018-01-27T12:31:29Z</time>
      </trkpt>
      <trkpt lat="62.637143844423" lon="17.976424476601">
        <ele>75.4</ele>
        <time>2018-01-27T12:31:30Z</time>
      </trkpt>
      <trkpt lat="62.637138396188" lon="17.976468733033">
        <ele>75.6</ele>
        <time>2018-01-27T12:31:31Z</time>
      </trkpt>
      <trkpt lat="62.637127415899" lon="17.976521958098">
        <ele>75.8</ele>
        <time>2018-01-27T12:31:32Z</time>
      </trkpt>
      <trkpt lat="62.637113837221" lon="17.97659303661">
        <ele>75.8</ele>
        <time>2018-01-27T12:31:33Z</time>
      </trkpt>
      <trkpt lat="62.637106964063" lon="17.976647267503">
        <ele>76</ele>
        <time>2018-01-27T12:31:34Z</time>
      </trkpt>
      <trkpt lat="62.637101934923" lon="17.976705689346">
        <ele>76.2</ele>
        <time>2018-01-27T12:31:35Z</time>
      </trkpt>
      <trkpt lat="62.637098414525" lon="17.976764278827">
        <ele>76.2</ele>
        <time>2018-01-27T12:31:36Z</time>
      </trkpt>
      <trkpt lat="62.637098330706" lon="17.97682689162">
        <ele>76.2</ele>
        <time>2018-01-27T12:31:37Z</time>
      </trkpt>
      <trkpt lat="62.637094894127" lon="17.976897048123">
        <ele>76.4</ele>
        <time>2018-01-27T12:31:38Z</time>
      </trkpt>
      <trkpt lat="62.637100174724" lon="17.976949770274">
        <ele>76.4</ele>
        <time>2018-01-27T12:31:39Z</time>
      </trkpt>
      <trkpt lat="62.637098163068" lon="17.97701632256">
        <ele>76.2</ele>
        <time>2018-01-27T12:31:40Z</time>
      </trkpt>
      <trkpt lat="62.637102354018" lon="17.977065608132">
        <ele>76.2</ele>
        <time>2018-01-27T12:31:41Z</time>
      </trkpt>
      <trkpt lat="62.637099504172" lon="17.977143308345">
        <ele>76.2</ele>
        <time>2018-01-27T12:31:42Z</time>
      </trkpt>
      <trkpt lat="62.637098582163" lon="17.977203490387">
        <ele>76.2</ele>
        <time>2018-01-27T12:31:43Z</time>
      </trkpt>
      <trkpt lat="62.637093553023" lon="17.977271551415">
        <ele>76.2</ele>
        <time>2018-01-27T12:31:44Z</time>
      </trkpt>
      <trkpt lat="62.637090535539" lon="17.97733567295">
        <ele>76.2</ele>
        <time>2018-01-27T12:31:45Z</time>
      </trkpt>
      <trkpt lat="62.637080896354" lon="17.977390322938">
        <ele>76.2</ele>
        <time>2018-01-27T12:31:46Z</time>
      </trkpt>
      <trkpt lat="62.637067652952" lon="17.977454444473">
        <ele>76.2</ele>
        <time>2018-01-27T12:31:47Z</time>
      </trkpt>
      <trkpt lat="62.637054493369" lon="17.97749492905">
        <ele>76.2</ele>
        <time>2018-01-27T12:31:48Z</time>
      </trkpt>
      <trkpt lat="62.637036220827" lon="17.977547986477">
        <ele>76.2</ele>
        <time>2018-01-27T12:31:49Z</time>
      </trkpt>
      <trkpt lat="62.637029766764" lon="17.977603223198">
        <ele>76.2</ele>
        <time>2018-01-27T12:31:50Z</time>
      </trkpt>
      <trkpt lat="62.637014595525" lon="17.977657034996">
        <ele>76.4</ele>
        <time>2018-01-27T12:31:51Z</time>
      </trkpt>
      <trkpt lat="62.637003112322" lon="17.977720066884">
        <ele>76.4</ele>
        <time>2018-01-27T12:31:52Z</time>
      </trkpt>
      <trkpt lat="62.636993137861" lon="17.977778404908">
        <ele>76.4</ele>
        <time>2018-01-27T12:31:53Z</time>
      </trkpt>
      <trkpt lat="62.636987605807" lon="17.977838419312">
        <ele>76.2</ele>
        <time>2018-01-27T12:31:54Z</time>
      </trkpt>
      <trkpt lat="62.636981403201" lon="17.977889967997">
        <ele>76.4</ele>
        <time>2018-01-27T12:31:55Z</time>
      </trkpt>
      <trkpt lat="62.636972853663" lon="17.977952161695">
        <ele>76.4</ele>
        <time>2018-01-27T12:31:56Z</time>
      </trkpt>
      <trkpt lat="62.636966315781" lon="17.978005219122">
        <ele>76.4</ele>
        <time>2018-01-27T12:31:57Z</time>
      </trkpt>
      <trkpt lat="62.636955922225" lon="17.97807411834">
        <ele>76.6</ele>
        <time>2018-01-27T12:31:58Z</time>
      </trkpt>
      <trkpt lat="62.636949887257" lon="17.978130779984">
        <ele>76.6</ele>
        <time>2018-01-27T12:31:59Z</time>
      </trkpt>
      <trkpt lat="62.636938487873" lon="17.978197667546">
        <ele>76.8</ele>
        <time>2018-01-27T12:32:00Z</time>
      </trkpt>
      <trkpt lat="62.636929603059" lon="17.978250473516">
        <ele>76.8</ele>
        <time>2018-01-27T12:32:01Z</time>
      </trkpt>
      <trkpt lat="62.636917616942" lon="17.978303363305">
        <ele>76.8</ele>
        <time>2018-01-27T12:32:02Z</time>
      </trkpt>
      <trkpt lat="62.636905547006" lon="17.978357510379">
        <ele>76.8</ele>
        <time>2018-01-27T12:32:03Z</time>
      </trkpt>
      <trkpt lat="62.636893141794" lon="17.978391876169">
        <ele>76.8</ele>
        <time>2018-01-27T12:32:04Z</time>
      </trkpt>
      <trkpt lat="62.636870678302" lon="17.978444849777">
        <ele>76.8</ele>
        <time>2018-01-27T12:32:05Z</time>
      </trkpt>
      <trkpt lat="62.636857853995" lon="17.97848986058">
        <ele>76.8</ele>
        <time>2018-01-27T12:32:06Z</time>
      </trkpt>
      <trkpt lat="62.636835977236" lon="17.978550964631">
        <ele>77</ele>
        <time>2018-01-27T12:32:07Z</time>
      </trkpt>
      <trkpt lat="62.636821308911" lon="17.978610643759">
        <ele>77.2</ele>
        <time>2018-01-27T12:32:08Z</time>
      </trkpt>
      <trkpt lat="62.636807059681" lon="17.978642327341">
        <ele>77.2</ele>
        <time>2018-01-27T12:32:09Z</time>
      </trkpt>
      <trkpt lat="62.636789876786" lon="17.978689852714">
        <ele>77.2</ele>
        <time>2018-01-27T12:32:10Z</time>
      </trkpt>
      <trkpt lat="62.636770682235" lon="17.978721033382">
        <ele>77.4</ele>
        <time>2018-01-27T12:32:11Z</time>
      </trkpt>
      <trkpt lat="62.636745452716" lon="17.978748777471">
        <ele>77.2</ele>
        <time>2018-01-27T12:32:12Z</time>
      </trkpt>
      <trkpt lat="62.636723995052" lon="17.978777275931">
        <ele>77.4</ele>
        <time>2018-01-27T12:32:13Z</time>
      </trkpt>
      <trkpt lat="62.636700525732" lon="17.97879412355">
        <ele>77.6</ele>
        <time>2018-01-27T12:32:14Z</time>
      </trkpt>
      <trkpt lat="62.636678229878" lon="17.978799571785">
        <ele>77.8</ele>
        <time>2018-01-27T12:32:15Z</time>
      </trkpt>
      <trkpt lat="62.6366562693" lon="17.97881675468">
        <ele>78</ele>
        <time>2018-01-27T12:32:16Z</time>
      </trkpt>
      <trkpt lat="62.636627351745" lon="17.978822705829">
        <ele>78.2</ele>
        <time>2018-01-27T12:32:17Z</time>
      </trkpt>
      <trkpt lat="62.636593824145" lon="17.978825304218">
        <ele>78.4</ele>
        <time>2018-01-27T12:32:18Z</time>
      </trkpt>
      <trkpt lat="62.636560296545" lon="17.97883351848">
        <ele>78.4</ele>
        <time>2018-01-27T12:32:19Z</time>
      </trkpt>
      <trkpt lat="62.636530456981" lon="17.978843325303">
        <ele>78.6</ele>
        <time>2018-01-27T12:32:20Z</time>
      </trkpt>
      <trkpt lat="62.636502377616" lon="17.978839888724">
        <ele>78.6</ele>
        <time>2018-01-27T12:32:21Z</time>
      </trkpt>
      <trkpt lat="62.636472621871" lon="17.978847180977">
        <ele>78.8</ele>
        <time>2018-01-27T12:32:22Z</time>
      </trkpt>
      <trkpt lat="62.636444374868" lon="17.978864699148">
        <ele>79</ele>
        <time>2018-01-27T12:32:23Z</time>
      </trkpt>
      <trkpt lat="62.636418977711" lon="17.978877691093">
        <ele>79.2</ele>
        <time>2018-01-27T12:32:24Z</time>
      </trkpt>
      <trkpt lat="62.636390311613" lon="17.978887917011">
        <ele>79.4</ele>
        <time>2018-01-27T12:32:25Z</time>
      </trkpt>
      <trkpt lat="62.636372374347" lon="17.97890476463">
        <ele>79.6</ele>
        <time>2018-01-27T12:32:26Z</time>
      </trkpt>
      <trkpt lat="62.636353934167" lon="17.978921612249">
        <ele>79.8</ele>
        <time>2018-01-27T12:32:27Z</time>
      </trkpt>
      <trkpt lat="62.636332979417" lon="17.978932089624">
        <ele>79.8</ele>
        <time>2018-01-27T12:32:28Z</time>
      </trkpt>
      <trkpt lat="62.636315545065" lon="17.978962180645">
        <ele>80</ele>
        <time>2018-01-27T12:32:29Z</time>
      </trkpt>
      <trkpt lat="62.636295177048" lon="17.978985901422">
        <ele>80.4</ele>
        <time>2018-01-27T12:32:30Z</time>
      </trkpt>
      <trkpt lat="62.636273300289" lon="17.979007275267">
        <ele>80.6</ele>
        <time>2018-01-27T12:32:31Z</time>
      </trkpt>
      <trkpt lat="62.636251758806" lon="17.979029403483">
        <ele>81</ele>
        <time>2018-01-27T12:32:32Z</time>
      </trkpt>
      <trkpt lat="62.636234995006" lon="17.979051950794">
        <ele>81.2</ele>
        <time>2018-01-27T12:32:33Z</time>
      </trkpt>
      <trkpt lat="62.63621957231" lon="17.979067792585">
        <ele>81.6</ele>
        <time>2018-01-27T12:32:34Z</time>
      </trkpt>
      <trkpt lat="62.636206245089" lon="17.979084807842">
        <ele>81.8</ele>
        <time>2018-01-27T12:32:35Z</time>
      </trkpt>
      <trkpt lat="62.636196689723" lon="17.979097213054">
        <ele>82</ele>
        <time>2018-01-27T12:32:36Z</time>
      </trkpt>
      <trkpt lat="62.636184955063" lon="17.979110456456">
        <ele>82.4</ele>
        <time>2018-01-27T12:32:37Z</time>
      </trkpt>
      <trkpt lat="62.636173052765" lon="17.97913191412">
        <ele>82.6</ele>
        <time>2018-01-27T12:32:38Z</time>
      </trkpt>
      <trkpt lat="62.636158300621" lon="17.979155886354">
        <ele>83</ele>
        <time>2018-01-27T12:32:39Z</time>
      </trkpt>
      <trkpt lat="62.63614329702" lon="17.979182624615">
        <ele>83.4</ele>
        <time>2018-01-27T12:32:40Z</time>
      </trkpt>
      <trkpt lat="62.636134747482" lon="17.979210620161">
        <ele>83.6</ele>
        <time>2018-01-27T12:32:41Z</time>
      </trkpt>
      <trkpt lat="62.636120414433" lon="17.979241968467">
        <ele>84</ele>
        <time>2018-01-27T12:32:42Z</time>
      </trkpt>
      <trkpt lat="62.636106500479" lon="17.979274825515">
        <ele>84.4</ele>
        <time>2018-01-27T12:32:43Z</time>
      </trkpt>
      <trkpt lat="62.636096023104" lon="17.979313130798">
        <ele>84.6</ele>
        <time>2018-01-27T12:32:44Z</time>
      </trkpt>
      <trkpt lat="62.636081773874" lon="17.979346742217">
        <ele>84.8</ele>
        <time>2018-01-27T12:32:45Z</time>
      </trkpt>
      <trkpt lat="62.63607288906" lon="17.979382281473">
        <ele>85</ele>
        <time>2018-01-27T12:32:46Z</time>
      </trkpt>
      <trkpt lat="62.636065848264" lon="17.979420922032">
        <ele>85</ele>
        <time>2018-01-27T12:32:47Z</time>
      </trkpt>
      <trkpt lat="62.636056628174" lon="17.97947892478">
        <ele>85.2</ele>
        <time>2018-01-27T12:32:48Z</time>
      </trkpt>
      <trkpt lat="62.636055454708" lon="17.979539023003">
        <ele>85.2</ele>
        <time>2018-01-27T12:32:49Z</time>
      </trkpt>
      <trkpt lat="62.636046653713" lon="17.979620411252">
        <ele>85.2</ele>
        <time>2018-01-27T12:32:50Z</time>
      </trkpt>
      <trkpt lat="62.636041373116" lon="17.979711354867">
        <ele>85.2</ele>
        <time>2018-01-27T12:32:51Z</time>
      </trkpt>
      <trkpt lat="62.636033326492" lon="17.97985611028">
        <ele>85</ele>
        <time>2018-01-27T12:32:52Z</time>
      </trkpt>
      <trkpt lat="62.636029806094" lon="17.979993321983">
        <ele>84.4</ele>
        <time>2018-01-27T12:32:53Z</time>
      </trkpt>
      <trkpt lat="62.63602678861" lon="17.980132629161">
        <ele>83.6</ele>
        <time>2018-01-27T12:32:54Z</time>
      </trkpt>
      <trkpt lat="62.636035086691" lon="17.980266907199">
        <ele>82.4</ele>
        <time>2018-01-27T12:32:55Z</time>
      </trkpt>
      <trkpt lat="62.636050509387" lon="17.980388696206">
        <ele>81.4</ele>
        <time>2018-01-27T12:32:56Z</time>
      </trkpt>
      <trkpt lat="62.636074816897" lon="17.980538229302">
        <ele>80.4</ele>
        <time>2018-01-27T12:32:57Z</time>
      </trkpt>
      <trkpt lat="62.63609552019" lon="17.980667897295">
        <ele>79.6</ele>
        <time>2018-01-27T12:32:58Z</time>
      </trkpt>
      <trkpt lat="62.636120079157" lon="17.980774179787">
        <ele>79.2</ele>
        <time>2018-01-27T12:32:59Z</time>
      </trkpt>
      <trkpt lat="62.636144889581" lon="17.980888089808">
        <ele>78.8</ele>
        <time>2018-01-27T12:33:00Z</time>
      </trkpt>
      <trkpt lat="62.636168358901" lon="17.980983727287">
        <ele>78.4</ele>
        <time>2018-01-27T12:33:01Z</time>
      </trkpt>
      <trkpt lat="62.636193085506" lon="17.981111048348">
        <ele>78.2</ele>
        <time>2018-01-27T12:33:02Z</time>
      </trkpt>
      <trkpt lat="62.636208424383" lon="17.981242225083">
        <ele>78</ele>
        <time>2018-01-27T12:33:03Z</time>
      </trkpt>
      <trkpt lat="62.636214878446" lon="17.981369462325">
        <ele>77.8</ele>
        <time>2018-01-27T12:33:04Z</time>
      </trkpt>
      <trkpt lat="62.636221583966" lon="17.981474403713">
        <ele>77.6</ele>
        <time>2018-01-27T12:33:05Z</time>
      </trkpt>
      <trkpt lat="62.636230804056" lon="17.981561575473">
        <ele>77.4</ele>
        <time>2018-01-27T12:33:06Z</time>
      </trkpt>
      <trkpt lat="62.636242706354" lon="17.981665594852">
        <ele>77.2</ele>
        <time>2018-01-27T12:33:07Z</time>
      </trkpt>
      <trkpt lat="62.636247903132" lon="17.98175293425">
        <ele>77</ele>
        <time>2018-01-27T12:33:08Z</time>
      </trkpt>
      <trkpt lat="62.636257961412" lon="17.981813116292">
        <ele>77</ele>
        <time>2018-01-27T12:33:09Z</time>
      </trkpt>
      <trkpt lat="62.636268774063" lon="17.981874220343">
        <ele>77</ele>
        <time>2018-01-27T12:33:10Z</time>
      </trkpt>
      <trkpt lat="62.636278999981" lon="17.981991734581">
        <ele>77</ele>
        <time>2018-01-27T12:33:11Z</time>
      </trkpt>
      <trkpt lat="62.636298445989" lon="17.982083767843">
        <ele>77.2</ele>
        <time>2018-01-27T12:33:12Z</time>
      </trkpt>
      <trkpt lat="62.636312527581" lon="17.982169011766">
        <ele>77.4</ele>
        <time>2018-01-27T12:33:13Z</time>
      </trkpt>
      <trkpt lat="62.636314371599" lon="17.982265655073">
        <ele>77.4</ele>
        <time>2018-01-27T12:33:14Z</time>
      </trkpt>
      <trkpt lat="62.636310348287" lon="17.982358526525">
        <ele>77.6</ele>
        <time>2018-01-27T12:33:15Z</time>
      </trkpt>
      <trkpt lat="62.636307414622" lon="17.982443435172">
        <ele>77.8</ele>
        <time>2018-01-27T12:33:16Z</time>
      </trkpt>
      <trkpt lat="62.636302050206" lon="17.982547454551">
        <ele>77.8</ele>
        <time>2018-01-27T12:33:17Z</time>
      </trkpt>
      <trkpt lat="62.636304816233" lon="17.982626914963">
        <ele>77.8</ele>
        <time>2018-01-27T12:33:18Z</time>
      </trkpt>
      <trkpt lat="62.63629920036" lon="17.982707297384">
        <ele>78</ele>
        <time>2018-01-27T12:33:19Z</time>
      </trkpt>
      <trkpt lat="62.636297356342" lon="17.982781058104">
        <ele>77.8</ele>
        <time>2018-01-27T12:33:20Z</time>
      </trkpt>
      <trkpt lat="62.636297691618" lon="17.982835624273">
        <ele>77.8</ele>
        <time>2018-01-27T12:33:21Z</time>
      </trkpt>
      <trkpt lat="62.636293919763" lon="17.982937212901">
        <ele>78</ele>
        <time>2018-01-27T12:33:22Z</time>
      </trkpt>
      <trkpt lat="62.63629417122" lon="17.983011225078">
        <ele>78</ele>
        <time>2018-01-27T12:33:23Z</time>
      </trkpt>
      <trkpt lat="62.636292830116" lon="17.983088087101">
        <ele>78.2</ele>
        <time>2018-01-27T12:33:24Z</time>
      </trkpt>
      <trkpt lat="62.636290315546" lon="17.983161261088">
        <ele>78</ele>
        <time>2018-01-27T12:33:25Z</time>
      </trkpt>
      <trkpt lat="62.636291572831" lon="17.98322228132">
        <ele>78.4</ele>
        <time>2018-01-27T12:33:26Z</time>
      </trkpt>
      <trkpt lat="62.636283023293" lon="17.98330693851">
        <ele>78.4</ele>
        <time>2018-01-27T12:33:27Z</time>
      </trkpt>
      <trkpt lat="62.636273803203" lon="17.983377849384">
        <ele>78.4</ele>
        <time>2018-01-27T12:33:28Z</time>
      </trkpt>
      <trkpt lat="62.636265169846" lon="17.983434091933">
        <ele>78.6</ele>
        <time>2018-01-27T12:33:29Z</time>
      </trkpt>
      <trkpt lat="62.636251004435" lon="17.983501650047">
        <ele>78.6</ele>
        <time>2018-01-27T12:33:30Z</time>
      </trkpt>
      <trkpt lat="62.636242790173" lon="17.983557222044">
        <ele>78.6</ele>
        <time>2018-01-27T12:33:31Z</time>
      </trkpt>
      <trkpt lat="62.636231893703" lon="17.983620756846">
        <ele>78.8</ele>
        <time>2018-01-27T12:33:32Z</time>
      </trkpt>
      <trkpt lat="62.63621370498" lon="17.983687560589">
        <ele>79</ele>
        <time>2018-01-27T12:33:33Z</time>
      </trkpt>
      <trkpt lat="62.636208089107" lon="17.983741623844">
        <ele>79</ele>
        <time>2018-01-27T12:33:34Z</time>
      </trkpt>
      <trkpt lat="62.636195348619" lon="17.983803733723">
        <ele>79.2</ele>
        <time>2018-01-27T12:33:35Z</time>
      </trkpt>
      <trkpt lat="62.636188475461" lon="17.983867771439">
        <ele>79.4</ele>
        <time>2018-01-27T12:33:36Z</time>
      </trkpt>
      <trkpt lat="62.636181183208" lon="17.983932479707">
        <ele>79.4</ele>
        <time>2018-01-27T12:33:37Z</time>
      </trkpt>
      <trkpt lat="62.636174896783" lon="17.984002803848">
        <ele>79.6</ele>
        <time>2018-01-27T12:33:38Z</time>
      </trkpt>
      <trkpt lat="62.636176489344" lon="17.984048233746">
        <ele>79.8</ele>
        <time>2018-01-27T12:33:39Z</time>
      </trkpt>
      <trkpt lat="62.636163162123" lon="17.98410908634">
        <ele>79.8</ele>
        <time>2018-01-27T12:33:40Z</time>
      </trkpt>
      <trkpt lat="62.636156456603" lon="17.984169519839">
        <ele>80</ele>
        <time>2018-01-27T12:33:41Z</time>
      </trkpt>
      <trkpt lat="62.636154696404" lon="17.984227187311">
        <ele>80</ele>
        <time>2018-01-27T12:33:42Z</time>
      </trkpt>
      <trkpt lat="62.63615670806" lon="17.984290638294">
        <ele>80</ele>
        <time>2018-01-27T12:33:43Z</time>
      </trkpt>
      <trkpt lat="62.636160731372" lon="17.984343863359">
        <ele>80</ele>
        <time>2018-01-27T12:33:44Z</time>
      </trkpt>
      <trkpt lat="62.636157378612" lon="17.984417875536">
        <ele>80.2</ele>
        <time>2018-01-27T12:33:45Z</time>
      </trkpt>
      <trkpt lat="62.636161066648" lon="17.984464730357">
        <ele>80.2</ele>
        <time>2018-01-27T12:33:46Z</time>
      </trkpt>
      <trkpt lat="62.636154025852" lon="17.984535054498">
        <ele>80.2</ele>
        <time>2018-01-27T12:33:47Z</time>
      </trkpt>
      <trkpt lat="62.636151762739" lon="17.984598337843">
        <ele>80.4</ele>
        <time>2018-01-27T12:33:48Z</time>
      </trkpt>
      <trkpt lat="62.636148745255" lon="17.984649299795">
        <ele>80.4</ele>
        <time>2018-01-27T12:33:49Z</time>
      </trkpt>
      <trkpt lat="62.636142961744" lon="17.984719540117">
        <ele>80.6</ele>
        <time>2018-01-27T12:33:50Z</time>
      </trkpt>
      <trkpt lat="62.63614162064" lon="17.984763293635">
        <ele>80.6</ele>
        <time>2018-01-27T12:33:51Z</time>
      </trkpt>
      <trkpt lat="62.636135669491" lon="17.984829594464">
        <ele>80.6</ele>
        <time>2018-01-27T12:33:52Z</time>
      </trkpt>
      <trkpt lat="62.636133490197" lon="17.984884495909">
        <ele>80.6</ele>
        <time>2018-01-27T12:33:53Z</time>
      </trkpt>
      <trkpt lat="62.636129634523" lon="17.984938475345">
        <ele>80.8</ele>
        <time>2018-01-27T12:33:54Z</time>
      </trkpt>
      <trkpt lat="62.636124605383" lon="17.985005530545">
        <ele>81</ele>
        <time>2018-01-27T12:33:55Z</time>
      </trkpt>
      <trkpt lat="62.636123934831" lon="17.985049619339">
        <ele>81.2</ele>
        <time>2018-01-27T12:33:56Z</time>
      </trkpt>
      <trkpt lat="62.636122845184" lon="17.98511575253">
        <ele>81.4</ele>
        <time>2018-01-27T12:33:57Z</time>
      </trkpt>
      <trkpt lat="62.63612485684" lon="17.985157410573">
        <ele>81.4</ele>
        <time>2018-01-27T12:33:58Z</time>
      </trkpt>
      <trkpt lat="62.636123096641" lon="17.985219101357">
        <ele>81.6</ele>
        <time>2018-01-27T12:33:59Z</time>
      </trkpt>
      <trkpt lat="62.636125192116" lon="17.985271152956">
        <ele>81.6</ele>
        <time>2018-01-27T12:34:00Z</time>
      </trkpt>
      <trkpt lat="62.63612234227" lon="17.985325132392">
        <ele>81.6</ele>
        <time>2018-01-27T12:34:01Z</time>
      </trkpt>
      <trkpt lat="62.636120498252" lon="17.985389589203">
        <ele>81.6</ele>
        <time>2018-01-27T12:34:02Z</time>
      </trkpt>
      <trkpt lat="62.636124605383" lon="17.985445496476">
        <ele>81.8</ele>
        <time>2018-01-27T12:34:03Z</time>
      </trkpt>
      <trkpt lat="62.636116642578" lon="17.985501906663">
        <ele>81.8</ele>
        <time>2018-01-27T12:34:04Z</time>
      </trkpt>
      <trkpt lat="62.636108512135" lon="17.985566028198">
        <ele>81.8</ele>
        <time>2018-01-27T12:34:05Z</time>
      </trkpt>
      <trkpt lat="62.636095436371" lon="17.985623528032">
        <ele>82</ele>
        <time>2018-01-27T12:34:06Z</time>
      </trkpt>
      <trkpt lat="62.636076996191" lon="17.985688152481">
        <ele>82.2</ele>
        <time>2018-01-27T12:34:07Z</time>
      </trkpt>
      <trkpt lat="62.636066937911" lon="17.985731570723">
        <ele>82.2</ele>
        <time>2018-01-27T12:34:08Z</time>
      </trkpt>
      <trkpt lat="62.636041624573" lon="17.985764008676">
        <ele>82.4</ele>
        <time>2018-01-27T12:34:09Z</time>
      </trkpt>
      <trkpt lat="62.636032320664" lon="17.985812036963">
        <ele>82.4</ele>
        <time>2018-01-27T12:34:10Z</time>
      </trkpt>
      <trkpt lat="62.636007258783" lon="17.985842966174">
        <ele>82.4</ele>
        <time>2018-01-27T12:34:11Z</time>
      </trkpt>
      <trkpt lat="62.635984124739" lon="17.985880600905">
        <ele>82.4</ele>
        <time>2018-01-27T12:34:12Z</time>
      </trkpt>
      <trkpt lat="62.635961912704" lon="17.985926114622">
        <ele>82.6</ele>
        <time>2018-01-27T12:34:13Z</time>
      </trkpt>
      <trkpt lat="62.635927295457" lon="17.985949164847">
        <ele>82.6</ele>
        <time>2018-01-27T12:34:14Z</time>
      </trkpt>
      <trkpt lat="62.635903826137" lon="17.985980596972">
        <ele>82.8</ele>
        <time>2018-01-27T12:34:15Z</time>
      </trkpt>
      <trkpt lat="62.635889493088" lon="17.985999120971">
        <ele>83</ele>
        <time>2018-01-27T12:34:16Z</time>
      </trkpt>
      <trkpt lat="62.63586417975" lon="17.986039354091">
        <ele>83.2</ele>
        <time>2018-01-27T12:34:17Z</time>
      </trkpt>
      <trkpt lat="62.6358516069" lon="17.986076653546">
        <ele>83.4</ele>
        <time>2018-01-27T12:34:18Z</time>
      </trkpt>
      <trkpt lat="62.635824198087" lon="17.986107750395">
        <ele>83.6</ele>
        <time>2018-01-27T12:34:19Z</time>
      </trkpt>
      <trkpt lat="62.635807434287" lon="17.986158879985">
        <ele>83.6</ele>
        <time>2018-01-27T12:34:20Z</time>
      </trkpt>
      <trkpt lat="62.63578622808" lon="17.986190228291">
        <ele>83.6</ele>
        <time>2018-01-27T12:34:21Z</time>
      </trkpt>
      <trkpt lat="62.635768039357" lon="17.986241609338">
        <ele>83.8</ele>
        <time>2018-01-27T12:34:22Z</time>
      </trkpt>
      <trkpt lat="62.635755801783" lon="17.986277902965">
        <ele>83.8</ele>
        <time>2018-01-27T12:34:23Z</time>
      </trkpt>
      <trkpt lat="62.635738115974" lon="17.986321405026">
        <ele>83.8</ele>
        <time>2018-01-27T12:34:24Z</time>
      </trkpt>
      <trkpt lat="62.635735182309" lon="17.986389885149">
        <ele>84</ele>
        <time>2018-01-27T12:34:25Z</time>
      </trkpt>
      <trkpt lat="62.635720681622" lon="17.98643003445">
        <ele>84.2</ele>
        <time>2018-01-27T12:34:26Z</time>
      </trkpt>
      <trkpt lat="62.635694446275" lon="17.986483427153">
        <ele>84.2</ele>
        <time>2018-01-27T12:34:27Z</time>
      </trkpt>
      <trkpt lat="62.635690339144" lon="17.986532964182">
        <ele>84.4</ele>
        <time>2018-01-27T12:34:28Z</time>
      </trkpt>
      <trkpt lat="62.635665361082" lon="17.986578729356">
        <ele>84.6</ele>
        <time>2018-01-27T12:34:29Z</time>
      </trkpt>
      <trkpt lat="62.635658739381" lon="17.986628098747">
        <ele>84.6</ele>
        <time>2018-01-27T12:34:30Z</time>
      </trkpt>
      <trkpt lat="62.635633258405" lon="17.986674702111">
        <ele>84.8</ele>
        <time>2018-01-27T12:34:31Z</time>
      </trkpt>
      <trkpt lat="62.635613477121" lon="17.986721640751">
        <ele>85</ele>
        <time>2018-01-27T12:34:32Z</time>
      </trkpt>
      <trkpt lat="62.635597802968" lon="17.986763885527">
        <ele>85</ele>
        <time>2018-01-27T12:34:33Z</time>
      </trkpt>
      <trkpt lat="62.635588079964" lon="17.986805795027">
        <ele>85</ele>
        <time>2018-01-27T12:34:34Z</time>
      </trkpt>
      <trkpt lat="62.635565281196" lon="17.986842340111">
        <ele>85.2</ele>
        <time>2018-01-27T12:34:35Z</time>
      </trkpt>
      <trkpt lat="62.635554971459" lon="17.986888775837">
        <ele>85.2</ele>
        <time>2018-01-27T12:34:36Z</time>
      </trkpt>
      <trkpt lat="62.635528652293" lon="17.98693881578">
        <ele>85.4</ele>
        <time>2018-01-27T12:34:37Z</time>
      </trkpt>
      <trkpt lat="62.635506691715" lon="17.987004278419">
        <ele>85.6</ele>
        <time>2018-01-27T12:34:38Z</time>
      </trkpt>
      <trkpt lat="62.63548112692" lon="17.987041158779">
        <ele>85.6</ele>
        <time>2018-01-27T12:34:39Z</time>
      </trkpt>
      <trkpt lat="62.635464279301" lon="17.98708214627">
        <ele>85.8</ele>
        <time>2018-01-27T12:34:40Z</time>
      </trkpt>
      <trkpt lat="62.635445671483" lon="17.987116092965">
        <ele>85.8</ele>
        <time>2018-01-27T12:34:41Z</time>
      </trkpt>
      <trkpt lat="62.635418849403" lon="17.987164624166">
        <ele>86</ele>
        <time>2018-01-27T12:34:42Z</time>
      </trkpt>
      <trkpt lat="62.635404683992" lon="17.987219190335">
        <ele>86</ele>
        <time>2018-01-27T12:34:43Z</time>
      </trkpt>
      <trkpt lat="62.635380879396" lon="17.987266967165">
        <ele>86.2</ele>
        <time>2018-01-27T12:34:44Z</time>
      </trkpt>
      <trkpt lat="62.635372246039" lon="17.987331591614">
        <ele>86.4</ele>
        <time>2018-01-27T12:34:45Z</time>
      </trkpt>
      <trkpt lat="62.635349111995" lon="17.987345673206">
        <ele>86.6</ele>
        <time>2018-01-27T12:34:46Z</time>
      </trkpt>
      <trkpt lat="62.635333856937" lon="17.987394120588">
        <ele>86.8</ele>
        <time>2018-01-27T12:34:47Z</time>
      </trkpt>
      <trkpt lat="62.635304352649" lon="17.987441478323">
        <ele>86.8</ele>
        <time>2018-01-27T12:34:48Z</time>
      </trkpt>
      <trkpt lat="62.635288846134" lon="17.98747693376">
        <ele>87</ele>
        <time>2018-01-27T12:34:49Z</time>
      </trkpt>
      <trkpt lat="62.635260599131" lon="17.987517250699">
        <ele>87</ele>
        <time>2018-01-27T12:34:50Z</time>
      </trkpt>
      <trkpt lat="62.635246601358" lon="17.987561423312">
        <ele>87</ele>
        <time>2018-01-27T12:34:51Z</time>
      </trkpt>
      <trkpt lat="62.635223383495" lon="17.987598890405">
        <ele>87.2</ele>
        <time>2018-01-27T12:34:52Z</time>
      </trkpt>
      <trkpt lat="62.63520200965" lon="17.987634429661">
        <ele>87.2</ele>
        <time>2018-01-27T12:34:53Z</time>
      </trkpt>
      <trkpt lat="62.635192202827" lon="17.987676087704">
        <ele>87.4</ele>
        <time>2018-01-27T12:34:54Z</time>
      </trkpt>
      <trkpt lat="62.635187425144" lon="17.987716991376">
        <ele>87.6</ele>
        <time>2018-01-27T12:34:55Z</time>
      </trkpt>
      <trkpt lat="62.635186586954" lon="17.9877585656">
        <ele>87.8</ele>
        <time>2018-01-27T12:34:56Z</time>
      </trkpt>
      <trkpt lat="62.635181306357" lon="17.987807934991">
        <ele>87.8</ele>
        <time>2018-01-27T12:34:57Z</time>
      </trkpt>
      <trkpt lat="62.635171415715" lon="17.987858226391">
        <ele>87.8</ele>
        <time>2018-01-27T12:34:58Z</time>
      </trkpt>
      <trkpt lat="62.635173092095" lon="17.987895777303">
        <ele>88</ele>
        <time>2018-01-27T12:34:59Z</time>
      </trkpt>
      <trkpt lat="62.635163117634" lon="17.987955624069">
        <ele>88</ele>
        <time>2018-01-27T12:35:00Z</time>
      </trkpt>
      <trkpt lat="62.635162195625" lon="17.988007005116">
        <ele>88</ele>
        <time>2018-01-27T12:35:01Z</time>
      </trkpt>
      <trkpt lat="62.63514249816" lon="17.988058469982">
        <ele>88.2</ele>
        <time>2018-01-27T12:35:02Z</time>
      </trkpt>
      <trkpt lat="62.635143923083" lon="17.988102139681">
        <ele>88.4</ele>
        <time>2018-01-27T12:35:03Z</time>
      </trkpt>
      <trkpt lat="62.635124644713" lon="17.988147066665">
        <ele>88.4</ele>
        <time>2018-01-27T12:35:04Z</time>
      </trkpt>
      <trkpt lat="62.635121291953" lon="17.98820029173">
        <ele>88.4</ele>
        <time>2018-01-27T12:35:05Z</time>
      </trkpt>
      <trkpt lat="62.635100421022" lon="17.98822376105">
        <ele>88.6</ele>
        <time>2018-01-27T12:35:06Z</time>
      </trkpt>
      <trkpt lat="62.635091452389" lon="17.988273968631">
        <ele>88.6</ele>
        <time>2018-01-27T12:35:07Z</time>
      </trkpt>
      <trkpt lat="62.63507460477" lon="17.988285451834">
        <ele>88.6</ele>
        <time>2018-01-27T12:35:08Z</time>
      </trkpt>
      <trkpt lat="62.635065217042" lon="17.988318727977">
        <ele>88.8</ele>
        <time>2018-01-27T12:35:09Z</time>
      </trkpt>
      <trkpt lat="62.635044178473" lon="17.988339179813">
        <ele>88.8</ele>
        <time>2018-01-27T12:35:10Z</time>
      </trkpt>
      <trkpt lat="62.635033617279" lon="17.988376395449">
        <ele>89</ele>
        <time>2018-01-27T12:35:11Z</time>
      </trkpt>
      <trkpt lat="62.635005286457" lon="17.98839726638">
        <ele>89.2</ele>
        <time>2018-01-27T12:35:12Z</time>
      </trkpt>
      <trkpt lat="62.634986259544" lon="17.988418724044">
        <ele>89.2</ele>
        <time>2018-01-27T12:35:13Z</time>
      </trkpt>
      <trkpt lat="62.634968322278" lon="17.98843414674">
        <ele>89.4</ele>
        <time>2018-01-27T12:35:14Z</time>
      </trkpt>
      <trkpt lat="62.634945942605" lon="17.988447809237">
        <ele>89.6</ele>
        <time>2018-01-27T12:35:15Z</time>
      </trkpt>
      <trkpt lat="62.634935716687" lon="17.988459376259">
        <ele>89.4</ele>
        <time>2018-01-27T12:35:16Z</time>
      </trkpt>
      <trkpt lat="62.63491953962" lon="17.988474296041">
        <ele>89.6</ele>
        <time>2018-01-27T12:35:17Z</time>
      </trkpt>
      <trkpt lat="62.634902608182" lon="17.988481755932">
        <ele>89.6</ele>
        <time>2018-01-27T12:35:18Z</time>
      </trkpt>
      <trkpt lat="62.634879390319" lon="17.988488209995">
        <ele>89.8</ele>
        <time>2018-01-27T12:35:19Z</time>
      </trkpt>
      <trkpt lat="62.634855501904" lon="17.988507320727">
        <ele>90</ele>
        <time>2018-01-27T12:35:20Z</time>
      </trkpt>
      <trkpt lat="62.634840498303" lon="17.98851964212">
        <ele>90.2</ele>
        <time>2018-01-27T12:35:21Z</time>
      </trkpt>
      <trkpt lat="62.634820968476" lon="17.988532717884">
        <ele>90.4</ele>
        <time>2018-01-27T12:35:22Z</time>
      </trkpt>
      <trkpt lat="62.634799175536" lon="17.988555600471">
        <ele>90.4</ele>
        <time>2018-01-27T12:35:23Z</time>
      </trkpt>
      <trkpt lat="62.634788362885" lon="17.988579572705">
        <ele>90.6</ele>
        <time>2018-01-27T12:35:24Z</time>
      </trkpt>
      <trkpt lat="62.63476615085" lon="17.988588206062">
        <ele>90.6</ele>
        <time>2018-01-27T12:35:25Z</time>
      </trkpt>
      <trkpt lat="62.63474771067" lon="17.988590217718">
        <ele>90.4</ele>
        <time>2018-01-27T12:35:26Z</time>
      </trkpt>
      <trkpt lat="62.634721140047" lon="17.988602706749">
        <ele>90.6</ele>
        <time>2018-01-27T12:35:27Z</time>
      </trkpt>
      <trkpt lat="62.634704208609" lon="17.988629696467">
        <ele>90.6</ele>
        <time>2018-01-27T12:35:28Z</time>
      </trkpt>
      <trkpt lat="62.634690127017" lon="17.988639670928">
        <ele>90.8</ele>
        <time>2018-01-27T12:35:29Z</time>
      </trkpt>
      <trkpt lat="62.634666154783" lon="17.988656015633">
        <ele>90.8</ele>
        <time>2018-01-27T12:35:30Z</time>
      </trkpt>
      <trkpt lat="62.634645367671" lon="17.988669342854">
        <ele>91</ele>
        <time>2018-01-27T12:35:31Z</time>
      </trkpt>
      <trkpt lat="62.634629022966" lon="17.988686190473">
        <ele>91</ele>
        <time>2018-01-27T12:35:32Z</time>
      </trkpt>
      <trkpt lat="62.634608319673" lon="17.98870404392">
        <ele>91.4</ele>
        <time>2018-01-27T12:35:33Z</time>
      </trkpt>
      <trkpt lat="62.634590717683" lon="17.988724076661">
        <ele>91.4</ele>
        <time>2018-01-27T12:35:34Z</time>
      </trkpt>
      <trkpt lat="62.63457420534" lon="17.988750563465">
        <ele>91.6</ele>
        <time>2018-01-27T12:35:35Z</time>
      </trkpt>
      <trkpt lat="62.634545790699" lon="17.988793394974">
        <ele>91.8</ele>
        <time>2018-01-27T12:35:36Z</time>
      </trkpt>
      <trkpt lat="62.63453061946" lon="17.988832454628">
        <ele>92</ele>
        <time>2018-01-27T12:35:37Z</time>
      </trkpt>
      <trkpt lat="62.634508491244" lon="17.988855923948">
        <ele>92</ele>
        <time>2018-01-27T12:35:38Z</time>
      </trkpt>
      <trkpt lat="62.634490889254" lon="17.988890038281">
        <ele>92.2</ele>
        <time>2018-01-27T12:35:39Z</time>
      </trkpt>
      <trkpt lat="62.634478316404" lon="17.988919961664">
        <ele>92.2</ele>
        <time>2018-01-27T12:35:40Z</time>
      </trkpt>
      <trkpt lat="62.634461971699" lon="17.988959272775">
        <ele>92.2</ele>
        <time>2018-01-27T12:35:41Z</time>
      </trkpt>
      <trkpt lat="62.634446297546" lon="17.989005624682">
        <ele>92.4</ele>
        <time>2018-01-27T12:35:42Z</time>
      </trkpt>
      <trkpt lat="62.634427354452" lon="17.989035883341">
        <ele>92.4</ele>
        <time>2018-01-27T12:35:43Z</time>
      </trkpt>
      <trkpt lat="62.634405645331" lon="17.98906949476">
        <ele>92.4</ele>
        <time>2018-01-27T12:35:44Z</time>
      </trkpt>
      <trkpt lat="62.634395251775" lon="17.989108470595">
        <ele>92.6</ele>
        <time>2018-01-27T12:35:45Z</time>
      </trkpt>
      <trkpt lat="62.634369519342" lon="17.989143590756">
        <ele>92.8</ele>
        <time>2018-01-27T12:35:46Z</time>
      </trkpt>
      <trkpt lat="62.634362227089" lon="17.989174939062">
        <ele>92.8</ele>
        <time>2018-01-27T12:35:47Z</time>
      </trkpt>
      <trkpt lat="62.634333728629" lon="17.989219782227">
        <ele>92.8</ele>
        <time>2018-01-27T12:35:48Z</time>
      </trkpt>
      <trkpt lat="62.634317467743" lon="17.989263368107">
        <ele>92.8</ele>
        <time>2018-01-27T12:35:49Z</time>
      </trkpt>
      <trkpt lat="62.634285616523" lon="17.98929077692">
        <ele>93</ele>
        <time>2018-01-27T12:35:50Z</time>
      </trkpt>
      <trkpt lat="62.634267679257" lon="17.989310725842">
        <ele>93</ele>
        <time>2018-01-27T12:35:51Z</time>
      </trkpt>
      <trkpt lat="62.634246053955" lon="17.989348025297">
        <ele>93</ele>
        <time>2018-01-27T12:35:52Z</time>
      </trkpt>
      <trkpt lat="62.634225099205" lon="17.989383732191">
        <ele>93</ele>
        <time>2018-01-27T12:35:53Z</time>
      </trkpt>
      <trkpt lat="62.634211520527" lon="17.989407201511">
        <ele>93</ele>
        <time>2018-01-27T12:35:54Z</time>
      </trkpt>
      <trkpt lat="62.634189224673" lon="17.989415080497">
        <ele>93</ele>
        <time>2018-01-27T12:35:55Z</time>
      </trkpt>
      <trkpt lat="62.634168269923" lon="17.989437124894">
        <ele>93.2</ele>
        <time>2018-01-27T12:35:56Z</time>
      </trkpt>
      <trkpt lat="62.63414756663" lon="17.989480124041">
        <ele>93.2</ele>
        <time>2018-01-27T12:35:57Z</time>
      </trkpt>
      <trkpt lat="62.634129797002" lon="17.989501497886">
        <ele>93.4</ele>
        <time>2018-01-27T12:35:58Z</time>
      </trkpt>
      <trkpt lat="62.634111105365" lon="17.989530834536">
        <ele>93.4</ele>
        <time>2018-01-27T12:35:59Z</time>
      </trkpt>
      <trkpt lat="62.634085624389" lon="17.989550280544">
        <ele>93.6</ele>
        <time>2018-01-27T12:36:00Z</time>
      </trkpt>
      <trkpt lat="62.634055030454" lon="17.989563440127">
        <ele>93.8</ele>
        <time>2018-01-27T12:36:01Z</time>
      </trkpt>
      <trkpt lat="62.634029633297" lon="17.989581880307">
        <ele>93.8</ele>
        <time>2018-01-27T12:36:02Z</time>
      </trkpt>
      <trkpt lat="62.634010522565" lon="17.989601242496">
        <ele>94</ele>
        <time>2018-01-27T12:36:03Z</time>
      </trkpt>
      <trkpt lat="62.633991747109" lon="17.989626388196">
        <ele>94.2</ele>
        <time>2018-01-27T12:36:04Z</time>
      </trkpt>
      <trkpt lat="62.633961991364" lon="17.98965371319">
        <ele>94.4</ele>
        <time>2018-01-27T12:36:05Z</time>
      </trkpt>
      <trkpt lat="62.633942796813" lon="17.989685145315">
        <ele>94.4</ele>
        <time>2018-01-27T12:36:06Z</time>
      </trkpt>
      <trkpt lat="62.633907173738" lon="17.98972495934">
        <ele>94.4</ele>
        <time>2018-01-27T12:36:07Z</time>
      </trkpt>
      <trkpt lat="62.633887476273" lon="17.989759073673">
        <ele>94.6</ele>
        <time>2018-01-27T12:36:08Z</time>
      </trkpt>
      <trkpt lat="62.633861073288" lon="17.989800480259">
        <ele>94.8</ele>
        <time>2018-01-27T12:36:09Z</time>
      </trkpt>
      <trkpt lat="62.633843219841" lon="17.989839875189">
        <ele>94.8</ele>
        <time>2018-01-27T12:36:10Z</time>
      </trkpt>
      <trkpt lat="62.633831149905" lon="17.989879353938">
        <ele>94.8</ele>
        <time>2018-01-27T12:36:11Z</time>
      </trkpt>
      <trkpt lat="62.633811787716" lon="17.989931405537">
        <ele>94.8</ele>
        <time>2018-01-27T12:36:12Z</time>
      </trkpt>
      <trkpt lat="62.633794521002" lon="17.989970716648">
        <ele>94.8</ele>
        <time>2018-01-27T12:36:13Z</time>
      </trkpt>
      <trkpt lat="62.633773985347" lon="17.9900300605">
        <ele>94.8</ele>
        <time>2018-01-27T12:36:14Z</time>
      </trkpt>
      <trkpt lat="62.633761580135" lon="17.990090913094">
        <ele>94.8</ele>
        <time>2018-01-27T12:36:15Z</time>
      </trkpt>
      <trkpt lat="62.633744816335" lon="17.990118573364">
        <ele>94.8</ele>
        <time>2018-01-27T12:36:16Z</time>
      </trkpt>
      <trkpt lat="62.633727298164" lon="17.990171966067">
        <ele>94.8</ele>
        <time>2018-01-27T12:36:17Z</time>
      </trkpt>
      <trkpt lat="62.633710702002" lon="17.990210606626">
        <ele>94.8</ele>
        <time>2018-01-27T12:36:18Z</time>
      </trkpt>
      <trkpt lat="62.633678347868" lon="17.990249750099">
        <ele>95</ele>
        <time>2018-01-27T12:36:19Z</time>
      </trkpt>
      <trkpt lat="62.63366141643" lon="17.990276739817">
        <ele>95</ele>
        <time>2018-01-27T12:36:20Z</time>
      </trkpt>
      <trkpt lat="62.633652363978" lon="17.990293335979">
        <ele>95.2</ele>
        <time>2018-01-27T12:36:21Z</time>
      </trkpt>
      <trkpt lat="62.633623194966" lon="17.990313201082">
        <ele>95.2</ele>
        <time>2018-01-27T12:36:22Z</time>
      </trkpt>
      <trkpt lat="62.63359603761" lon="17.990334658746">
        <ele>95.2</ele>
        <time>2018-01-27T12:36:23Z</time>
      </trkpt>
      <trkpt lat="62.633584638226" lon="17.9903569546">
        <ele>95.2</ele>
        <time>2018-01-27T12:36:24Z</time>
      </trkpt>
      <trkpt lat="62.633577681249" lon="17.990404815249">
        <ele>95.2</ele>
        <time>2018-01-27T12:36:25Z</time>
      </trkpt>
      <trkpt lat="62.633553457558" lon="17.99045167007">
        <ele>95.2</ele>
        <time>2018-01-27T12:36:26Z</time>
      </trkpt>
      <trkpt lat="62.633522025433" lon="17.990462985635">
        <ele>95.4</ele>
        <time>2018-01-27T12:36:27Z</time>
      </trkpt>
      <trkpt lat="62.633500232493" lon="17.990494166303">
        <ele>95.6</ele>
        <time>2018-01-27T12:36:28Z</time>
      </trkpt>
      <trkpt lat="62.63347617644" lon="17.990520653107">
        <ele>95.8</ele>
        <time>2018-01-27T12:36:29Z</time>
      </trkpt>
      <trkpt lat="62.633436446234" lon="17.990536494898">
        <ele>95.8</ele>
        <time>2018-01-27T12:36:30Z</time>
      </trkpt>
      <trkpt lat="62.633407025765" lon="17.990580583692">
        <ele>96</ele>
        <time>2018-01-27T12:36:31Z</time>
      </trkpt>
      <trkpt lat="62.63336637355" lon="17.990590055239">
        <ele>96</ele>
        <time>2018-01-27T12:36:32Z</time>
      </trkpt>
      <trkpt lat="62.633336282529" lon="17.99060505884">
        <ele>96</ele>
        <time>2018-01-27T12:36:33Z</time>
      </trkpt>
      <trkpt lat="62.633310717734" lon="17.990636993879">
        <ele>96</ele>
        <time>2018-01-27T12:36:34Z</time>
      </trkpt>
      <trkpt lat="62.633273753555" lon="17.9906754668">
        <ele>96</ele>
        <time>2018-01-27T12:36:35Z</time>
      </trkpt>
      <trkpt lat="62.633265874569" lon="17.990707653296">
        <ele>95.8</ele>
        <time>2018-01-27T12:36:36Z</time>
      </trkpt>
      <trkpt lat="62.633228994209" lon="17.990779821455">
        <ele>95.8</ele>
        <time>2018-01-27T12:36:37Z</time>
      </trkpt>
      <trkpt lat="62.633210218753" lon="17.99081879729">
        <ele>95.8</ele>
        <time>2018-01-27T12:36:38Z</time>
      </trkpt>
      <trkpt lat="62.63319119184" lon="17.990862215532">
        <ele>95.8</ele>
        <time>2018-01-27T12:36:39Z</time>
      </trkpt>
      <trkpt lat="62.633171494375" lon="17.990905801412">
        <ele>95.6</ele>
        <time>2018-01-27T12:36:40Z</time>
      </trkpt>
      <trkpt lat="62.633159172982" lon="17.990955338441">
        <ele>95.8</ele>
        <time>2018-01-27T12:36:41Z</time>
      </trkpt>
      <trkpt lat="62.633128495228" lon="17.991036139957">
        <ele>95.8</ele>
        <time>2018-01-27T12:36:42Z</time>
      </trkpt>
      <trkpt lat="62.63312329845" lon="17.991082575683">
        <ele>95.8</ele>
        <time>2018-01-27T12:36:43Z</time>
      </trkpt>
      <trkpt lat="62.633100332044" lon="17.991155246756">
        <ele>95.8</ele>
        <time>2018-01-27T12:36:44Z</time>
      </trkpt>
      <trkpt lat="62.633089016479" lon="17.991192127116">
        <ele>95.8</ele>
        <time>2018-01-27T12:36:45Z</time>
      </trkpt>
      <trkpt lat="62.633067055901" lon="17.991236299729">
        <ele>95.8</ele>
        <time>2018-01-27T12:36:46Z</time>
      </trkpt>
      <trkpt lat="62.633052555214" lon="17.991284160378">
        <ele>95.8</ele>
        <time>2018-01-27T12:36:47Z</time>
      </trkpt>
      <trkpt lat="62.633030175541" lon="17.991335457606">
        <ele>95.8</ele>
        <time>2018-01-27T12:36:48Z</time>
      </trkpt>
      <trkpt lat="62.633006454764" lon="17.991404943557">
        <ele>95.8</ele>
        <time>2018-01-27T12:36:49Z</time>
      </trkpt>
      <trkpt lat="62.63298834986" lon="17.991477530811">
        <ele>95.8</ele>
        <time>2018-01-27T12:36:50Z</time>
      </trkpt>
      <trkpt lat="62.63296152778" lon="17.991522206338">
        <ele>95.8</ele>
        <time>2018-01-27T12:36:51Z</time>
      </trkpt>
      <trkpt lat="62.632944344885" lon="17.991560260164">
        <ele>95.8</ele>
        <time>2018-01-27T12:36:52Z</time>
      </trkpt>
      <trkpt lat="62.632920288832" lon="17.991617257084">
        <ele>95.8</ele>
        <time>2018-01-27T12:36:53Z</time>
      </trkpt>
      <trkpt lat="62.632891455096" lon="17.991673918728">
        <ele>95.8</ele>
        <time>2018-01-27T12:36:54Z</time>
      </trkpt>
      <trkpt lat="62.632875026572" lon="17.991724964499">
        <ele>95.8</ele>
        <time>2018-01-27T12:36:55Z</time>
      </trkpt>
      <trkpt lat="62.63285172489" lon="17.991787158197">
        <ele>95.8</ele>
        <time>2018-01-27T12:36:56Z</time>
      </trkpt>
      <trkpt lat="62.632828507027" lon="17.99183803633">
        <ele>95.8</ele>
        <time>2018-01-27T12:36:57Z</time>
      </trkpt>
      <trkpt lat="62.632815850358" lon="17.991894278879">
        <ele>95.6</ele>
        <time>2018-01-27T12:36:58Z</time>
      </trkpt>
      <trkpt lat="62.632816856186" lon="17.991959741518">
        <ele>95.6</ele>
        <time>2018-01-27T12:36:59Z</time>
      </trkpt>
      <trkpt lat="62.632830518683" lon="17.992009194728">
        <ele>95.8</ele>
        <time>2018-01-27T12:37:00Z</time>
      </trkpt>
      <trkpt lat="62.632851473433" lon="17.992035597713">
        <ele>96</ele>
        <time>2018-01-27T12:37:01Z</time>
      </trkpt>
      <trkpt lat="62.632871506174" lon="17.992067532752">
        <ele>96</ele>
        <time>2018-01-27T12:37:02Z</time>
      </trkpt>
      <trkpt lat="62.632893382933" lon="17.992076669023">
        <ele>96.2</ele>
        <time>2018-01-27T12:37:03Z</time>
      </trkpt>
      <trkpt lat="62.632922803402" lon="17.992078093946">
        <ele>96.2</ele>
        <time>2018-01-27T12:37:04Z</time>
      </trkpt>
      <trkpt lat="62.632940489211" lon="17.992079518869">
        <ele>96.2</ele>
        <time>2018-01-27T12:37:05Z</time>
      </trkpt>
      <trkpt lat="62.632965048178" lon="17.992091840262">
        <ele>96.2</ele>
        <time>2018-01-27T12:37:06Z</time>
      </trkpt>
      <trkpt lat="62.632994887742" lon="17.99210374256">
        <ele>96.4</ele>
        <time>2018-01-27T12:37:07Z</time>
      </trkpt>
      <trkpt lat="62.633023805297" lon="17.992123523844">
        <ele>96.4</ele>
        <time>2018-01-27T12:37:08Z</time>
      </trkpt>
      <trkpt lat="62.633048531902" lon="17.992138443626">
        <ele>96.4</ele>
        <time>2018-01-27T12:37:09Z</time>
      </trkpt>
      <trkpt lat="62.633076946543" lon="17.992145735879">
        <ele>96.2</ele>
        <time>2018-01-27T12:37:10Z</time>
      </trkpt>
      <trkpt lat="62.633112904894" lon="17.992166690629">
        <ele>96.2</ele>
        <time>2018-01-27T12:37:11Z</time>
      </trkpt>
      <trkpt lat="62.633154814394" lon="17.992185466085">
        <ele>96.2</ele>
        <time>2018-01-27T12:37:12Z</time>
      </trkpt>
      <trkpt lat="62.633182055569" lon="17.992213126355">
        <ele>96</ele>
        <time>2018-01-27T12:37:13Z</time>
      </trkpt>
      <trkpt lat="62.633212900961" lon="17.992239277883">
        <ele>96</ele>
        <time>2018-01-27T12:37:14Z</time>
      </trkpt>
      <trkpt lat="62.633243327258" lon="17.992236595675">
        <ele>96.2</ele>
        <time>2018-01-27T12:37:15Z</time>
      </trkpt>
      <trkpt lat="62.633277693048" lon="17.992266770515">
        <ele>96</ele>
        <time>2018-01-27T12:37:16Z</time>
      </trkpt>
      <trkpt lat="62.633313902856" lon="17.992277583166">
        <ele>96</ele>
        <time>2018-01-27T12:37:17Z</time>
      </trkpt>
      <trkpt lat="62.633351034673" lon="17.992282193211">
        <ele>96.2</ele>
        <time>2018-01-27T12:37:18Z</time>
      </trkpt>
      <trkpt lat="62.633382215341" lon="17.992291078025">
        <ele>96.2</ele>
        <time>2018-01-27T12:37:19Z</time>
      </trkpt>
      <trkpt lat="62.633424460117" lon="17.992294430785">
        <ele>96</ele>
        <time>2018-01-27T12:37:20Z</time>
      </trkpt>
      <trkpt lat="62.633457484803" lon="17.99231161368">
        <ele>96</ele>
        <time>2018-01-27T12:37:21Z</time>
      </trkpt>
      <trkpt lat="62.633510877506" lon="17.992335334457">
        <ele>95.8</ele>
        <time>2018-01-27T12:37:22Z</time>
      </trkpt>
      <trkpt lat="62.63355161354" lon="17.992367604772">
        <ele>95.6</ele>
        <time>2018-01-27T12:37:23Z</time>
      </trkpt>
      <trkpt lat="62.633588912995" lon="17.992414040498">
        <ele>95.4</ele>
        <time>2018-01-27T12:37:24Z</time>
      </trkpt>
      <trkpt lat="62.633619926025" lon="17.992468774305">
        <ele>95</ele>
        <time>2018-01-27T12:37:25Z</time>
      </trkpt>
      <trkpt lat="62.633646412829" lon="17.992522167008">
        <ele>94.8</ele>
        <time>2018-01-27T12:37:26Z</time>
      </trkpt>
      <trkpt lat="62.633680108067" lon="17.992584779801">
        <ele>94.6</ele>
        <time>2018-01-27T12:37:27Z</time>
      </trkpt>
      <trkpt lat="62.633709360898" lon="17.992648817517">
        <ele>94.6</ele>
        <time>2018-01-27T12:37:28Z</time>
      </trkpt>
      <trkpt lat="62.633734925693" lon="17.992705730618">
        <ele>94.4</ele>
        <time>2018-01-27T12:37:29Z</time>
      </trkpt>
      <trkpt lat="62.633761244859" lon="17.992770355067">
        <ele>94.2</ele>
        <time>2018-01-27T12:37:30Z</time>
      </trkpt>
      <trkpt lat="62.633787731663" lon="17.992836236801">
        <ele>94.2</ele>
        <time>2018-01-27T12:37:31Z</time>
      </trkpt>
      <trkpt lat="62.633816816856" lon="17.992904381648">
        <ele>94</ele>
        <time>2018-01-27T12:37:32Z</time>
      </trkpt>
      <trkpt lat="62.633850763551" lon="17.992966994441">
        <ele>94</ele>
        <time>2018-01-27T12:37:33Z</time>
      </trkpt>
      <trkpt lat="62.633888817377" lon="17.993027930854">
        <ele>93.6</ele>
        <time>2018-01-27T12:37:34Z</time>
      </trkpt>
      <trkpt lat="62.63392293171" lon="17.9930810721">
        <ele>93.4</ele>
        <time>2018-01-27T12:37:35Z</time>
      </trkpt>
      <trkpt lat="62.633959057699" lon="17.993129184206">
        <ele>93.2</ele>
        <time>2018-01-27T12:37:36Z</time>
      </trkpt>
      <trkpt lat="62.634004068502" lon="17.993185091479">
        <ele>93</ele>
        <time>2018-01-27T12:37:37Z</time>
      </trkpt>
      <trkpt lat="62.634045055993" lon="17.993241417847">
        <ele>92.6</ele>
        <time>2018-01-27T12:37:38Z</time>
      </trkpt>
      <trkpt lat="62.634084618561" lon="17.993298917681">
        <ele>92.4</ele>
        <time>2018-01-27T12:37:39Z</time>
      </trkpt>
      <trkpt lat="62.634122504749" lon="17.993359770275">
        <ele>92</ele>
        <time>2018-01-27T12:37:40Z</time>
      </trkpt>
      <trkpt lat="62.634160726213" lon="17.99340712801">
        <ele>91.6</ele>
        <time>2018-01-27T12:37:41Z</time>
      </trkpt>
      <trkpt lat="62.63421126907" lon="17.993449540424">
        <ele>91</ele>
        <time>2018-01-27T12:37:42Z</time>
      </trkpt>
      <trkpt lat="62.63425820771" lon="17.993474769943">
        <ele>90.6</ele>
        <time>2018-01-27T12:37:43Z</time>
      </trkpt>
      <trkpt lat="62.634307828558" lon="17.993496311426">
        <ele>90</ele>
        <time>2018-01-27T12:37:44Z</time>
      </trkpt>
      <trkpt lat="62.63436465784" lon="17.993519780746">
        <ele>89.6</ele>
        <time>2018-01-27T12:37:45Z</time>
      </trkpt>
      <trkpt lat="62.634417966724" lon="17.993545094084">
        <ele>89.4</ele>
        <time>2018-01-27T12:37:46Z</time>
      </trkpt>
      <trkpt lat="62.634485441019" lon="17.993570072146">
        <ele>89</ele>
        <time>2018-01-27T12:37:47Z</time>
      </trkpt>
      <trkpt lat="62.634556938626" lon="17.993598822063">
        <ele>88.6</ele>
        <time>2018-01-27T12:37:48Z</time>
      </trkpt>
      <trkpt lat="62.634625083473" lon="17.993626649971">
        <ele>88.2</ele>
        <time>2018-01-27T12:37:49Z</time>
      </trkpt>
      <trkpt lat="62.634691468121" lon="17.993664117064">
        <ele>87.8</ele>
        <time>2018-01-27T12:37:50Z</time>
      </trkpt>
      <trkpt lat="62.634752320715" lon="17.993678450113">
        <ele>87.4</ele>
        <time>2018-01-27T12:37:51Z</time>
      </trkpt>
      <trkpt lat="62.63483236786" lon="17.993686412918">
        <ele>86.8</ele>
        <time>2018-01-27T12:37:52Z</time>
      </trkpt>
      <trkpt lat="62.634899171603" lon="17.993690771506">
        <ele>86.6</ele>
        <time>2018-01-27T12:37:53Z</time>
      </trkpt>
      <trkpt lat="62.634972513228" lon="17.993700829786">
        <ele>86</ele>
        <time>2018-01-27T12:37:54Z</time>
      </trkpt>
      <trkpt lat="62.635031605623" lon="17.993723880011">
        <ele>85.2</ele>
        <time>2018-01-27T12:37:55Z</time>
      </trkpt>
      <trkpt lat="62.635084495412" lon="17.993741901096">
        <ele>84.6</ele>
        <time>2018-01-27T12:37:56Z</time>
      </trkpt>
      <trkpt lat="62.635146018558" lon="17.99376335876">
        <ele>84</ele>
        <time>2018-01-27T12:37:57Z</time>
      </trkpt>
      <trkpt lat="62.635210894464" lon="17.993777440352">
        <ele>83.6</ele>
        <time>2018-01-27T12:37:58Z</time>
      </trkpt>
      <trkpt lat="62.635271244144" lon="17.993793449781">
        <ele>83.2</ele>
        <time>2018-01-27T12:37:59Z</time>
      </trkpt>
      <trkpt lat="62.635342406475" lon="17.993804597708">
        <ele>82.6</ele>
        <time>2018-01-27T12:38:00Z</time>
      </trkpt>
      <trkpt lat="62.635397894653" lon="17.993815997092">
        <ele>82.2</ele>
        <time>2018-01-27T12:38:01Z</time>
      </trkpt>
      <trkpt lat="62.635455059211" lon="17.993825049544">
        <ele>82</ele>
        <time>2018-01-27T12:38:02Z</time>
      </trkpt>
      <trkpt lat="62.63551213995" lon="17.993829743408">
        <ele>81.4</ele>
        <time>2018-01-27T12:38:03Z</time>
      </trkpt>
      <trkpt lat="62.635572908725" lon="17.993831671245">
        <ele>80.8</ele>
        <time>2018-01-27T12:38:04Z</time>
      </trkpt>
      <trkpt lat="62.635634431871" lon="17.993838628222">
        <ele>80.4</ele>
        <time>2018-01-27T12:38:05Z</time>
      </trkpt>
      <trkpt lat="62.635683549805" lon="17.99384717776">
        <ele>79.8</ele>
        <time>2018-01-27T12:38:06Z</time>
      </trkpt>
      <trkpt lat="62.635744402399" lon="17.993873413107">
        <ele>79.2</ele>
        <time>2018-01-27T12:38:07Z</time>
      </trkpt>
      <trkpt lat="62.635800980224" lon="17.993899564635">
        <ele>78.6</ele>
        <time>2018-01-27T12:38:08Z</time>
      </trkpt>
      <trkpt lat="62.635847332131" lon="17.993922279584">
        <ele>78.2</ele>
        <time>2018-01-27T12:38:09Z</time>
      </trkpt>
      <trkpt lat="62.635891672382" lon="17.993929739475">
        <ele>78</ele>
        <time>2018-01-27T12:38:10Z</time>
      </trkpt>
      <trkpt lat="62.635938108108" lon="17.993930745303">
        <ele>77.6</ele>
        <time>2018-01-27T12:38:11Z</time>
      </trkpt>
      <trkpt lat="62.635991165535" lon="17.993923536869">
        <ele>77.6</ele>
        <time>2018-01-27T12:38:12Z</time>
      </trkpt>
      <trkpt lat="62.63603684689" lon="17.993907275983">
        <ele>77.4</ele>
        <time>2018-01-27T12:38:13Z</time>
      </trkpt>
      <trkpt lat="62.636089233765" lon="17.993889171079">
        <ele>77.2</ele>
        <time>2018-01-27T12:38:14Z</time>
      </trkpt>
      <trkpt lat="62.63614832616" lon="17.993859247696">
        <ele>77.6</ele>
        <time>2018-01-27T12:38:15Z</time>
      </trkpt>
      <trkpt lat="62.636181686122" lon="17.993827228838">
        <ele>77.2</ele>
        <time>2018-01-27T12:38:16Z</time>
      </trkpt>
      <trkpt lat="62.636249160417" lon="17.993779032913">
        <ele>76.6</ele>
        <time>2018-01-27T12:38:17Z</time>
      </trkpt>
      <trkpt lat="62.636306492613" lon="17.99372061107">
        <ele>76</ele>
        <time>2018-01-27T12:38:18Z</time>
      </trkpt>
      <trkpt lat="62.636351084321" lon="17.993656824811">
        <ele>75.8</ele>
        <time>2018-01-27T12:38:19Z</time>
      </trkpt>
      <trkpt lat="62.636396681857" lon="17.993585578661">
        <ele>74.6</ele>
        <time>2018-01-27T12:38:20Z</time>
      </trkpt>
      <trkpt lat="62.636431299104" lon="17.99353872384">
        <ele>74</ele>
        <time>2018-01-27T12:38:21Z</time>
      </trkpt>
      <trkpt lat="62.636478489201" lon="17.99346747769">
        <ele>74</ele>
        <time>2018-01-27T12:38:22Z</time>
      </trkpt>
      <trkpt lat="62.636531462809" lon="17.993396650635">
        <ele>73.6</ele>
        <time>2018-01-27T12:38:23Z</time>
      </trkpt>
      <trkpt lat="62.636594662335" lon="17.993318531327">
        <ele>72.8</ele>
        <time>2018-01-27T12:38:24Z</time>
      </trkpt>
      <trkpt lat="62.63665710749" lon="17.993244016236">
        <ele>72.2</ele>
        <time>2018-01-27T12:38:25Z</time>
      </trkpt>
      <trkpt lat="62.636715445514" lon="17.993168411498">
        <ele>71.6</ele>
        <time>2018-01-27T12:38:26Z</time>
      </trkpt>
      <trkpt lat="62.63676858676" lon="17.993071600553">
        <ele>71</ele>
        <time>2018-01-27T12:38:27Z</time>
      </trkpt>
      <trkpt lat="62.63680462893" lon="17.992978142368">
        <ele>70</ele>
        <time>2018-01-27T12:38:28Z</time>
      </trkpt>
      <trkpt lat="62.636846873706" lon="17.992885690011">
        <ele>69.8</ele>
        <time>2018-01-27T12:38:29Z</time>
      </trkpt>
      <trkpt lat="62.636851399932" lon="17.992788376152">
        <ele>69.2</ele>
        <time>2018-01-27T12:38:30Z</time>
      </trkpt>
      <trkpt lat="62.636860703841" lon="17.992682009841">
        <ele>69</ele>
        <time>2018-01-27T12:38:31Z</time>
      </trkpt>
      <trkpt lat="62.636879898392" lon="17.992604728723">
        <ele>69.2</ele>
        <time>2018-01-27T12:38:32Z</time>
      </trkpt>
      <trkpt lat="62.636891213957" lon="17.992521580275">
        <ele>69.8</ele>
        <time>2018-01-27T12:38:33Z</time>
      </trkpt>
      <trkpt lat="62.636902613341" lon="17.99244823865">
        <ele>70.4</ele>
        <time>2018-01-27T12:38:34Z</time>
      </trkpt>
      <trkpt lat="62.636904708816" lon="17.992360983071">
        <ele>70.8</ele>
        <time>2018-01-27T12:38:35Z</time>
      </trkpt>
      <trkpt lat="62.636907642481" lon="17.992320749951">
        <ele>71.2</ele>
        <time>2018-01-27T12:38:36Z</time>
      </trkpt>
      <trkpt lat="62.636923568091" lon="17.992241792453">
        <ele>71.6</ele>
        <time>2018-01-27T12:38:37Z</time>
      </trkpt>
      <trkpt lat="62.636929770697" lon="17.992171468312">
        <ele>71.4</ele>
        <time>2018-01-27T12:38:38Z</time>
      </trkpt>
      <trkpt lat="62.636936643855" lon="17.992132576296">
        <ele>71.6</ele>
        <time>2018-01-27T12:38:39Z</time>
      </trkpt>
      <trkpt lat="62.636949719619" lon="17.992090582977">
        <ele>71.6</ele>
        <time>2018-01-27T12:38:40Z</time>
      </trkpt>
      <trkpt lat="62.636961202822" lon="17.992019001551">
        <ele>71.8</ele>
        <time>2018-01-27T12:38:41Z</time>
      </trkpt>
      <trkpt lat="62.63698903073" lon="17.991968877789">
        <ele>71.8</ele>
        <time>2018-01-27T12:38:42Z</time>
      </trkpt>
      <trkpt lat="62.637006045987" lon="17.991894027422">
        <ele>71.8</ele>
        <time>2018-01-27T12:38:43Z</time>
      </trkpt>
      <trkpt lat="62.637027922746" lon="17.991832336638">
        <ele>72</ele>
        <time>2018-01-27T12:38:44Z</time>
      </trkpt>
      <trkpt lat="62.6370502186" lon="17.99176595199">
        <ele>71.8</ele>
        <time>2018-01-27T12:38:45Z</time>
      </trkpt>
      <trkpt lat="62.637067150038" lon="17.99171146964">
        <ele>71.8</ele>
        <time>2018-01-27T12:38:46Z</time>
      </trkpt>
      <trkpt lat="62.637090116444" lon="17.991671571796">
        <ele>71.8</ele>
        <time>2018-01-27T12:38:47Z</time>
      </trkpt>
      <trkpt lat="62.637109478633" lon="17.991611976487">
        <ele>71.8</ele>
        <time>2018-01-27T12:38:48Z</time>
      </trkpt>
      <trkpt lat="62.637131942125" lon="17.991558583784">
        <ele>71.8</ele>
        <time>2018-01-27T12:38:49Z</time>
      </trkpt>
      <trkpt lat="62.637155495264" lon="17.991501251588">
        <ele>72</ele>
        <time>2018-01-27T12:38:50Z</time>
      </trkpt>
      <trkpt lat="62.637173097254" lon="17.991450960188">
        <ele>72</ele>
        <time>2018-01-27T12:38:51Z</time>
      </trkpt>
      <trkpt lat="62.637189190502" lon="17.9914046921">
        <ele>72.2</ele>
        <time>2018-01-27T12:38:52Z</time>
      </trkpt>
      <trkpt lat="62.637207379225" lon="17.991341157298">
        <ele>72.2</ele>
        <time>2018-01-27T12:38:53Z</time>
      </trkpt>
      <trkpt lat="62.637226154681" lon="17.991289105699">
        <ele>72</ele>
        <time>2018-01-27T12:38:54Z</time>
      </trkpt>
      <trkpt lat="62.637245349232" lon="17.991219619748">
        <ele>72</ele>
        <time>2018-01-27T12:38:55Z</time>
      </trkpt>
      <trkpt lat="62.637266220163" lon="17.991172764927">
        <ele>72</ele>
        <time>2018-01-27T12:38:56Z</time>
      </trkpt>
      <trkpt lat="62.637289521845" lon="17.991096908732">
        <ele>72</ele>
        <time>2018-01-27T12:38:57Z</time>
      </trkpt>
      <trkpt lat="62.637309806043" lon="17.991035804681">
        <ele>72</ele>
        <time>2018-01-27T12:38:58Z</time>
      </trkpt>
      <trkpt lat="62.637323217083" lon="17.990979478313">
        <ele>72</ele>
        <time>2018-01-27T12:38:59Z</time>
      </trkpt>
      <trkpt lat="62.637339226512" lon="17.990928432542">
        <ele>72</ele>
        <time>2018-01-27T12:39:00Z</time>
      </trkpt>
      <trkpt lat="62.63735029062" lon="17.990891049268">
        <ele>72</ele>
        <time>2018-01-27T12:39:01Z</time>
      </trkpt>
      <trkpt lat="62.637357499054" lon="17.990831956873">
        <ele>72</ele>
        <time>2018-01-27T12:39:02Z</time>
      </trkpt>
      <trkpt lat="62.637363198746" lon="17.990793064857">
        <ele>72</ele>
        <time>2018-01-27T12:39:03Z</time>
      </trkpt>
      <trkpt lat="62.63737292175" lon="17.990718465947">
        <ele>72</ele>
        <time>2018-01-27T12:39:04Z</time>
      </trkpt>
      <trkpt lat="62.637383902039" lon="17.990662307217">
        <ele>71.8</ele>
        <time>2018-01-27T12:39:05Z</time>
      </trkpt>
      <trkpt lat="62.637390607559" lon="17.990584020271">
        <ele>71.8</ele>
        <time>2018-01-27T12:39:06Z</time>
      </trkpt>
      <trkpt lat="62.637402677495" lon="17.990522245668">
        <ele>71.8</ele>
        <time>2018-01-27T12:39:07Z</time>
      </trkpt>
      <trkpt lat="62.637417010544" lon="17.990420154126">
        <ele>71.6</ele>
        <time>2018-01-27T12:39:08Z</time>
      </trkpt>
      <trkpt lat="62.637430170127" lon="17.990340106981">
        <ele>71.6</ele>
        <time>2018-01-27T12:39:09Z</time>
      </trkpt>
      <trkpt lat="62.63743243324" lon="17.990263999329">
        <ele>71.4</ele>
        <time>2018-01-27T12:39:10Z</time>
      </trkpt>
      <trkpt lat="62.637437378561" lon="17.990228124797">
        <ele>71.4</ele>
        <time>2018-01-27T12:39:11Z</time>
      </trkpt>
      <trkpt lat="62.637432600878" lon="17.990172804257">
        <ele>71.2</ele>
        <time>2018-01-27T12:39:12Z</time>
      </trkpt>
      <trkpt lat="62.637440898959" lon="17.990106754885">
        <ele>71.2</ele>
        <time>2018-01-27T12:39:13Z</time>
      </trkpt>
      <trkpt lat="62.637453555628" lon="17.990069790706">
        <ele>71.4</ele>
        <time>2018-01-27T12:39:14Z</time>
      </trkpt>
      <trkpt lat="62.637466882849" lon="17.989996365262">
        <ele>71.4</ele>
        <time>2018-01-27T12:39:15Z</time>
      </trkpt>
      <trkpt lat="62.637483479011" lon="17.989959568721">
        <ele>71.4</ele>
        <time>2018-01-27T12:39:16Z</time>
      </trkpt>
      <trkpt lat="62.637502589743" lon="17.989893519349">
        <ele>71.4</ele>
        <time>2018-01-27T12:39:17Z</time>
      </trkpt>
      <trkpt lat="62.637525723787" lon="17.989855968437">
        <ele>71.6</ele>
        <time>2018-01-27T12:39:18Z</time>
      </trkpt>
      <trkpt lat="62.637539134827" lon="17.989805677037">
        <ele>71.6</ele>
        <time>2018-01-27T12:39:19Z</time>
      </trkpt>
      <trkpt lat="62.637560173396" lon="17.989756475284">
        <ele>71.6</ele>
        <time>2018-01-27T12:39:20Z</time>
      </trkpt>
      <trkpt lat="62.637572578608" lon="17.989713476137">
        <ele>71.6</ele>
        <time>2018-01-27T12:39:21Z</time>
      </trkpt>
      <trkpt lat="62.637592276073" lon="17.989663939108">
        <ele>71.6</ele>
        <time>2018-01-27T12:39:22Z</time>
      </trkpt>
      <trkpt lat="62.637612727909" lon="17.98960677455">
        <ele>71.8</ele>
        <time>2018-01-27T12:39:23Z</time>
      </trkpt>
      <trkpt lat="62.637634939944" lon="17.989541311911">
        <ele>71.8</ele>
        <time>2018-01-27T12:39:24Z</time>
      </trkpt>
      <trkpt lat="62.63765706816" lon="17.98948020786">
        <ele>71.6</ele>
        <time>2018-01-27T12:39:25Z</time>
      </trkpt>
      <trkpt lat="62.63767550834" lon="17.989423294759">
        <ele>71.6</ele>
        <time>2018-01-27T12:39:26Z</time>
      </trkpt>
      <trkpt lat="62.637697049823" lon="17.9893595085">
        <ele>71.4</ele>
        <time>2018-01-27T12:39:27Z</time>
      </trkpt>
      <trkpt lat="62.637726218835" lon="17.989290944558">
        <ele>71</ele>
        <time>2018-01-27T12:39:28Z</time>
      </trkpt>
      <trkpt lat="62.637755220209" lon="17.989209723947">
        <ele>70.8</ele>
        <time>2018-01-27T12:39:29Z</time>
      </trkpt>
      <trkpt lat="62.63778698761" lon="17.989123474196">
        <ele>70.6</ele>
        <time>2018-01-27T12:39:30Z</time>
      </trkpt>
      <trkpt lat="62.637807858541" lon="17.989047450363">
        <ele>70</ele>
        <time>2018-01-27T12:39:31Z</time>
      </trkpt>
      <trkpt lat="62.637837195191" lon="17.988971677987">
        <ele>69.6</ele>
        <time>2018-01-27T12:39:32Z</time>
      </trkpt>
      <trkpt lat="62.637853288439" lon="17.988891882299">
        <ele>69.4</ele>
        <time>2018-01-27T12:39:33Z</time>
      </trkpt>
      <trkpt lat="62.637861167425" lon="17.988834885379">
        <ele>69.2</ele>
        <time>2018-01-27T12:39:34Z</time>
      </trkpt>
      <trkpt lat="62.637873153542" lon="17.988755341148">
        <ele>69.2</ele>
        <time>2018-01-27T12:39:35Z</time>
      </trkpt>
      <trkpt lat="62.637882876546" lon="17.988720975358">
        <ele>69.4</ele>
        <time>2018-01-27T12:39:36Z</time>
      </trkpt>
      <trkpt lat="62.637894359749" lon="17.988642939869">
        <ele>69.6</ele>
        <time>2018-01-27T12:39:37Z</time>
      </trkpt>
      <trkpt lat="62.637902741649" lon="17.988572028995">
        <ele>69.8</ele>
        <time>2018-01-27T12:39:38Z</time>
      </trkpt>
      <trkpt lat="62.637914308671" lon="17.98849449642">
        <ele>69.6</ele>
        <time>2018-01-27T12:39:39Z</time>
      </trkpt>
      <trkpt lat="62.637928054987" lon="17.988415622741">
        <ele>69.6</ele>
        <time>2018-01-27T12:39:40Z</time>
      </trkpt>
      <trkpt lat="62.637938113267" lon="17.988350076283">
        <ele>69.4</ele>
        <time>2018-01-27T12:39:41Z</time>
      </trkpt>
      <trkpt lat="62.637950769936" lon="17.988273298079">
        <ele>69.2</ele>
        <time>2018-01-27T12:39:42Z</time>
      </trkpt>
      <trkpt lat="62.637956804904" lon="17.988209092725">
        <ele>69.2</ele>
        <time>2018-01-27T12:39:43Z</time>
      </trkpt>
      <trkpt lat="62.637967282279" lon="17.988125944277">
        <ele>69</ele>
        <time>2018-01-27T12:39:44Z</time>
      </trkpt>
      <trkpt lat="62.637984129898" lon="17.988032569911">
        <ele>68.8</ele>
        <time>2018-01-27T12:39:45Z</time>
      </trkpt>
      <trkpt lat="62.638002653897" lon="17.987927712342">
        <ele>68.6</ele>
        <time>2018-01-27T12:39:46Z</time>
      </trkpt>
      <trkpt lat="62.638025536484" lon="17.987808940819">
        <ele>68.2</ele>
        <time>2018-01-27T12:39:47Z</time>
      </trkpt>
      <trkpt lat="62.638048083795" lon="17.987704669983">
        <ele>67.8</ele>
        <time>2018-01-27T12:39:48Z</time>
      </trkpt>
      <trkpt lat="62.638064177043" lon="17.98761691149">
        <ele>67.4</ele>
        <time>2018-01-27T12:39:49Z</time>
      </trkpt>
      <trkpt lat="62.638084125965" lon="17.987535020327">
        <ele>66.8</ele>
        <time>2018-01-27T12:39:50Z</time>
      </trkpt>
      <trkpt lat="62.638096614996" lon="17.987469976783">
        <ele>66.6</ele>
        <time>2018-01-27T12:39:51Z</time>
      </trkpt>
      <trkpt lat="62.63811052895" lon="17.987390264914">
        <ele>66.4</ele>
        <time>2018-01-27T12:39:52Z</time>
      </trkpt>
      <trkpt lat="62.638127460388" lon="17.98731851585">
        <ele>66.2</ele>
        <time>2018-01-27T12:39:53Z</time>
      </trkpt>
      <trkpt lat="62.638145900568" lon="17.987234445393">
        <ele>66.2</ele>
        <time>2018-01-27T12:39:54Z</time>
      </trkpt>
      <trkpt lat="62.638162412911" lon="17.98715925975">
        <ele>66.2</ele>
        <time>2018-01-27T12:39:55Z</time>
      </trkpt>
      <trkpt lat="62.638178003245" lon="17.987086169582">
        <ele>66</ele>
        <time>2018-01-27T12:39:56Z</time>
      </trkpt>
      <trkpt lat="62.638193174484" lon="17.986986676429">
        <ele>65.8</ele>
        <time>2018-01-27T12:39:57Z</time>
      </trkpt>
      <trkpt lat="62.638210022103" lon="17.986910484958">
        <ele>65.6</ele>
        <time>2018-01-27T12:39:58Z</time>
      </trkpt>
      <trkpt lat="62.638217733451" lon="17.986827085053">
        <ele>65.4</ele>
        <time>2018-01-27T12:39:59Z</time>
      </trkpt>
      <trkpt lat="62.638216727623" lon="17.986751145039">
        <ele>65.2</ele>
        <time>2018-01-27T12:40:00Z</time>
      </trkpt>
      <trkpt lat="62.63822117003" lon="17.986697333241">
        <ele>65.2</ele>
        <time>2018-01-27T12:40:01Z</time>
      </trkpt>
      <trkpt lat="62.638213374863" lon="17.986619800666">
        <ele>65</ele>
        <time>2018-01-27T12:40:02Z</time>
      </trkpt>
      <trkpt lat="62.638209770646" lon="17.986561881737">
        <ele>65</ele>
        <time>2018-01-27T12:40:03Z</time>
      </trkpt>
      <trkpt lat="62.638208429542" lon="17.986495664727">
        <ele>64.8</ele>
        <time>2018-01-27T12:40:04Z</time>
      </trkpt>
      <trkpt lat="62.638212369035" lon="17.986431040278">
        <ele>64.6</ele>
        <time>2018-01-27T12:40:05Z</time>
      </trkpt>
      <trkpt lat="62.638213877777" lon="17.986386113294">
        <ele>64.6</ele>
        <time>2018-01-27T12:40:06Z</time>
      </trkpt>
      <trkpt lat="62.638212033759" lon="17.986319980103">
        <ele>64.6</ele>
        <time>2018-01-27T12:40:07Z</time>
      </trkpt>
      <trkpt lat="62.638216476166" lon="17.986273544377">
        <ele>64.6</ele>
        <time>2018-01-27T12:40:08Z</time>
      </trkpt>
      <trkpt lat="62.638215554157" lon="17.98619869401">
        <ele>64.8</ele>
        <time>2018-01-27T12:40:09Z</time>
      </trkpt>
      <trkpt lat="62.638212033759" lon="17.986156113958">
        <ele>64.8</ele>
        <time>2018-01-27T12:40:10Z</time>
      </trkpt>
      <trkpt lat="62.638215889433" lon="17.986089561672">
        <ele>64.8</ele>
        <time>2018-01-27T12:40:11Z</time>
      </trkpt>
      <trkpt lat="62.638219409831" lon="17.986041030471">
        <ele>64.8</ele>
        <time>2018-01-27T12:40:12Z</time>
      </trkpt>
      <trkpt lat="62.638225863894" lon="17.985986129026">
        <ele>64.8</ele>
        <time>2018-01-27T12:40:13Z</time>
      </trkpt>
      <trkpt lat="62.638234245794" lon="17.985946985553">
        <ele>64.8</ele>
        <time>2018-01-27T12:40:14Z</time>
      </trkpt>
      <trkpt lat="62.638243549703" lon="17.985905662786">
        <ele>64.8</ele>
        <time>2018-01-27T12:40:15Z</time>
      </trkpt>
      <trkpt lat="62.638254362354" lon="17.985876074679">
        <ele>64.8</ele>
        <time>2018-01-27T12:40:16Z</time>
      </trkpt>
      <trkpt lat="62.638263163349" lon="17.985832740256">
        <ele>64.8</ele>
        <time>2018-01-27T12:40:17Z</time>
      </trkpt>
      <trkpt lat="62.638267354299" lon="17.985808768022">
        <ele>64.8</ele>
        <time>2018-01-27T12:40:18Z</time>
      </trkpt>
      <trkpt lat="62.63827313781" lon="17.985784879607">
        <ele>64.8</ele>
        <time>2018-01-27T12:40:19Z</time>
      </trkpt>
      <trkpt lat="62.638276909665" lon="17.985771636205">
        <ele>64.8</ele>
        <time>2018-01-27T12:40:20Z</time>
      </trkpt>
      <trkpt lat="62.638279591873" lon="17.985760153002">
        <ele>64.8</ele>
        <time>2018-01-27T12:40:21Z</time>
      </trkpt>
      <trkpt lat="62.638285543022" lon="17.985740455537">
        <ele>64.8</ele>
        <time>2018-01-27T12:40:22Z</time>
      </trkpt>
      <trkpt lat="62.63828403428" lon="17.985744478849">
        <ele>64.8</ele>
        <time>2018-01-27T12:40:23Z</time>
      </trkpt>
      <trkpt lat="62.638281352072" lon="17.985752274016">
        <ele>64.8</ele>
        <time>2018-01-27T12:40:24Z</time>
      </trkpt>
      <trkpt lat="62.638417893223" lon="17.985282049426">
        <ele>64.4</ele>
        <time>2018-01-27T12:40:50Z</time>
      </trkpt>
      <trkpt lat="62.638433064462" lon="17.985252209862">
        <ele>64.4</ele>
        <time>2018-01-27T12:40:51Z</time>
      </trkpt>
      <trkpt lat="62.63846005418" lon="17.985192363096">
        <ele>64.4</ele>
        <time>2018-01-27T12:40:52Z</time>
      </trkpt>
      <trkpt lat="62.63848771445" lon="17.985138718936">
        <ele>64.2</ele>
        <time>2018-01-27T12:40:53Z</time>
      </trkpt>
      <trkpt lat="62.63851286015" lon="17.985086499699">
        <ele>64</ele>
        <time>2018-01-27T12:40:54Z</time>
      </trkpt>
      <trkpt lat="62.63853632947" lon="17.985037633222">
        <ele>64</ele>
        <time>2018-01-27T12:40:55Z</time>
      </trkpt>
      <trkpt lat="62.638561978084" lon="17.984988263831">
        <ele>63.4</ele>
        <time>2018-01-27T12:40:56Z</time>
      </trkpt>
      <trkpt lat="62.638587207603" lon="17.984925148124">
        <ele>62.8</ele>
        <time>2018-01-27T12:40:57Z</time>
      </trkpt>
      <trkpt lat="62.638622411583" lon="17.984854823983">
        <ele>62.8</ele>
        <time>2018-01-27T12:40:58Z</time>
      </trkpt>
      <trkpt lat="62.638655771545" lon="17.984793133199">
        <ele>62.6</ele>
        <time>2018-01-27T12:40:59Z</time>
      </trkpt>
      <trkpt lat="62.638686533118" lon="17.984731526234">
        <ele>62.2</ele>
        <time>2018-01-27T12:41:00Z</time>
      </trkpt>
      <trkpt lat="62.638715199216" lon="17.984679977549">
        <ele>62.2</ele>
        <time>2018-01-27T12:41:01Z</time>
      </trkpt>
      <trkpt lat="62.638747385712" lon="17.984591129409">
        <ele>62.2</ele>
        <time>2018-01-27T12:41:02Z</time>
      </trkpt>
      <trkpt lat="62.638774626887" lon="17.984502029812">
        <ele>61.6</ele>
        <time>2018-01-27T12:41:03Z</time>
      </trkpt>
      <trkpt lat="62.638799772587" lon="17.984412008206">
        <ele>61</ele>
        <time>2018-01-27T12:41:04Z</time>
      </trkpt>
      <trkpt lat="62.638824331554" lon="17.984316873641">
        <ele>60.6</ele>
        <time>2018-01-27T12:41:05Z</time>
      </trkpt>
      <trkpt lat="62.638817206939" lon="17.984230204795">
        <ele>60.6</ele>
        <time>2018-01-27T12:41:06Z</time>
      </trkpt>
      <trkpt lat="62.638811171971" lon="17.98409902806">
        <ele>60.4</ele>
        <time>2018-01-27T12:41:07Z</time>
      </trkpt>
      <trkpt lat="62.638811591066" lon="17.983987129695">
        <ele>60.4</ele>
        <time>2018-01-27T12:41:08Z</time>
      </trkpt>
      <trkpt lat="62.638809411772" lon="17.983898868288">
        <ele>60.6</ele>
        <time>2018-01-27T12:41:09Z</time>
      </trkpt>
      <trkpt lat="62.638806310469" lon="17.983781689326">
        <ele>60.6</ele>
        <time>2018-01-27T12:41:10Z</time>
      </trkpt>
      <trkpt lat="62.638795749275" lon="17.983690745711">
        <ele>60.8</ele>
        <time>2018-01-27T12:41:11Z</time>
      </trkpt>
      <trkpt lat="62.63880371208" lon="17.983599131544">
        <ele>60.4</ele>
        <time>2018-01-27T12:41:12Z</time>
      </trkpt>
      <trkpt lat="62.638794072895" lon="17.983519587313">
        <ele>60.4</ele>
        <time>2018-01-27T12:41:13Z</time>
      </trkpt>
      <trkpt lat="62.638795497818" lon="17.983417076676">
        <ele>60.4</ele>
        <time>2018-01-27T12:41:14Z</time>
      </trkpt>
      <trkpt lat="62.638805639917" lon="17.983329988735">
        <ele>60.2</ele>
        <time>2018-01-27T12:41:15Z</time>
      </trkpt>
      <trkpt lat="62.638797425655" lon="17.983259413137">
        <ele>60.2</ele>
        <time>2018-01-27T12:41:16Z</time>
      </trkpt>
      <trkpt lat="62.638803795899" lon="17.983170900273">
        <ele>60.4</ele>
        <time>2018-01-27T12:41:17Z</time>
      </trkpt>
      <trkpt lat="62.638803041528" lon="17.983062354668">
        <ele>60.4</ele>
        <time>2018-01-27T12:41:18Z</time>
      </trkpt>
      <trkpt lat="62.638809160315" lon="17.982985576464">
        <ele>60.4</ele>
        <time>2018-01-27T12:41:19Z</time>
      </trkpt>
      <trkpt lat="62.638812596894" lon="17.98289035808">
        <ele>60.6</ele>
        <time>2018-01-27T12:41:20Z</time>
      </trkpt>
      <trkpt lat="62.638815027645" lon="17.982805868528">
        <ele>60.8</ele>
        <time>2018-01-27T12:41:21Z</time>
      </trkpt>
      <trkpt lat="62.638816955482" lon="17.982730850523">
        <ele>60.6</ele>
        <time>2018-01-27T12:41:22Z</time>
      </trkpt>
      <trkpt lat="62.638820056785" lon="17.982644097858">
        <ele>60.6</ele>
        <time>2018-01-27T12:41:23Z</time>
      </trkpt>
      <trkpt lat="62.638821900803" lon="17.982566230007">
        <ele>60.6</ele>
        <time>2018-01-27T12:41:24Z</time>
      </trkpt>
      <trkpt lat="62.638823241907" lon="17.982491798735">
        <ele>60.8</ele>
        <time>2018-01-27T12:41:25Z</time>
      </trkpt>
      <trkpt lat="62.638829193056" lon="17.982428850666">
        <ele>60.8</ele>
        <time>2018-01-27T12:41:26Z</time>
      </trkpt>
      <trkpt lat="62.638839251336" lon="17.982363807122">
        <ele>61</ele>
        <time>2018-01-27T12:41:27Z</time>
      </trkpt>
      <trkpt lat="62.638853835842" lon="17.982314270093">
        <ele>61.2</ele>
        <time>2018-01-27T12:41:28Z</time>
      </trkpt>
      <trkpt lat="62.638857942973" lon="17.982261464123">
        <ele>61</ele>
        <time>2018-01-27T12:41:29Z</time>
      </trkpt>
      <trkpt lat="62.63887579642" lon="17.982211340361">
        <ele>61</ele>
        <time>2018-01-27T12:41:30Z</time>
      </trkpt>
      <trkpt lat="62.638890464745" lon="17.982157193287">
        <ele>60.8</ele>
        <time>2018-01-27T12:41:31Z</time>
      </trkpt>
      <trkpt lat="62.6389110004" lon="17.982098436168">
        <ele>60.6</ele>
        <time>2018-01-27T12:41:32Z</time>
      </trkpt>
      <trkpt lat="62.638931033141" lon="17.982039930506">
        <ele>60.4</ele>
        <time>2018-01-27T12:41:33Z</time>
      </trkpt>
      <trkpt lat="62.638946539656" lon="17.981993746237">
        <ele>60.4</ele>
        <time>2018-01-27T12:41:34Z</time>
      </trkpt>
      <trkpt lat="62.638963219637" lon="17.981943371018">
        <ele>60.4</ele>
        <time>2018-01-27T12:41:35Z</time>
      </trkpt>
      <trkpt lat="62.638979983437" lon="17.981898276396">
        <ele>60.4</ele>
        <time>2018-01-27T12:41:36Z</time>
      </trkpt>
      <trkpt lat="62.638994232667" lon="17.981828874264">
        <ele>60.4</ele>
        <time>2018-01-27T12:41:37Z</time>
      </trkpt>
      <trkpt lat="62.63901325958" lon="17.981779169597">
        <ele>60.4</ele>
        <time>2018-01-27T12:41:38Z</time>
      </trkpt>
      <trkpt lat="62.639028514638" lon="17.981718400822">
        <ele>60.4</ele>
        <time>2018-01-27T12:41:39Z</time>
      </trkpt>
      <trkpt lat="62.639055588175" lon="17.981663750834">
        <ele>60.4</ele>
        <time>2018-01-27T12:41:40Z</time>
      </trkpt>
      <trkpt lat="62.639070005043" lon="17.98160876557">
        <ele>60.4</ele>
        <time>2018-01-27T12:41:41Z</time>
      </trkpt>
      <trkpt lat="62.639088948137" lon="17.981528131692">
        <ele>60.2</ele>
        <time>2018-01-27T12:41:42Z</time>
      </trkpt>
      <trkpt lat="62.639092133259" lon="17.981455879714">
        <ele>60</ele>
        <time>2018-01-27T12:41:43Z</time>
      </trkpt>
      <trkpt lat="62.639123816841" lon="17.981384046831">
        <ele>60</ele>
        <time>2018-01-27T12:41:44Z</time>
      </trkpt>
      <trkpt lat="62.639163211771" lon="17.981307352446">
        <ele>59.6</ele>
        <time>2018-01-27T12:41:45Z</time>
      </trkpt>
      <trkpt lat="62.639204115443" lon="17.981241219255">
        <ele>59.4</ele>
        <time>2018-01-27T12:41:46Z</time>
      </trkpt>
      <trkpt lat="62.639240744346" lon="17.981162345576">
        <ele>59.2</ele>
        <time>2018-01-27T12:41:47Z</time>
      </trkpt>
      <trkpt lat="62.639279384905" lon="17.981078694214">
        <ele>58.8</ele>
        <time>2018-01-27T12:41:48Z</time>
      </trkpt>
      <trkpt lat="62.639322216414" lon="17.980998898526">
        <ele>58.6</ele>
        <time>2018-01-27T12:41:49Z</time>
      </trkpt>
      <trkpt lat="62.639359767326" lon="17.980928322928">
        <ele>58.4</ele>
        <time>2018-01-27T12:41:50Z</time>
      </trkpt>
      <trkpt lat="62.639388098148" lon="17.980863866117">
        <ele>58.4</ele>
        <time>2018-01-27T12:41:51Z</time>
      </trkpt>
      <trkpt lat="62.639425900517" lon="17.980773173959">
        <ele>58</ele>
        <time>2018-01-27T12:41:52Z</time>
      </trkpt>
      <trkpt lat="62.639455572443" lon="17.980678458489">
        <ele>57.8</ele>
        <time>2018-01-27T12:41:53Z</time>
      </trkpt>
      <trkpt lat="62.639472839157" lon="17.980587431055">
        <ele>57.4</ele>
        <time>2018-01-27T12:41:54Z</time>
      </trkpt>
      <trkpt lat="62.639497146667" lon="17.980509814661">
        <ele>56.8</ele>
        <time>2018-01-27T12:41:55Z</time>
      </trkpt>
      <trkpt lat="62.639521957091" lon="17.980408896585">
        <ele>56.4</ele>
        <time>2018-01-27T12:41:56Z</time>
      </trkpt>
      <trkpt lat="62.639541403099" lon="17.980305715396">
        <ele>56.2</ele>
        <time>2018-01-27T12:41:57Z</time>
      </trkpt>
      <trkpt lat="62.639558669813" lon="17.980226674079">
        <ele>56</ele>
        <time>2018-01-27T12:41:58Z</time>
      </trkpt>
      <trkpt lat="62.639575014518" lon="17.980106309995">
        <ele>56</ele>
        <time>2018-01-27T12:41:59Z</time>
      </trkpt>
      <trkpt lat="62.639594544345" lon="17.980004972824">
        <ele>56</ele>
        <time>2018-01-27T12:42:00Z</time>
      </trkpt>
      <trkpt lat="62.639609547946" lon="17.979924506584">
        <ele>56</ele>
        <time>2018-01-27T12:42:01Z</time>
      </trkpt>
      <trkpt lat="62.639621953158" lon="17.979826941268">
        <ele>56</ele>
        <time>2018-01-27T12:42:02Z</time>
      </trkpt>
      <trkpt lat="62.639633017266" lon="17.979760305163">
        <ele>56.2</ele>
        <time>2018-01-27T12:42:03Z</time>
      </trkpt>
      <trkpt lat="62.639660426079" lon="17.979680425656">
        <ele>56.2</ele>
        <time>2018-01-27T12:42:04Z</time>
      </trkpt>
      <trkpt lat="62.639700407742" lon="17.979580848684">
        <ele>56.2</ele>
        <time>2018-01-27T12:42:05Z</time>
      </trkpt>
      <trkpt lat="62.639729241478" lon="17.979507590878">
        <ele>56.2</ele>
        <time>2018-01-27T12:42:06Z</time>
      </trkpt>
      <trkpt lat="62.639762685259" lon="17.979428884837">
        <ele>56</ele>
        <time>2018-01-27T12:42:07Z</time>
      </trkpt>
      <trkpt lat="62.639790177891" lon="17.979340958706">
        <ele>56</ele>
        <time>2018-01-27T12:42:08Z</time>
      </trkpt>
      <trkpt lat="62.639828231717" lon="17.97925428986">
        <ele>56</ele>
        <time>2018-01-27T12:42:09Z</time>
      </trkpt>
      <trkpt lat="62.639862932783" lon="17.979178182208">
        <ele>56</ele>
        <time>2018-01-27T12:42:10Z</time>
      </trkpt>
      <trkpt lat="62.639884893361" lon="17.979091848638">
        <ele>55.6</ele>
        <time>2018-01-27T12:42:11Z</time>
      </trkpt>
      <trkpt lat="62.639922276635" lon="17.9789994801">
        <ele>55.6</ele>
        <time>2018-01-27T12:42:12Z</time>
      </trkpt>
      <trkpt lat="62.639956390968" lon="17.978925551742">
        <ele>55.4</ele>
        <time>2018-01-27T12:42:13Z</time>
      </trkpt>
      <trkpt lat="62.639996288812" lon="17.978862771311">
        <ele>55.2</ele>
        <time>2018-01-27T12:42:14Z</time>
      </trkpt>
      <trkpt lat="62.640034426457" lon="17.978811390264">
        <ele>54.8</ele>
        <time>2018-01-27T12:42:15Z</time>
      </trkpt>
      <trkpt lat="62.640079521079" lon="17.978759422484">
        <ele>54.6</ele>
        <time>2018-01-27T12:42:16Z</time>
      </trkpt>
      <trkpt lat="62.640125286253" lon="17.978704185763">
        <ele>54.2</ele>
        <time>2018-01-27T12:42:17Z</time>
      </trkpt>
      <trkpt lat="62.640173146902" lon="17.978641237694">
        <ele>54</ele>
        <time>2018-01-27T12:42:18Z</time>
      </trkpt>
      <trkpt lat="62.640219498809" lon="17.978569572449">
        <ele>53.8</ele>
        <time>2018-01-27T12:42:19Z</time>
      </trkpt>
      <trkpt lat="62.640273562064" lon="17.978513413719">
        <ele>53.6</ele>
        <time>2018-01-27T12:42:20Z</time>
      </trkpt>
      <trkpt lat="62.640317650858" lon="17.978449376003">
        <ele>53.2</ele>
        <time>2018-01-27T12:42:21Z</time>
      </trkpt>
      <trkpt lat="62.640368696629" lon="17.97837586674">
        <ele>53</ele>
        <time>2018-01-27T12:42:22Z</time>
      </trkpt>
      <trkpt lat="62.64041722783" lon="17.978315768517">
        <ele>52.8</ele>
        <time>2018-01-27T12:42:23Z</time>
      </trkpt>
      <trkpt lat="62.64046584285" lon="17.978245192919">
        <ele>52.6</ele>
        <time>2018-01-27T12:42:24Z</time>
      </trkpt>
      <trkpt lat="62.640512362395" lon="17.978183502135">
        <ele>52.2</ele>
        <time>2018-01-27T12:42:25Z</time>
      </trkpt>
      <trkpt lat="62.640554607171" lon="17.9781193806">
        <ele>52</ele>
        <time>2018-01-27T12:42:26Z</time>
      </trkpt>
      <trkpt lat="62.640603138372" lon="17.978047631536">
        <ele>51.6</ele>
        <time>2018-01-27T12:42:27Z</time>
      </trkpt>
      <trkpt lat="62.640648819727" lon="17.977981582164">
        <ele>51.2</ele>
        <time>2018-01-27T12:42:28Z</time>
      </trkpt>
      <trkpt lat="62.640688633752" lon="17.977903462856">
        <ele>51</ele>
        <time>2018-01-27T12:42:29Z</time>
      </trkpt>
      <trkpt lat="62.640731632899" lon="17.977821739331">
        <ele>50.6</ele>
        <time>2018-01-27T12:42:30Z</time>
      </trkpt>
      <trkpt lat="62.64077094401" lon="17.97774638605">
        <ele>50.4</ele>
        <time>2018-01-27T12:42:31Z</time>
      </trkpt>
      <trkpt lat="62.640814948985" lon="17.977655945349">
        <ele>50.2</ele>
        <time>2018-01-27T12:42:32Z</time>
      </trkpt>
      <trkpt lat="62.640856942304" lon="17.97757790986">
        <ele>50</ele>
        <time>2018-01-27T12:42:33Z</time>
      </trkpt>
      <trkpt lat="62.640899103261" lon="17.977501466932">
        <ele>49.6</ele>
        <time>2018-01-27T12:42:34Z</time>
      </trkpt>
      <trkpt lat="62.640938833467" lon="17.977423599081">
        <ele>49.4</ele>
        <time>2018-01-27T12:42:35Z</time>
      </trkpt>
      <trkpt lat="62.640976049103" lon="17.977342210832">
        <ele>49.2</ele>
        <time>2018-01-27T12:42:36Z</time>
      </trkpt>
      <trkpt lat="62.641018712974" lon="17.977252189226">
        <ele>49</ele>
        <time>2018-01-27T12:42:37Z</time>
      </trkpt>
      <trkpt lat="62.641054755144" lon="17.977174572832">
        <ele>48.8</ele>
        <time>2018-01-27T12:42:38Z</time>
      </trkpt>
      <trkpt lat="62.641087696011" lon="17.977105338338">
        <ele>48.4</ele>
        <time>2018-01-27T12:42:39Z</time>
      </trkpt>
      <trkpt lat="62.641120720697" lon="17.977038283138">
        <ele>48</ele>
        <time>2018-01-27T12:42:40Z</time>
      </trkpt>
      <trkpt lat="62.641153493926" lon="17.976982375865">
        <ele>47.4</ele>
        <time>2018-01-27T12:42:41Z</time>
      </trkpt>
      <trkpt lat="62.641193140313" lon="17.976917919054">
        <ele>47</ele>
        <time>2018-01-27T12:42:42Z</time>
      </trkpt>
      <trkpt lat="62.641230691225" lon="17.976874919907">
        <ele>46.6</ele>
        <time>2018-01-27T12:42:43Z</time>
      </trkpt>
      <trkpt lat="62.641271930173" lon="17.97683024438">
        <ele>46.2</ele>
        <time>2018-01-27T12:42:44Z</time>
      </trkpt>
      <trkpt lat="62.641316521881" lon="17.976806858879">
        <ele>45.8</ele>
        <time>2018-01-27T12:42:45Z</time>
      </trkpt>
      <trkpt lat="62.641360526856" lon="17.976788251061">
        <ele>45.4</ele>
        <time>2018-01-27T12:42:46Z</time>
      </trkpt>
      <trkpt lat="62.641418194328" lon="17.976763021542">
        <ele>45</ele>
        <time>2018-01-27T12:42:47Z</time>
      </trkpt>
      <trkpt lat="62.641472592859" lon="17.976743826991">
        <ele>44.8</ele>
        <time>2018-01-27T12:42:48Z</time>
      </trkpt>
      <trkpt lat="62.641527410485" lon="17.97671708873">
        <ele>44.2</ele>
        <time>2018-01-27T12:42:49Z</time>
      </trkpt>
      <trkpt lat="62.641579126808" lon="17.976677190886">
        <ele>43.6</ele>
        <time>2018-01-27T12:42:50Z</time>
      </trkpt>
      <trkpt lat="62.641630172579" lon="17.976638382689">
        <ele>43.4</ele>
        <time>2018-01-27T12:42:51Z</time>
      </trkpt>
      <trkpt lat="62.641690270802" lon="17.976589180936">
        <ele>42.8</ele>
        <time>2018-01-27T12:42:52Z</time>
      </trkpt>
      <trkpt lat="62.641738131451" lon="17.976534866224">
        <ele>42</ele>
        <time>2018-01-27T12:42:53Z</time>
      </trkpt>
      <trkpt lat="62.641793871086" lon="17.976467811024">
        <ele>41.4</ele>
        <time>2018-01-27T12:42:54Z</time>
      </trkpt>
      <trkpt lat="62.64184550359" lon="17.976404862955">
        <ele>40.8</ele>
        <time>2018-01-27T12:42:55Z</time>
      </trkpt>
      <trkpt lat="62.641888921832" lon="17.976348117492">
        <ele>40.2</ele>
        <time>2018-01-27T12:42:56Z</time>
      </trkpt>
      <trkpt lat="62.641943655639" lon="17.976275446419">
        <ele>39.8</ele>
        <time>2018-01-27T12:42:57Z</time>
      </trkpt>
      <trkpt lat="62.641996126333" lon="17.976207972124">
        <ele>39.2</ele>
        <time>2018-01-27T12:42:58Z</time>
      </trkpt>
      <trkpt lat="62.642043986982" lon="17.976129014626">
        <ele>38.8</ele>
        <time>2018-01-27T12:42:59Z</time>
      </trkpt>
      <trkpt lat="62.642096625314" lon="17.976041759047">
        <ele>38.6</ele>
        <time>2018-01-27T12:43:00Z</time>
      </trkpt>
      <trkpt lat="62.642142306669" lon="17.975966657223">
        <ele>38.2</ele>
        <time>2018-01-27T12:43:01Z</time>
      </trkpt>
      <trkpt lat="62.642194106811" lon="17.975885101336">
        <ele>37.8</ele>
        <time>2018-01-27T12:43:02Z</time>
      </trkpt>
      <trkpt lat="62.642240626356" lon="17.975810921521">
        <ele>37.2</ele>
        <time>2018-01-27T12:43:03Z</time>
      </trkpt>
      <trkpt lat="62.642291253032" lon="17.975747135262">
        <ele>36.4</ele>
        <time>2018-01-27T12:43:04Z</time>
      </trkpt>
      <trkpt lat="62.642347830857" lon="17.975684354831">
        <ele>35.8</ele>
        <time>2018-01-27T12:43:05Z</time>
      </trkpt>
      <trkpt lat="62.642401475017" lon="17.975615036518">
        <ele>35.4</ele>
        <time>2018-01-27T12:43:06Z</time>
      </trkpt>
      <trkpt lat="62.642460483593" lon="17.975527864758">
        <ele>35</ele>
        <time>2018-01-27T12:43:07Z</time>
      </trkpt>
      <trkpt lat="62.642503734197" lon="17.975434574211">
        <ele>34.8</ele>
        <time>2018-01-27T12:43:08Z</time>
      </trkpt>
      <trkpt lat="62.642544973145" lon="17.975332817945">
        <ele>34</ele>
        <time>2018-01-27T12:43:09Z</time>
      </trkpt>
      <trkpt lat="62.642576824365" lon="17.975216309535">
        <ele>33.2</ele>
        <time>2018-01-27T12:43:10Z</time>
      </trkpt>
      <trkpt lat="62.642605406644" lon="17.975117654572">
        <ele>32.6</ele>
        <time>2018-01-27T12:43:11Z</time>
      </trkpt>
      <trkpt lat="62.642644885393" lon="17.974987483665">
        <ele>31.8</ele>
        <time>2018-01-27T12:43:12Z</time>
      </trkpt>
      <trkpt lat="62.642678245355" lon="17.974878016051">
        <ele>31.2</ele>
        <time>2018-01-27T12:43:13Z</time>
      </trkpt>
      <trkpt lat="62.642711270041" lon="17.974766201505">
        <ele>30.8</ele>
        <time>2018-01-27T12:43:14Z</time>
      </trkpt>
      <trkpt lat="62.642734487904" lon="17.974645334507">
        <ele>30.4</ele>
        <time>2018-01-27T12:43:15Z</time>
      </trkpt>
      <trkpt lat="62.642762231993" lon="17.97456713138">
        <ele>30.2</ele>
        <time>2018-01-27T12:43:16Z</time>
      </trkpt>
      <trkpt lat="62.642789892263" lon="17.974447186391">
        <ele>30</ele>
        <time>2018-01-27T12:43:17Z</time>
      </trkpt>
      <trkpt lat="62.642819983284" lon="17.97436093664">
        <ele>30</ele>
        <time>2018-01-27T12:43:18Z</time>
      </trkpt>
      <trkpt lat="62.642842698233" lon="17.974228586439">
        <ele>29.8</ele>
        <time>2018-01-27T12:43:19Z</time>
      </trkpt>
      <trkpt lat="62.642867005743" lon="17.974128087458">
        <ele>30</ele>
        <time>2018-01-27T12:43:20Z</time>
      </trkpt>
      <trkpt lat="62.642889972149" lon="17.974025995916">
        <ele>30</ele>
        <time>2018-01-27T12:43:21Z</time>
      </trkpt>
      <trkpt lat="62.642913190012" lon="17.973907308212">
        <ele>30.2</ele>
        <time>2018-01-27T12:43:22Z</time>
      </trkpt>
      <trkpt lat="62.642933558029" lon="17.973792895277">
        <ele>30.2</ele>
        <time>2018-01-27T12:43:23Z</time>
      </trkpt>
      <trkpt lat="62.642943448671" lon="17.973668256424">
        <ele>30</ele>
        <time>2018-01-27T12:43:24Z</time>
      </trkpt>
      <trkpt lat="62.64294353249" lon="17.973554430222">
        <ele>29.6</ele>
        <time>2018-01-27T12:43:25Z</time>
      </trkpt>
      <trkpt lat="62.642935653504" lon="17.97344982411">
        <ele>29.6</ele>
        <time>2018-01-27T12:43:26Z</time>
      </trkpt>
      <trkpt lat="62.642923332111" lon="17.973310600751">
        <ele>29.4</ele>
        <time>2018-01-27T12:43:27Z</time>
      </trkpt>
      <trkpt lat="62.64292341593" lon="17.973226614113">
        <ele>29.2</ele>
        <time>2018-01-27T12:43:28Z</time>
      </trkpt>
      <trkpt lat="62.642908244691" lon="17.973118822879">
        <ele>29.2</ele>
        <time>2018-01-27T12:43:29Z</time>
      </trkpt>
      <trkpt lat="62.642892821995" lon="17.973025951427">
        <ele>29.2</ele>
        <time>2018-01-27T12:43:30Z</time>
      </trkpt>
      <trkpt lat="62.642884775371" lon="17.972969960335">
        <ele>29</ele>
        <time>2018-01-27T12:43:31Z</time>
      </trkpt>
      <trkpt lat="62.642871699607" lon="17.972884800231">
        <ele>29</ele>
        <time>2018-01-27T12:43:32Z</time>
      </trkpt>
      <trkpt lat="62.642860132585" lon="17.97281028514">
        <ele>29.2</ele>
        <time>2018-01-27T12:43:33Z</time>
      </trkpt>
      <trkpt lat="62.642849822848" lon="17.972741637379">
        <ele>29.4</ele>
        <time>2018-01-27T12:43:34Z</time>
      </trkpt>
      <trkpt lat="62.642839010197" lon="17.972685059554">
        <ele>29.6</ele>
        <time>2018-01-27T12:43:35Z</time>
      </trkpt>
      <trkpt lat="62.6428253477" lon="17.972615322146">
        <ele>29.6</ele>
        <time>2018-01-27T12:43:36Z</time>
      </trkpt>
      <trkpt lat="62.642821575845" lon="17.97254374072">
        <ele>29.8</ele>
        <time>2018-01-27T12:43:37Z</time>
      </trkpt>
      <trkpt lat="62.642823252225" lon="17.972504261971">
        <ele>29.8</ele>
        <time>2018-01-27T12:43:38Z</time>
      </trkpt>
      <trkpt lat="62.642801459285" lon="17.972428824871">
        <ele>30</ele>
        <time>2018-01-27T12:43:39Z</time>
      </trkpt>
      <trkpt lat="62.642790730453" lon="17.972369648657">
        <ele>30</ele>
        <time>2018-01-27T12:43:40Z</time>
      </trkpt>
      <trkpt lat="62.642777319413" lon="17.972328744985">
        <ele>30.2</ele>
        <time>2018-01-27T12:43:41Z</time>
      </trkpt>
      <trkpt lat="62.642757538129" lon="17.972237969008">
        <ele>30.2</ele>
        <time>2018-01-27T12:43:42Z</time>
      </trkpt>
      <trkpt lat="62.642757789586" lon="17.972166303763">
        <ele>30.2</ele>
        <time>2018-01-27T12:43:43Z</time>
      </trkpt>
      <trkpt lat="62.642736583379" lon="17.97208357441">
        <ele>30.4</ele>
        <time>2018-01-27T12:43:44Z</time>
      </trkpt>
      <trkpt lat="62.642721244502" lon="17.97199807903">
        <ele>30.4</ele>
        <time>2018-01-27T12:43:45Z</time>
      </trkpt>
      <trkpt lat="62.642706995272" lon="17.971927084337">
        <ele>30.6</ele>
        <time>2018-01-27T12:43:46Z</time>
      </trkpt>
      <trkpt lat="62.642704732159" lon="17.971864303906">
        <ele>30.4</ele>
        <time>2018-01-27T12:43:47Z</time>
      </trkpt>
      <trkpt lat="62.642713281697" lon="17.971824908976">
        <ele>30.4</ele>
        <time>2018-01-27T12:43:48Z</time>
      </trkpt>
      <trkpt lat="62.642743037442" lon="17.971807474624">
        <ele>30.4</ele>
        <time>2018-01-27T12:43:49Z</time>
      </trkpt>
      <trkpt lat="62.642776565042" lon="17.971837314188">
        <ele>30.6</ele>
        <time>2018-01-27T12:43:50Z</time>
      </trkpt>
      <trkpt lat="62.642792071557" lon="17.971895736031">
        <ele>30.4</ele>
        <time>2018-01-27T12:43:51Z</time>
      </trkpt>
      <trkpt lat="62.642810344099" lon="17.971968658561">
        <ele>30.4</ele>
        <time>2018-01-27T12:43:52Z</time>
      </trkpt>
      <trkpt lat="62.642839680749" lon="17.972032193363">
        <ele>30.2</ele>
        <time>2018-01-27T12:43:53Z</time>
      </trkpt>
      <trkpt lat="62.642860719318" lon="17.97210620554">
        <ele>30</ele>
        <time>2018-01-27T12:43:54Z</time>
      </trkpt>
      <trkpt lat="62.642878572765" lon="17.972182899925">
        <ele>29.8</ele>
        <time>2018-01-27T12:43:55Z</time>
      </trkpt>
      <trkpt lat="62.642901203895" lon="17.9722436687">
        <ele>29.6</ele>
        <time>2018-01-27T12:43:56Z</time>
      </trkpt>
      <trkpt lat="62.642920985179" lon="17.97233335503">
        <ele>29.4</ele>
        <time>2018-01-27T12:43:57Z</time>
      </trkpt>
      <trkpt lat="62.642937246065" lon="17.972420442971">
        <ele>29.4</ele>
        <time>2018-01-27T12:43:58Z</time>
      </trkpt>
      <trkpt lat="62.642957278806" lon="17.9724867438">
        <ele>29</ele>
        <time>2018-01-27T12:43:59Z</time>
      </trkpt>
      <trkpt lat="62.6429762219" lon="17.972571987723">
        <ele>28.8</ele>
        <time>2018-01-27T12:44:00Z</time>
      </trkpt>
      <trkpt lat="62.642992315148" lon="17.972658321293">
        <ele>29</ele>
        <time>2018-01-27T12:44:01Z</time>
      </trkpt>
      <trkpt lat="62.643006732016" lon="17.972748761994">
        <ele>28.8</ele>
        <time>2018-01-27T12:44:02Z</time>
      </trkpt>
      <trkpt lat="62.643013605174" lon="17.972827300397">
        <ele>28.6</ele>
        <time>2018-01-27T12:44:03Z</time>
      </trkpt>
      <trkpt lat="62.643033721734" lon="17.97290667699">
        <ele>28.6</ele>
        <time>2018-01-27T12:44:04Z</time>
      </trkpt>
      <trkpt lat="62.643036236304" lon="17.972995608949">
        <ele>28.6</ele>
        <time>2018-01-27T12:44:05Z</time>
      </trkpt>
      <trkpt lat="62.643059286529" lon="17.973067441832">
        <ele>28.2</ele>
        <time>2018-01-27T12:44:06Z</time>
      </trkpt>
      <trkpt lat="62.643064986221" lon="17.973186548631">
        <ele>28</ele>
        <time>2018-01-27T12:44:07Z</time>
      </trkpt>
      <trkpt lat="62.643077139976" lon="17.973282605205">
        <ele>28</ele>
        <time>2018-01-27T12:44:08Z</time>
      </trkpt>
      <trkpt lat="62.643088371722" lon="17.973360556875">
        <ele>28</ele>
        <time>2018-01-27T12:44:09Z</time>
      </trkpt>
      <trkpt lat="62.643095496337" lon="17.973446638988">
        <ele>28</ele>
        <time>2018-01-27T12:44:10Z</time>
      </trkpt>
      <trkpt lat="62.643103794418" lon="17.973519561518">
        <ele>28.2</ele>
        <time>2018-01-27T12:44:11Z</time>
      </trkpt>
      <trkpt lat="62.64310697954" lon="17.973634477367">
        <ele>28.2</ele>
        <time>2018-01-27T12:44:12Z</time>
      </trkpt>
      <trkpt lat="62.643110667576" lon="17.973735060167">
        <ele>28</ele>
        <time>2018-01-27T12:44:13Z</time>
      </trkpt>
      <trkpt lat="62.643118295105" lon="17.973809742896">
        <ele>28</ele>
        <time>2018-01-27T12:44:14Z</time>
      </trkpt>
      <trkpt lat="62.643116451087" lon="17.973901189425">
        <ele>27.8</ele>
        <time>2018-01-27T12:44:15Z</time>
      </trkpt>
      <trkpt lat="62.643119384752" lon="17.973984170235">
        <ele>27.8</ele>
        <time>2018-01-27T12:44:16Z</time>
      </trkpt>
      <trkpt lat="62.643111757223" lon="17.974058685326">
        <ele>27.8</ele>
        <time>2018-01-27T12:44:17Z</time>
      </trkpt>
      <trkpt lat="62.643107147178" lon="17.974178043582">
        <ele>27.8</ele>
        <time>2018-01-27T12:44:18Z</time>
      </trkpt>
      <trkpt lat="62.643103207685" lon="17.974271669405">
        <ele>27.8</ele>
        <time>2018-01-27T12:44:19Z</time>
      </trkpt>
      <trkpt lat="62.643089964283" lon="17.974359763174">
        <ele>27.8</ele>
        <time>2018-01-27T12:44:20Z</time>
      </trkpt>
      <trkpt lat="62.64308267203" lon="17.974422292148">
        <ele>27.8</ele>
        <time>2018-01-27T12:44:21Z</time>
      </trkpt>
      <trkpt lat="62.643081498564" lon="17.974496220506">
        <ele>27.6</ele>
        <time>2018-01-27T12:44:22Z</time>
      </trkpt>
      <trkpt lat="62.64306926099" lon="17.97457048414">
        <ele>27.4</ele>
        <time>2018-01-27T12:44:23Z</time>
      </trkpt>
      <trkpt lat="62.643072446112" lon="17.97465430314">
        <ele>27.2</ele>
        <time>2018-01-27T12:44:24Z</time>
      </trkpt>
      <trkpt lat="62.643067836067" lon="17.974717083571">
        <ele>27.4</ele>
        <time>2018-01-27T12:44:25Z</time>
      </trkpt>
      <trkpt lat="62.643064148031" lon="17.974784054952">
        <ele>27.2</ele>
        <time>2018-01-27T12:44:26Z</time>
      </trkpt>
      <trkpt lat="62.643061298185" lon="17.974859156776">
        <ele>27.4</ele>
        <time>2018-01-27T12:44:27Z</time>
      </trkpt>
      <trkpt lat="62.643054592665" lon="17.974958398472">
        <ele>27.6</ele>
        <time>2018-01-27T12:44:28Z</time>
      </trkpt>
      <trkpt lat="62.643050066439" lon="17.975035344314">
        <ele>27.6</ele>
        <time>2018-01-27T12:44:29Z</time>
      </trkpt>
      <trkpt lat="62.643050736991" lon="17.975106339007">
        <ele>27.6</ele>
        <time>2018-01-27T12:44:30Z</time>
      </trkpt>
      <trkpt lat="62.643042355091" lon="17.975188816903">
        <ele>27.6</ele>
        <time>2018-01-27T12:44:31Z</time>
      </trkpt>
      <trkpt lat="62.643026597119" lon="17.975276407758">
        <ele>27.4</ele>
        <time>2018-01-27T12:44:32Z</time>
      </trkpt>
      <trkpt lat="62.643010671509" lon="17.975344468786">
        <ele>27.4</ele>
        <time>2018-01-27T12:44:33Z</time>
      </trkpt>
      <trkpt lat="62.642993907709" lon="17.975414457651">
        <ele>27.4</ele>
        <time>2018-01-27T12:44:34Z</time>
      </trkpt>
      <trkpt lat="62.642969600199" lon="17.975474639693">
        <ele>27.4</ele>
        <time>2018-01-27T12:44:35Z</time>
      </trkpt>
      <trkpt lat="62.6429510762" lon="17.975523673808">
        <ele>27.2</ele>
        <time>2018-01-27T12:44:36Z</time>
      </trkpt>
      <trkpt lat="62.642927439242" lon="17.975580083995">
        <ele>27.4</ele>
        <time>2018-01-27T12:44:37Z</time>
      </trkpt>
      <trkpt lat="62.642909837252" lon="17.975620820029">
        <ele>27.6</ele>
        <time>2018-01-27T12:44:38Z</time>
      </trkpt>
      <trkpt lat="62.642897096764" lon="17.975668680678">
        <ele>27.6</ele>
        <time>2018-01-27T12:44:39Z</time>
      </trkpt>
      <trkpt lat="62.642893995461" lon="17.975712853291">
        <ele>27.8</ele>
        <time>2018-01-27T12:44:40Z</time>
      </trkpt>
      <trkpt lat="62.642890475063" lon="17.975769179659">
        <ele>27.8</ele>
        <time>2018-01-27T12:44:41Z</time>
      </trkpt>
      <trkpt lat="62.642900281886" lon="17.975837659782">
        <ele>28</ele>
        <time>2018-01-27T12:44:42Z</time>
      </trkpt>
      <trkpt lat="62.642887289941" lon="17.975921394963">
        <ele>28.2</ele>
        <time>2018-01-27T12:44:43Z</time>
      </trkpt>
      <trkpt lat="62.642880081507" lon="17.976001861203">
        <ele>28.2</ele>
        <time>2018-01-27T12:44:44Z</time>
      </trkpt>
      <trkpt lat="62.642871615788" lon="17.976067910575">
        <ele>28.2</ele>
        <time>2018-01-27T12:44:45Z</time>
      </trkpt>
      <trkpt lat="62.642866670467" lon="17.976133624671">
        <ele>28.2</ele>
        <time>2018-01-27T12:44:46Z</time>
      </trkpt>
      <trkpt lat="62.642861557508" lon="17.976201434242">
        <ele>28.2</ele>
        <time>2018-01-27T12:44:47Z</time>
      </trkpt>
      <trkpt lat="62.642849403753" lon="17.976290617658">
        <ele>28.2</ele>
        <time>2018-01-27T12:44:48Z</time>
      </trkpt>
      <trkpt lat="62.642844542251" lon="17.976368820785">
        <ele>28</ele>
        <time>2018-01-27T12:44:49Z</time>
      </trkpt>
      <trkpt lat="62.642845296622" lon="17.976421794393">
        <ele>28</ele>
        <time>2018-01-27T12:44:50Z</time>
      </trkpt>
      <trkpt lat="62.64284127331" lon="17.976480635331">
        <ele>28</ele>
        <time>2018-01-27T12:44:51Z</time>
      </trkpt>
      <trkpt lat="62.642845045165" lon="17.976547941988">
        <ele>27.8</ele>
        <time>2018-01-27T12:44:52Z</time>
      </trkpt>
      <trkpt lat="62.64283875874" lon="17.976633688825">
        <ele>28</ele>
        <time>2018-01-27T12:44:53Z</time>
      </trkpt>
      <trkpt lat="62.642839094016" lon="17.976709964115">
        <ele>28</ele>
        <time>2018-01-27T12:44:54Z</time>
      </trkpt>
      <trkpt lat="62.642829035736" lon="17.976776097306">
        <ele>28</ele>
        <time>2018-01-27T12:44:55Z</time>
      </trkpt>
      <trkpt lat="62.642810176461" lon="17.976839715927">
        <ele>28.2</ele>
        <time>2018-01-27T12:44:56Z</time>
      </trkpt>
      <trkpt lat="62.642799866724" lon="17.976897048123">
        <ele>28.2</ele>
        <time>2018-01-27T12:44:57Z</time>
      </trkpt>
      <trkpt lat="62.642786539503" lon="17.976943735306">
        <ele>28.2</ele>
        <time>2018-01-27T12:44:58Z</time>
      </trkpt>
      <trkpt lat="62.642776313585" lon="17.977008275936">
        <ele>28.4</ele>
        <time>2018-01-27T12:44:59Z</time>
      </trkpt>
      <trkpt lat="62.642765165658" lon="17.977064183209">
        <ele>28.6</ele>
        <time>2018-01-27T12:45:00Z</time>
      </trkpt>
      <trkpt lat="62.642758627776" lon="17.977112127677">
        <ele>28.6</ele>
        <time>2018-01-27T12:45:01Z</time>
      </trkpt>
      <trkpt lat="62.642751670799" lon="17.977179937248">
        <ele>28.6</ele>
        <time>2018-01-27T12:45:02Z</time>
      </trkpt>
      <trkpt lat="62.642751000247" lon="17.97722922282">
        <ele>29</ele>
        <time>2018-01-27T12:45:03Z</time>
      </trkpt>
      <trkpt lat="62.642738595035" lon="17.977286303559">
        <ele>29</ele>
        <time>2018-01-27T12:45:04Z</time>
      </trkpt>
      <trkpt lat="62.642729626402" lon="17.977347491429">
        <ele>29.2</ele>
        <time>2018-01-27T12:45:05Z</time>
      </trkpt>
      <trkpt lat="62.642725686909" lon="17.977391077309">
        <ele>29.2</ele>
        <time>2018-01-27T12:45:06Z</time>
      </trkpt>
      <trkpt lat="62.642712862602" lon="17.977455198844">
        <ele>29.2</ele>
        <time>2018-01-27T12:45:07Z</time>
      </trkpt>
      <trkpt lat="62.642702385227" lon="17.977500461104">
        <ele>29.2</ele>
        <time>2018-01-27T12:45:08Z</time>
      </trkpt>
      <trkpt lat="62.642692159309" lon="17.977536084179">
        <ele>29.2</ele>
        <time>2018-01-27T12:45:09Z</time>
      </trkpt>
      <trkpt lat="62.642681514296" lon="17.977572210168">
        <ele>29.2</ele>
        <time>2018-01-27T12:45:10Z</time>
      </trkpt>
      <trkpt lat="62.642663660849" lon="17.977609174347">
        <ele>29.2</ele>
        <time>2018-01-27T12:45:11Z</time>
      </trkpt>
      <trkpt lat="62.642644801574" lon="17.977643121042">
        <ele>29.4</ele>
        <time>2018-01-27T12:45:12Z</time>
      </trkpt>
      <trkpt lat="62.64263172581" lon="17.977679749945">
        <ele>29.6</ele>
        <time>2018-01-27T12:45:13Z</time>
      </trkpt>
      <trkpt lat="62.642609010861" lon="17.977696681383">
        <ele>29.8</ele>
        <time>2018-01-27T12:45:14Z</time>
      </trkpt>
      <trkpt lat="62.642591744147" lon="17.977725682757">
        <ele>30</ele>
        <time>2018-01-27T12:45:15Z</time>
      </trkpt>
      <trkpt lat="62.642583362247" lon="17.977751750466">
        <ele>30.2</ele>
        <time>2018-01-27T12:45:16Z</time>
      </trkpt>
      <trkpt lat="62.642560647298" lon="17.97777236994">
        <ele>30.4</ele>
        <time>2018-01-27T12:45:17Z</time>
      </trkpt>
      <trkpt lat="62.642553522683" lon="17.977806903368">
        <ele>30.6</ele>
        <time>2018-01-27T12:45:18Z</time>
      </trkpt>
      <trkpt lat="62.642528376983" lon="17.977820649684">
        <ele>30.8</ele>
        <time>2018-01-27T12:45:19Z</time>
      </trkpt>
      <trkpt lat="62.642519156893" lon="17.977865576668">
        <ele>31</ele>
        <time>2018-01-27T12:45:20Z</time>
      </trkpt>
      <trkpt lat="62.642493675917" lon="17.97789055473">
        <ele>31</ele>
        <time>2018-01-27T12:45:21Z</time>
      </trkpt>
      <trkpt lat="62.642475319556" lon="17.977934475886">
        <ele>31.2</ele>
        <time>2018-01-27T12:45:22Z</time>
      </trkpt>
      <trkpt lat="62.642461154145" lon="17.977964483088">
        <ele>31.2</ele>
        <time>2018-01-27T12:45:23Z</time>
      </trkpt>
      <trkpt lat="62.642446737277" lon="17.977983090906">
        <ele>31.2</ele>
        <time>2018-01-27T12:45:24Z</time>
      </trkpt>
      <trkpt lat="62.642441205223" lon="17.978021228551">
        <ele>31.4</ele>
        <time>2018-01-27T12:45:25Z</time>
      </trkpt>
      <trkpt lat="62.642422262129" lon="17.978051990124">
        <ele>31.6</ele>
        <time>2018-01-27T12:45:26Z</time>
      </trkpt>
      <trkpt lat="62.64240457632" lon="17.978086020638">
        <ele>31.6</ele>
        <time>2018-01-27T12:45:27Z</time>
      </trkpt>
      <trkpt lat="62.642387980158" lon="17.978120805523">
        <ele>32</ele>
        <time>2018-01-27T12:45:28Z</time>
      </trkpt>
      <trkpt lat="62.642373144195" lon="17.978164894317">
        <ele>32.2</ele>
        <time>2018-01-27T12:45:29Z</time>
      </trkpt>
      <trkpt lat="62.64236601958" lon="17.978203031962">
        <ele>32.4</ele>
        <time>2018-01-27T12:45:30Z</time>
      </trkpt>
      <trkpt lat="62.642351518893" lon="17.978239577046">
        <ele>32.4</ele>
        <time>2018-01-27T12:45:31Z</time>
      </trkpt>
      <trkpt lat="62.642348166133" lon="17.978288108247">
        <ele>32.6</ele>
        <time>2018-01-27T12:45:32Z</time>
      </trkpt>
      <trkpt lat="62.642323104252" lon="17.978338315828">
        <ele>32.6</ele>
        <time>2018-01-27T12:45:33Z</time>
      </trkpt>
      <trkpt lat="62.642307933013" lon="17.978364634994">
        <ele>32.8</ele>
        <time>2018-01-27T12:45:34Z</time>
      </trkpt>
      <trkpt lat="62.642286056254" lon="17.978412244186">
        <ele>32.8</ele>
        <time>2018-01-27T12:45:35Z</time>
      </trkpt>
      <trkpt lat="62.642262000201" lon="17.978451639116">
        <ele>33</ele>
        <time>2018-01-27T12:45:36Z</time>
      </trkpt>
      <trkpt lat="62.642250936093" lon="17.978493297159">
        <ele>33</ele>
        <time>2018-01-27T12:45:37Z</time>
      </trkpt>
      <trkpt lat="62.64223693832" lon="17.978513413719">
        <ele>33.2</ele>
        <time>2018-01-27T12:45:38Z</time>
      </trkpt>
      <trkpt lat="62.642225706574" lon="17.978548450061">
        <ele>33.4</ele>
        <time>2018-01-27T12:45:39Z</time>
      </trkpt>
      <trkpt lat="62.642205841471" lon="17.978581390928">
        <ele>33.6</ele>
        <time>2018-01-27T12:45:40Z</time>
      </trkpt>
      <trkpt lat="62.642188826214" lon="17.978614918528">
        <ele>33.6</ele>
        <time>2018-01-27T12:45:41Z</time>
      </trkpt>
      <trkpt lat="62.642179773762" lon="17.978646769748">
        <ele>33.8</ele>
        <time>2018-01-27T12:45:42Z</time>
      </trkpt>
      <trkpt lat="62.64215395751" lon="17.978669903792">
        <ele>34</ele>
        <time>2018-01-27T12:45:43Z</time>
      </trkpt>
      <trkpt lat="62.642137445167" lon="17.978684069203">
        <ele>34.2</ele>
        <time>2018-01-27T12:45:44Z</time>
      </trkpt>
      <trkpt lat="62.642122441566" lon="17.978712735301">
        <ele>34.4</ele>
        <time>2018-01-27T12:45:45Z</time>
      </trkpt>
      <trkpt lat="62.642097463504" lon="17.97871784826">
        <ele>34.6</ele>
        <time>2018-01-27T12:45:46Z</time>
      </trkpt>
      <trkpt lat="62.642080699704" lon="17.978744837978">
        <ele>34.6</ele>
        <time>2018-01-27T12:45:47Z</time>
      </trkpt>
      <trkpt lat="62.64206930032" lon="17.978749867118">
        <ele>34.8</ele>
        <time>2018-01-27T12:45:48Z</time>
      </trkpt>
      <trkpt lat="62.642044657534" lon="17.978762439968">
        <ele>34.8</ele>
        <time>2018-01-27T12:45:49Z</time>
      </trkpt>
      <trkpt lat="62.642026720268" lon="17.978773587895">
        <ele>35</ele>
        <time>2018-01-27T12:45:50Z</time>
      </trkpt>
      <trkpt lat="62.642012387219" lon="17.978791022247">
        <ele>35.2</ele>
        <time>2018-01-27T12:45:51Z</time>
      </trkpt>
      <trkpt lat="62.641988917899" lon="17.978786244564">
        <ele>35.6</ele>
        <time>2018-01-27T12:45:52Z</time>
      </trkpt>
      <trkpt lat="62.641975171583" lon="17.978798901233">
        <ele>35.8</ele>
        <time>2018-01-27T12:45:53Z</time>
      </trkpt>
      <trkpt lat="62.641952372815" lon="17.978801583441">
        <ele>36.2</ele>
        <time>2018-01-27T12:45:54Z</time>
      </trkpt>
      <trkpt lat="62.641923287622" lon="17.978804852382">
        <ele>36.2</ele>
        <time>2018-01-27T12:45:55Z</time>
      </trkpt>
      <trkpt lat="62.641910128039" lon="17.978825388037">
        <ele>36.4</ele>
        <time>2018-01-27T12:45:56Z</time>
      </trkpt>
      <trkpt lat="62.64188238395" lon="17.978830752453">
        <ele>36.4</ele>
        <time>2018-01-27T12:45:57Z</time>
      </trkpt>
      <trkpt lat="62.641862518847" lon="17.978841397466">
        <ele>36.6</ele>
        <time>2018-01-27T12:45:58Z</time>
      </trkpt>
      <trkpt lat="62.641845335952" lon="17.978850869013">
        <ele>36.8</ele>
        <time>2018-01-27T12:45:59Z</time>
      </trkpt>
      <trkpt lat="62.641831505817" lon="17.978857071619">
        <ele>37</ele>
        <time>2018-01-27T12:46:00Z</time>
      </trkpt>
      <trkpt lat="62.641816334578" lon="17.978879535111">
        <ele>37.2</ele>
        <time>2018-01-27T12:46:01Z</time>
      </trkpt>
      <trkpt lat="62.641795547466" lon="17.978885737717">
        <ele>37.6</ele>
        <time>2018-01-27T12:46:02Z</time>
      </trkpt>
      <trkpt lat="62.641778364571" lon="17.978890096305">
        <ele>37.8</ele>
        <time>2018-01-27T12:46:03Z</time>
      </trkpt>
      <trkpt lat="62.64176168459" lon="17.978891102133">
        <ele>38.2</ele>
        <time>2018-01-27T12:46:04Z</time>
      </trkpt>
      <trkpt lat="62.641746932446" lon="17.97889470635">
        <ele>38.2</ele>
        <time>2018-01-27T12:46:05Z</time>
      </trkpt>
      <trkpt lat="62.641732599397" lon="17.97891063196">
        <ele>38.6</ele>
        <time>2018-01-27T12:46:06Z</time>
      </trkpt>
      <trkpt lat="62.641709884448" lon="17.978914403815">
        <ele>38.8</ele>
        <time>2018-01-27T12:46:07Z</time>
      </trkpt>
      <trkpt lat="62.641693204467" lon="17.978902920612">
        <ele>39</ele>
        <time>2018-01-27T12:46:08Z</time>
      </trkpt>
      <trkpt lat="62.64168205654" lon="17.97891901386">
        <ele>39.4</ele>
        <time>2018-01-27T12:46:09Z</time>
      </trkpt>
      <trkpt lat="62.641663113446" lon="17.978898645843">
        <ele>39.4</ele>
        <time>2018-01-27T12:46:10Z</time>
      </trkpt>
      <trkpt lat="62.641648109845" lon="17.97889302997">
        <ele>39.6</ele>
        <time>2018-01-27T12:46:11Z</time>
      </trkpt>
      <trkpt lat="62.641635453176" lon="17.978892946151">
        <ele>39.8</ele>
        <time>2018-01-27T12:46:12Z</time>
      </trkpt>
      <trkpt lat="62.641616929177" lon="17.978880876215">
        <ele>40</ele>
        <time>2018-01-27T12:46:13Z</time>
      </trkpt>
      <trkpt lat="62.641601087386" lon="17.978884228975">
        <ele>40.2</ele>
        <time>2018-01-27T12:46:14Z</time>
      </trkpt>
      <trkpt lat="62.641581306102" lon="17.978871404668">
        <ele>40.6</ele>
        <time>2018-01-27T12:46:15Z</time>
      </trkpt>
      <trkpt lat="62.641566134863" lon="17.978877020541">
        <ele>40.8</ele>
        <time>2018-01-27T12:46:16Z</time>
      </trkpt>
      <trkpt lat="62.64154459338" lon="17.97887207522">
        <ele>41</ele>
        <time>2018-01-27T12:46:17Z</time>
      </trkpt>
      <trkpt lat="62.641526907571" lon="17.978862687492">
        <ele>41.2</ele>
        <time>2018-01-27T12:46:18Z</time>
      </trkpt>
      <trkpt lat="62.641511401056" lon="17.978876014713">
        <ele>41.6</ele>
        <time>2018-01-27T12:46:19Z</time>
      </trkpt>
      <trkpt lat="62.641487847917" lon="17.97885363504">
        <ele>41.8</ele>
        <time>2018-01-27T12:46:20Z</time>
      </trkpt>
      <trkpt lat="62.641472425221" lon="17.978858077447">
        <ele>42</ele>
        <time>2018-01-27T12:46:21Z</time>
      </trkpt>
      <trkpt lat="62.641445854598" lon="17.978842906208">
        <ele>42.2</ele>
        <time>2018-01-27T12:46:22Z</time>
      </trkpt>
      <trkpt lat="62.641431270092" lon="17.978842822389">
        <ele>42.4</ele>
        <time>2018-01-27T12:46:23Z</time>
      </trkpt>
      <trkpt lat="62.641414841568" lon="17.978860256741">
        <ele>42.4</ele>
        <time>2018-01-27T12:46:24Z</time>
      </trkpt>
      <trkpt lat="62.641384079995" lon="17.978850617556">
        <ele>42.4</ele>
        <time>2018-01-27T12:46:25Z</time>
      </trkpt>
      <trkpt lat="62.641370920412" lon="17.978862771311">
        <ele>42.6</ele>
        <time>2018-01-27T12:46:26Z</time>
      </trkpt>
      <trkpt lat="62.641346277626" lon="17.978881630586">
        <ele>42.6</ele>
        <time>2018-01-27T12:46:27Z</time>
      </trkpt>
      <trkpt lat="62.641315599872" lon="17.978871656125">
        <ele>42.8</ele>
        <time>2018-01-27T12:46:28Z</time>
      </trkpt>
      <trkpt lat="62.641303278479" lon="17.978876769084">
        <ele>42.8</ele>
        <time>2018-01-27T12:46:29Z</time>
      </trkpt>
      <trkpt lat="62.641273690372" lon="17.978885905355">
        <ele>43</ele>
        <time>2018-01-27T12:46:30Z</time>
      </trkpt>
      <trkpt lat="62.641262039531" lon="17.978898142929">
        <ele>43.2</ele>
        <time>2018-01-27T12:46:31Z</time>
      </trkpt>
      <trkpt lat="62.641246700654" lon="17.97891230834">
        <ele>43.6</ele>
        <time>2018-01-27T12:46:32Z</time>
      </trkpt>
      <trkpt lat="62.641220800583" lon="17.978897053282">
        <ele>43.8</ele>
        <time>2018-01-27T12:46:33Z</time>
      </trkpt>
      <trkpt lat="62.641203785326" lon="17.978925803199">
        <ele>44</ele>
        <time>2018-01-27T12:46:34Z</time>
      </trkpt>
      <trkpt lat="62.641178723445" lon="17.978915242005">
        <ele>44.2</ele>
        <time>2018-01-27T12:46:35Z</time>
      </trkpt>
      <trkpt lat="62.641155757039" lon="17.978927898674">
        <ele>44.6</ele>
        <time>2018-01-27T12:46:36Z</time>
      </trkpt>
      <trkpt lat="62.641126755665" lon="17.978946506492">
        <ele>44.8</ele>
        <time>2018-01-27T12:46:37Z</time>
      </trkpt>
      <trkpt lat="62.641099765947" lon="17.978948601967">
        <ele>45</ele>
        <time>2018-01-27T12:46:38Z</time>
      </trkpt>
      <trkpt lat="62.641078056826" lon="17.978968802346">
        <ele>45.2</ele>
        <time>2018-01-27T12:46:39Z</time>
      </trkpt>
      <trkpt lat="62.641058275542" lon="17.979007610543">
        <ele>45.2</ele>
        <time>2018-01-27T12:46:40Z</time>
      </trkpt>
      <trkpt lat="62.641032710747" lon="17.979040802867">
        <ele>45.6</ele>
        <time>2018-01-27T12:46:41Z</time>
      </trkpt>
      <trkpt lat="62.641015779309" lon="17.979093273561">
        <ele>45.6</ele>
        <time>2018-01-27T12:46:42Z</time>
      </trkpt>
      <trkpt lat="62.641015360214" lon="17.979143984056">
        <ele>45.8</ele>
        <time>2018-01-27T12:46:43Z</time>
      </trkpt>
      <trkpt lat="62.640998344957" lon="17.979211458351">
        <ele>46</ele>
        <time>2018-01-27T12:46:44Z</time>
      </trkpt>
      <trkpt lat="62.641002535907" lon="17.979264934873">
        <ele>46.2</ele>
        <time>2018-01-27T12:46:45Z</time>
      </trkpt>
      <trkpt lat="62.640984598641" lon="17.979314807178">
        <ele>46.2</ele>
        <time>2018-01-27T12:46:46Z</time>
      </trkpt>
      <trkpt lat="62.640995411292" lon="17.979355459393">
        <ele>46.4</ele>
        <time>2018-01-27T12:46:47Z</time>
      </trkpt>
      <trkpt lat="62.640976468198" lon="17.979422682231">
        <ele>46.4</ele>
        <time>2018-01-27T12:46:48Z</time>
      </trkpt>
      <trkpt lat="62.640983928089" lon="17.979448414664">
        <ele>46.4</ele>
        <time>2018-01-27T12:46:49Z</time>
      </trkpt>
      <trkpt lat="62.64097881513" lon="17.979516475692">
        <ele>46.2</ele>
        <time>2018-01-27T12:46:50Z</time>
      </trkpt>
      <trkpt lat="62.64097630056" lon="17.979556122079">
        <ele>46.2</ele>
        <time>2018-01-27T12:46:51Z</time>
      </trkpt>
      <trkpt lat="62.640967751022" lon="17.979617309949">
        <ele>46.4</ele>
        <time>2018-01-27T12:46:52Z</time>
      </trkpt>
      <trkpt lat="62.640975546189" lon="17.979662572209">
        <ele>46.4</ele>
        <time>2018-01-27T12:46:53Z</time>
      </trkpt>
      <trkpt lat="62.640951490136" lon="17.979736752024">
        <ele>46.4</ele>
        <time>2018-01-27T12:46:54Z</time>
      </trkpt>
      <trkpt lat="62.64096037495" lon="17.979791904926">
        <ele>46.6</ele>
        <time>2018-01-27T12:46:55Z</time>
      </trkpt>
      <trkpt lat="62.640939587838" lon="17.979840687584">
        <ele>46.8</ele>
        <time>2018-01-27T12:46:56Z</time>
      </trkpt>
      <trkpt lat="62.640939252562" lon="17.979900785807">
        <ele>46.8</ele>
        <time>2018-01-27T12:46:57Z</time>
      </trkpt>
      <trkpt lat="62.640933636689" lon="17.979957866546">
        <ele>47</ele>
        <time>2018-01-27T12:46:58Z</time>
      </trkpt>
      <trkpt lat="62.640929110463" lon="17.980022239538">
        <ele>47</ele>
        <time>2018-01-27T12:46:59Z</time>
      </trkpt>
      <trkpt lat="62.64093020011" lon="17.980105807081">
        <ele>47.2</ele>
        <time>2018-01-27T12:47:00Z</time>
      </trkpt>
      <trkpt lat="62.640924668056" lon="17.980152661902">
        <ele>47</ele>
        <time>2018-01-27T12:47:01Z</time>
      </trkpt>
      <trkpt lat="62.640925254789" lon="17.980247964105">
        <ele>47.2</ele>
        <time>2018-01-27T12:47:02Z</time>
      </trkpt>
      <trkpt lat="62.640930283929" lon="17.980342176661">
        <ele>47</ele>
        <time>2018-01-27T12:47:03Z</time>
      </trkpt>
      <trkpt lat="62.64092768554" lon="17.980425492747">
        <ele>47</ele>
        <time>2018-01-27T12:47:04Z</time>
      </trkpt>
      <trkpt lat="62.640931960309" lon="17.980501851856">
        <ele>46.8</ele>
        <time>2018-01-27T12:47:05Z</time>
      </trkpt>
      <trkpt lat="62.640943275874" lon="17.980574187653">
        <ele>46.8</ele>
        <time>2018-01-27T12:47:06Z</time>
      </trkpt>
      <trkpt lat="62.640953334154" lon="17.980671417693">
        <ele>46.4</ele>
        <time>2018-01-27T12:47:07Z</time>
      </trkpt>
      <trkpt lat="62.640964398262" lon="17.980746100422">
        <ele>46.2</ele>
        <time>2018-01-27T12:47:08Z</time>
      </trkpt>
      <trkpt lat="62.640978479854" lon="17.980831344345">
        <ele>46</ele>
        <time>2018-01-27T12:47:09Z</time>
      </trkpt>
      <trkpt lat="62.640994573102" lon="17.980924131978">
        <ele>45.6</ele>
        <time>2018-01-27T12:47:10Z</time>
      </trkpt>
      <trkpt lat="62.641006810676" lon="17.981015075593">
        <ele>45.4</ele>
        <time>2018-01-27T12:47:11Z</time>
      </trkpt>
      <trkpt lat="62.64102743015" lon="17.981098978412">
        <ele>45.2</ele>
        <time>2018-01-27T12:47:12Z</time>
      </trkpt>
      <trkpt lat="62.641052072936" lon="17.981182629774">
        <ele>44.8</ele>
        <time>2018-01-27T12:47:13Z</time>
      </trkpt>
      <trkpt lat="62.641061963578" lon="17.981293941406">
        <ele>44.2</ele>
        <time>2018-01-27T12:47:14Z</time>
      </trkpt>
      <trkpt lat="62.641071183668" lon="17.981399888622">
        <ele>43.8</ele>
        <time>2018-01-27T12:47:15Z</time>
      </trkpt>
      <trkpt lat="62.64105509042" lon="17.981484797269">
        <ele>43.4</ele>
        <time>2018-01-27T12:47:16Z</time>
      </trkpt>
      <trkpt lat="62.641041763199" lon="17.981607424466">
        <ele>42.6</ele>
        <time>2018-01-27T12:47:17Z</time>
      </trkpt>
      <trkpt lat="62.641044445407" lon="17.981674312028">
        <ele>42.6</ele>
        <time>2018-01-27T12:47:18Z</time>
      </trkpt>
      <trkpt lat="62.64104670852" lon="17.981793335008">
        <ele>42.4</ele>
        <time>2018-01-27T12:47:19Z</time>
      </trkpt>
      <trkpt lat="62.641050312737" lon="17.981880087673">
        <ele>42.8</ele>
        <time>2018-01-27T12:47:20Z</time>
      </trkpt>
      <trkpt lat="62.641059700465" lon="17.98193817424">
        <ele>42.8</ele>
        <time>2018-01-27T12:47:21Z</time>
      </trkpt>
      <trkpt lat="62.641064897243" lon="17.982020735955">
        <ele>43.2</ele>
        <time>2018-01-27T12:47:22Z</time>
      </trkpt>
      <trkpt lat="62.641071099849" lon="17.982089551354">
        <ele>43.2</ele>
        <time>2018-01-27T12:47:23Z</time>
      </trkpt>
      <trkpt lat="62.641072440953" lon="17.982189128326">
        <ele>43.2</ele>
        <time>2018-01-27T12:47:24Z</time>
      </trkpt>
      <trkpt lat="62.641086187269" lon="17.982259033372">
        <ele>43</ele>
        <time>2018-01-27T12:47:25Z</time>
      </trkpt>
      <trkpt lat="62.641102699612" lon="17.982315275921">
        <ele>43</ele>
        <time>2018-01-27T12:47:26Z</time>
      </trkpt>
      <trkpt lat="62.641112171159" lon="17.982403788785">
        <ele>43</ele>
        <time>2018-01-27T12:47:27Z</time>
      </trkpt>
      <trkpt lat="62.64112298381" lon="17.98246791032">
        <ele>43</ele>
        <time>2018-01-27T12:47:28Z</time>
      </trkpt>
      <trkpt lat="62.641146956044" lon="17.982533205321">
        <ele>43.2</ele>
        <time>2018-01-27T12:47:29Z</time>
      </trkpt>
      <trkpt lat="62.641157601057" lon="17.982630351542">
        <ele>43.2</ele>
        <time>2018-01-27T12:47:30Z</time>
      </trkpt>
      <trkpt lat="62.641176125056" lon="17.982683576607">
        <ele>43.2</ele>
        <time>2018-01-27T12:47:31Z</time>
      </trkpt>
      <trkpt lat="62.641178555807" lon="17.982772424747">
        <ele>43.2</ele>
        <time>2018-01-27T12:47:32Z</time>
      </trkpt>
      <trkpt lat="62.641183668766" lon="17.982879796886">
        <ele>43.2</ele>
        <time>2018-01-27T12:47:33Z</time>
      </trkpt>
      <trkpt lat="62.641202192765" lon="17.982963699705">
        <ele>43</ele>
        <time>2018-01-27T12:47:34Z</time>
      </trkpt>
      <trkpt lat="62.641203198593" lon="17.983076100984">
        <ele>42.8</ele>
        <time>2018-01-27T12:47:35Z</time>
      </trkpt>
      <trkpt lat="62.641217028728" lon="17.98316779897">
        <ele>42.4</ele>
        <time>2018-01-27T12:47:36Z</time>
      </trkpt>
      <trkpt lat="62.641235971822" lon="17.983276176937">
        <ele>42.4</ele>
        <time>2018-01-27T12:47:37Z</time>
      </trkpt>
      <trkpt lat="62.641258351495" lon="17.983346249621">
        <ele>42.2</ele>
        <time>2018-01-27T12:47:38Z</time>
      </trkpt>
      <trkpt lat="62.641271259621" lon="17.983445826593">
        <ele>42.2</ele>
        <time>2018-01-27T12:47:39Z</time>
      </trkpt>
      <trkpt lat="62.64127972534" lon="17.983560742442">
        <ele>41.8</ele>
        <time>2018-01-27T12:47:40Z</time>
      </trkpt>
      <trkpt lat="62.641275869666" lon="17.983680687431">
        <ele>41.4</ele>
        <time>2018-01-27T12:47:41Z</time>
      </trkpt>
      <trkpt lat="62.641268158318" lon="17.983817815315">
        <ele>40.8</ele>
        <time>2018-01-27T12:47:42Z</time>
      </trkpt>
      <trkpt lat="62.641262290988" lon="17.983944549643">
        <ele>40</ele>
        <time>2018-01-27T12:47:43Z</time>
      </trkpt>
      <trkpt lat="62.641263045359" lon="17.984049071936">
        <ele>39.4</ele>
        <time>2018-01-27T12:47:44Z</time>
      </trkpt>
      <trkpt lat="62.641257261848" lon="17.984162395224">
        <ele>39.2</ele>
        <time>2018-01-27T12:47:45Z</time>
      </trkpt>
      <trkpt lat="62.641254244364" lon="17.984262642748">
        <ele>38.8</ele>
        <time>2018-01-27T12:47:46Z</time>
      </trkpt>
      <trkpt lat="62.641256088382" lon="17.984393651845">
        <ele>38.6</ele>
        <time>2018-01-27T12:47:47Z</time>
      </trkpt>
      <trkpt lat="62.641258100038" lon="17.984509154427">
        <ele>38.4</ele>
        <time>2018-01-27T12:47:48Z</time>
      </trkpt>
      <trkpt lat="62.641264302644" lon="17.984620801335">
        <ele>38.4</ele>
        <time>2018-01-27T12:47:49Z</time>
      </trkpt>
      <trkpt lat="62.64127721077" lon="17.984723898705">
        <ele>38.2</ele>
        <time>2018-01-27T12:47:50Z</time>
      </trkpt>
      <trkpt lat="62.641264135006" lon="17.984828420998">
        <ele>38.4</ele>
        <time>2018-01-27T12:47:51Z</time>
      </trkpt>
      <trkpt lat="62.641238821668" lon="17.984946941064">
        <ele>38.4</ele>
        <time>2018-01-27T12:47:52Z</time>
      </trkpt>
      <trkpt lat="62.641233205795" lon="17.985045763665">
        <ele>38.2</ele>
        <time>2018-01-27T12:47:53Z</time>
      </trkpt>
      <trkpt lat="62.641216441995" lon="17.98513670728">
        <ele>37.8</ele>
        <time>2018-01-27T12:47:54Z</time>
      </trkpt>
      <trkpt lat="62.64122021385" lon="17.985206444688">
        <ele>37.8</ele>
        <time>2018-01-27T12:47:55Z</time>
      </trkpt>
      <trkpt lat="62.641231194139" lon="17.985275092449">
        <ele>37.8</ele>
        <time>2018-01-27T12:47:56Z</time>
      </trkpt>
      <trkpt lat="62.641216693452" lon="17.985397971103">
        <ele>37.4</ele>
        <time>2018-01-27T12:47:57Z</time>
      </trkpt>
      <trkpt lat="62.641204707335" lon="17.98549964355">
        <ele>37.6</ele>
        <time>2018-01-27T12:47:58Z</time>
      </trkpt>
      <trkpt lat="62.641178388169" lon="17.985600813083">
        <ele>37.8</ele>
        <time>2018-01-27T12:47:59Z</time>
      </trkpt>
      <trkpt lat="62.641156762867" lon="17.985713884914">
        <ele>37.6</ele>
        <time>2018-01-27T12:48:00Z</time>
      </trkpt>
      <trkpt lat="62.641149386795" lon="17.985781694485">
        <ele>37.4</ele>
        <time>2018-01-27T12:48:01Z</time>
      </trkpt>
      <trkpt lat="62.641116697385" lon="17.985892335565">
        <ele>37</ele>
        <time>2018-01-27T12:48:02Z</time>
      </trkpt>
      <trkpt lat="62.641107309657" lon="17.985960564231">
        <ele>36.8</ele>
        <time>2018-01-27T12:48:03Z</time>
      </trkpt>
      <trkpt lat="62.641099346852" lon="17.986066008533">
        <ele>36.8</ele>
        <time>2018-01-27T12:48:04Z</time>
      </trkpt>
      <trkpt lat="62.641088785658" lon="17.986179583278">
        <ele>36.8</ele>
        <time>2018-01-27T12:48:05Z</time>
      </trkpt>
      <trkpt lat="62.641085349079" lon="17.986247141392">
        <ele>36.8</ele>
        <time>2018-01-27T12:48:06Z</time>
      </trkpt>
      <trkpt lat="62.64106263413" lon="17.986348143287">
        <ele>37</ele>
        <time>2018-01-27T12:48:07Z</time>
      </trkpt>
      <trkpt lat="62.641061293026" lon="17.986413103012">
        <ele>37</ele>
        <time>2018-01-27T12:48:08Z</time>
      </trkpt>
      <trkpt lat="62.641047714348" lon="17.986502873161">
        <ele>37.2</ele>
        <time>2018-01-27T12:48:09Z</time>
      </trkpt>
      <trkpt lat="62.641030363815" lon="17.986585853971">
        <ele>37.4</ele>
        <time>2018-01-27T12:48:10Z</time>
      </trkpt>
      <trkpt lat="62.641026675779" lon="17.986668834781">
        <ele>37.4</ele>
        <time>2018-01-27T12:48:11Z</time>
      </trkpt>
      <trkpt lat="62.641009660522" lon="17.986752234686">
        <ele>37.2</ele>
        <time>2018-01-27T12:48:12Z</time>
      </trkpt>
      <trkpt lat="62.640997758224" lon="17.986831778917">
        <ele>37.2</ele>
        <time>2018-01-27T12:48:13Z</time>
      </trkpt>
      <trkpt lat="62.641003793192" lon="17.986892296235">
        <ele>37.2</ele>
        <time>2018-01-27T12:48:14Z</time>
      </trkpt>
      <trkpt lat="62.640991052704" lon="17.986979132719">
        <ele>37.2</ele>
        <time>2018-01-27T12:48:15Z</time>
      </trkpt>
      <trkpt lat="62.640992812903" lon="17.987056413837">
        <ele>37.2</ele>
        <time>2018-01-27T12:48:16Z</time>
      </trkpt>
      <trkpt lat="62.640995830387" lon="17.987120619191">
        <ele>37.2</ele>
        <time>2018-01-27T12:48:17Z</time>
      </trkpt>
      <trkpt lat="62.640977725483" lon="17.987230841176">
        <ele>37.2</ele>
        <time>2018-01-27T12:48:18Z</time>
      </trkpt>
      <trkpt lat="62.640971522877" lon="17.987301919688">
        <ele>37.2</ele>
        <time>2018-01-27T12:48:19Z</time>
      </trkpt>
      <trkpt lat="62.640963811529" lon="17.987391689837">
        <ele>37.2</ele>
        <time>2018-01-27T12:48:20Z</time>
      </trkpt>
      <trkpt lat="62.64094864029" lon="17.987475676475">
        <ele>37.4</ele>
        <time>2018-01-27T12:48:21Z</time>
      </trkpt>
      <trkpt lat="62.640939755476" lon="17.987575337266">
        <ele>37</ele>
        <time>2018-01-27T12:48:22Z</time>
      </trkpt>
      <trkpt lat="62.640924500418" lon="17.987675249514">
        <ele>37</ele>
        <time>2018-01-27T12:48:23Z</time>
      </trkpt>
      <trkpt lat="62.640920058011" lon="17.987736353565">
        <ele>37</ele>
        <time>2018-01-27T12:48:24Z</time>
      </trkpt>
      <trkpt lat="62.640908239532" lon="17.98782729718">
        <ele>36.8</ele>
        <time>2018-01-27T12:48:25Z</time>
      </trkpt>
      <trkpt lat="62.640895247587" lon="17.987890748163">
        <ele>36.6</ele>
        <time>2018-01-27T12:48:26Z</time>
      </trkpt>
      <trkpt lat="62.640872448819" lon="17.98796895129">
        <ele>36.6</ele>
        <time>2018-01-27T12:48:27Z</time>
      </trkpt>
      <trkpt lat="62.640865994756" lon="17.988028798056">
        <ele>36.4</ele>
        <time>2018-01-27T12:48:28Z</time>
      </trkpt>
      <trkpt lat="62.640837580115" lon="17.988108845201">
        <ele>36.6</ele>
        <time>2018-01-27T12:48:29Z</time>
      </trkpt>
      <trkpt lat="62.64082291179" lon="17.988171709451">
        <ele>36.6</ele>
        <time>2018-01-27T12:48:30Z</time>
      </trkpt>
      <trkpt lat="62.640808830198" lon="17.988234992796">
        <ele>36.6</ele>
        <time>2018-01-27T12:48:31Z</time>
      </trkpt>
      <trkpt lat="62.640788546" lon="17.988317973606">
        <ele>36.8</ele>
        <time>2018-01-27T12:48:32Z</time>
      </trkpt>
      <trkpt lat="62.640762645929" lon="17.988392907792">
        <ele>36.8</ele>
        <time>2018-01-27T12:48:33Z</time>
      </trkpt>
      <trkpt lat="62.640749067251" lon="17.988444540296">
        <ele>36.8</ele>
        <time>2018-01-27T12:48:34Z</time>
      </trkpt>
      <trkpt lat="62.640700368412" lon="17.988508997107">
        <ele>36.8</ele>
        <time>2018-01-27T12:48:35Z</time>
      </trkpt>
      <trkpt lat="62.640675306531" lon="17.988561467801">
        <ele>36.8</ele>
        <time>2018-01-27T12:48:36Z</time>
      </trkpt>
      <trkpt lat="62.64064940646" lon="17.988618716178">
        <ele>36.8</ele>
        <time>2018-01-27T12:48:37Z</time>
      </trkpt>
      <trkpt lat="62.640607245503" lon="17.988675629279">
        <ele>37</ele>
        <time>2018-01-27T12:48:38Z</time>
      </trkpt>
      <trkpt lat="62.640587045124" lon="17.988697506038">
        <ele>36.8</ele>
        <time>2018-01-27T12:48:39Z</time>
      </trkpt>
      <trkpt lat="62.640571370971" lon="17.988739666995">
        <ele>37</ele>
        <time>2018-01-27T12:48:40Z</time>
      </trkpt>
      <trkpt lat="62.640543207787" lon="17.988787779101">
        <ele>37.2</ele>
        <time>2018-01-27T12:48:41Z</time>
      </trkpt>
      <trkpt lat="62.640525102883" lon="17.988847709686">
        <ele>37.4</ele>
        <time>2018-01-27T12:48:42Z</time>
      </trkpt>
      <trkpt lat="62.64049937045" lon="17.988908897556">
        <ele>37.6</ele>
        <time>2018-01-27T12:48:43Z</time>
      </trkpt>
      <trkpt lat="62.640484953582" lon="17.988964553372">
        <ele>37.6</ele>
        <time>2018-01-27T12:48:44Z</time>
      </trkpt>
      <trkpt lat="62.640470704352" lon="17.989013922763">
        <ele>37.8</ele>
        <time>2018-01-27T12:48:45Z</time>
      </trkpt>
      <trkpt lat="62.64043818258" lon="17.989057508643">
        <ele>37.8</ele>
        <time>2018-01-27T12:48:46Z</time>
      </trkpt>
      <trkpt lat="62.640430890327" lon="17.989113667373">
        <ele>37.8</ele>
        <time>2018-01-27T12:48:47Z</time>
      </trkpt>
      <trkpt lat="62.64040633136" lon="17.989174100872">
        <ele>38</ele>
        <time>2018-01-27T12:48:48Z</time>
      </trkpt>
      <trkpt lat="62.640403230057" lon="17.989222715892">
        <ele>38</ele>
        <time>2018-01-27T12:48:49Z</time>
      </trkpt>
      <trkpt lat="62.640383951687" lon="17.989270408903">
        <ele>38.2</ele>
        <time>2018-01-27T12:48:50Z</time>
      </trkpt>
      <trkpt lat="62.640359979453" lon="17.989301924847">
        <ele>38.2</ele>
        <time>2018-01-27T12:48:51Z</time>
      </trkpt>
      <trkpt lat="62.640336007219" lon="17.989358586491">
        <ele>38</ele>
        <time>2018-01-27T12:48:52Z</time>
      </trkpt>
      <trkpt lat="62.640318656686" lon="17.989394041928">
        <ele>38.2</ele>
        <time>2018-01-27T12:48:53Z</time>
      </trkpt>
      <trkpt lat="62.640304407456" lon="17.989438130722">
        <ele>38.2</ele>
        <time>2018-01-27T12:48:54Z</time>
      </trkpt>
      <trkpt lat="62.640303401628" lon="17.989484482629">
        <ele>38.2</ele>
        <time>2018-01-27T12:48:55Z</time>
      </trkpt>
      <trkpt lat="62.640266437449" lon="17.989544580852">
        <ele>38.4</ele>
        <time>2018-01-27T12:48:56Z</time>
      </trkpt>
      <trkpt lat="62.640252607314" lon="17.989610378767">
        <ele>38.4</ele>
        <time>2018-01-27T12:48:57Z</time>
      </trkpt>
      <trkpt lat="62.640228802718" lon="17.989634686277">
        <ele>38.6</ele>
        <time>2018-01-27T12:48:58Z</time>
      </trkpt>
      <trkpt lat="62.640216648963" lon="17.98969646088">
        <ele>38.8</ele>
        <time>2018-01-27T12:48:59Z</time>
      </trkpt>
      <trkpt lat="62.640202986466" lon="17.98972998848">
        <ele>39</ele>
        <time>2018-01-27T12:49:00Z</time>
      </trkpt>
      <trkpt lat="62.64018840196" lon="17.989773909636">
        <ele>39.4</ele>
        <time>2018-01-27T12:49:01Z</time>
      </trkpt>
      <trkpt lat="62.640181109707" lon="17.989811795824">
        <ele>39.4</ele>
        <time>2018-01-27T12:49:02Z</time>
      </trkpt>
      <trkpt lat="62.640167111934" lon="17.989868038373">
        <ele>39.6</ele>
        <time>2018-01-27T12:49:03Z</time>
      </trkpt>
      <trkpt lat="62.640167028115" lon="17.989907517122">
        <ele>39.8</ele>
        <time>2018-01-27T12:49:04Z</time>
      </trkpt>
      <trkpt lat="62.640148252659" lon="17.989951773554">
        <ele>39.8</ele>
        <time>2018-01-27T12:49:05Z</time>
      </trkpt>
      <trkpt lat="62.640142385329" lon="17.990003825153">
        <ele>40</ele>
        <time>2018-01-27T12:49:06Z</time>
      </trkpt>
      <trkpt lat="62.640112378127" lon="17.990062582272">
        <ele>40</ele>
        <time>2018-01-27T12:49:07Z</time>
      </trkpt>
      <trkpt lat="62.640111037023" lon="17.990129134558">
        <ele>40.2</ele>
        <time>2018-01-27T12:49:08Z</time>
      </trkpt>
      <trkpt lat="62.640087483884" lon="17.990166601651">
        <ele>40.2</ele>
        <time>2018-01-27T12:49:09Z</time>
      </trkpt>
      <trkpt lat="62.640079353441" lon="17.990233405394">
        <ele>40.2</ele>
        <time>2018-01-27T12:49:10Z</time>
      </trkpt>
      <trkpt lat="62.64006351165" lon="17.990270034297">
        <ele>40.4</ele>
        <time>2018-01-27T12:49:11Z</time>
      </trkpt>
      <trkpt lat="62.640056722311" lon="17.990317308213">
        <ele>40.4</ele>
        <time>2018-01-27T12:49:12Z</time>
      </trkpt>
      <trkpt lat="62.640052782818" lon="17.990369946545">
        <ele>40.6</ele>
        <time>2018-01-27T12:49:13Z</time>
      </trkpt>
      <trkpt lat="62.640022356521" lon="17.990417974832">
        <ele>40.8</ele>
        <time>2018-01-27T12:49:14Z</time>
      </trkpt>
      <trkpt lat="62.640017746476" lon="17.99046927206">
        <ele>41</ele>
        <time>2018-01-27T12:49:15Z</time>
      </trkpt>
      <trkpt lat="62.639986481989" lon="17.990498860167">
        <ele>41</ele>
        <time>2018-01-27T12:49:16Z</time>
      </trkpt>
      <trkpt lat="62.639958821719" lon="17.990550073576">
        <ele>41</ele>
        <time>2018-01-27T12:49:17Z</time>
      </trkpt>
      <trkpt lat="62.639936190589" lon="17.9905916478">
        <ele>41.2</ele>
        <time>2018-01-27T12:49:18Z</time>
      </trkpt>
      <trkpt lat="62.639921773721" lon="17.990647555073">
        <ele>41.2</ele>
        <time>2018-01-27T12:49:19Z</time>
      </trkpt>
      <trkpt lat="62.639896041288" lon="17.990665157063">
        <ele>41.4</ele>
        <time>2018-01-27T12:49:20Z</time>
      </trkpt>
      <trkpt lat="62.639880534773" lon="17.990720896698">
        <ele>41.4</ele>
        <time>2018-01-27T12:49:21Z</time>
      </trkpt>
      <trkpt lat="62.639852623046" lon="17.990753837565">
        <ele>41.4</ele>
        <time>2018-01-27T12:49:22Z</time>
      </trkpt>
      <trkpt lat="62.639840217834" lon="17.990812007951">
        <ele>41.6</ele>
        <time>2018-01-27T12:49:23Z</time>
      </trkpt>
      <trkpt lat="62.639822196749" lon="17.99084394299">
        <ele>41.6</ele>
        <time>2018-01-27T12:49:24Z</time>
      </trkpt>
      <trkpt lat="62.639805516768" lon="17.990883086463">
        <ele>41.8</ele>
        <time>2018-01-27T12:49:25Z</time>
      </trkpt>
      <trkpt lat="62.639801577275" lon="17.990924744506">
        <ele>42</ele>
        <time>2018-01-27T12:49:26Z</time>
      </trkpt>
      <trkpt lat="62.639770564245" lon="17.990973527164">
        <ele>42</ele>
        <time>2018-01-27T12:49:27Z</time>
      </trkpt>
      <trkpt lat="62.63976846877" lon="17.991038822165">
        <ele>42.2</ele>
        <time>2018-01-27T12:49:28Z</time>
      </trkpt>
      <trkpt lat="62.639744915631" lon="17.991079558199">
        <ele>42.6</ele>
        <time>2018-01-27T12:49:29Z</time>
      </trkpt>
      <trkpt lat="62.639737874835" lon="17.991136303662">
        <ele>42.8</ele>
        <time>2018-01-27T12:49:30Z</time>
      </trkpt>
      <trkpt lat="62.639729157659" lon="17.991168741615">
        <ele>42.8</ele>
        <time>2018-01-27T12:49:31Z</time>
      </trkpt>
      <trkpt lat="62.639714154058" lon="17.991243089068">
        <ele>43</ele>
        <time>2018-01-27T12:49:32Z</time>
      </trkpt>
      <trkpt lat="62.639715746619" lon="17.991281142894">
        <ele>43</ele>
        <time>2018-01-27T12:49:33Z</time>
      </trkpt>
      <trkpt lat="62.63970308995" lon="17.991335792882">
        <ele>43.2</ele>
        <time>2018-01-27T12:49:34Z</time>
      </trkpt>
      <trkpt lat="62.639704850149" lon="17.99140050115">
        <ele>43.2</ele>
        <time>2018-01-27T12:49:35Z</time>
      </trkpt>
      <trkpt lat="62.639692277299" lon="17.991457833346">
        <ele>43</ele>
        <time>2018-01-27T12:49:36Z</time>
      </trkpt>
      <trkpt lat="62.639692277299" lon="17.991514830266">
        <ele>43</ele>
        <time>2018-01-27T12:49:37Z</time>
      </trkpt>
      <trkpt lat="62.639673669481" lon="17.991565037847">
        <ele>43</ele>
        <time>2018-01-27T12:49:38Z</time>
      </trkpt>
      <trkpt lat="62.639675345861" lon="17.991615832161">
        <ele>43.2</ele>
        <time>2018-01-27T12:49:39Z</time>
      </trkpt>
      <trkpt lat="62.639658749699" lon="17.991654221263">
        <ele>43.4</ele>
        <time>2018-01-27T12:49:40Z</time>
      </trkpt>
      <trkpt lat="62.639660174622" lon="17.991715241495">
        <ele>43.4</ele>
        <time>2018-01-27T12:49:41Z</time>
      </trkpt>
      <trkpt lat="62.639646344487" lon="17.991764107972">
        <ele>43.8</ele>
        <time>2018-01-27T12:49:42Z</time>
      </trkpt>
      <trkpt lat="62.639647350315" lon="17.991826385489">
        <ele>44</ele>
        <time>2018-01-27T12:49:43Z</time>
      </trkpt>
      <trkpt lat="62.639620276778" lon="17.991875251966">
        <ele>44.2</ele>
        <time>2018-01-27T12:49:44Z</time>
      </trkpt>
      <trkpt lat="62.639627569031" lon="17.991931578334">
        <ele>44.2</ele>
        <time>2018-01-27T12:49:45Z</time>
      </trkpt>
      <trkpt lat="62.639616169647" lon="17.991977427327">
        <ele>44.2</ele>
        <time>2018-01-27T12:49:46Z</time>
      </trkpt>
      <trkpt lat="62.639618097484" lon="17.992050349857">
        <ele>44.2</ele>
        <time>2018-01-27T12:49:47Z</time>
      </trkpt>
      <trkpt lat="62.639602088055" lon="17.992109106976">
        <ele>44.2</ele>
        <time>2018-01-27T12:49:48Z</time>
      </trkpt>
      <trkpt lat="62.639595633992" lon="17.992171216855">
        <ele>44.4</ele>
        <time>2018-01-27T12:49:49Z</time>
      </trkpt>
      <trkpt lat="62.639584150789" lon="17.992217904038">
        <ele>44.4</ele>
        <time>2018-01-27T12:49:50Z</time>
      </trkpt>
      <trkpt lat="62.639570907387" lon="17.992285545971">
        <ele>44.4</ele>
        <time>2018-01-27T12:49:51Z</time>
      </trkpt>
      <trkpt lat="62.639562022573" lon="17.992336256466">
        <ele>44.6</ele>
        <time>2018-01-27T12:49:52Z</time>
      </trkpt>
      <trkpt lat="62.639547605705" lon="17.99240884372">
        <ele>44.4</ele>
        <time>2018-01-27T12:49:53Z</time>
      </trkpt>
      <trkpt lat="62.639544923497" lon="17.992456201455">
        <ele>44.6</ele>
        <time>2018-01-27T12:49:54Z</time>
      </trkpt>
      <trkpt lat="62.639533272656" lon="17.992534907496">
        <ele>44.8</ele>
        <time>2018-01-27T12:49:55Z</time>
      </trkpt>
      <trkpt lat="62.639536122502" lon="17.992569105648">
        <ele>44.8</ele>
        <time>2018-01-27T12:49:56Z</time>
      </trkpt>
      <trkpt lat="62.639525728946" lon="17.992649655707">
        <ele>44.8</ele>
        <time>2018-01-27T12:49:57Z</time>
      </trkpt>
      <trkpt lat="62.639530255172" lon="17.992680836375">
        <ele>45</ele>
        <time>2018-01-27T12:49:58Z</time>
      </trkpt>
      <trkpt lat="62.639529668439" lon="17.992763901004">
        <ele>45.2</ele>
        <time>2018-01-27T12:49:59Z</time>
      </trkpt>
      <trkpt lat="62.639536625416" lon="17.992828693091">
        <ele>45</ele>
        <time>2018-01-27T12:50:00Z</time>
      </trkpt>
      <trkpt lat="62.639532518285" lon="17.9928966703">
        <ele>45.2</ele>
        <time>2018-01-27T12:50:01Z</time>
      </trkpt>
      <trkpt lat="62.639547521886" lon="17.992948721899">
        <ele>45.2</ele>
        <time>2018-01-27T12:50:02Z</time>
      </trkpt>
      <trkpt lat="62.63953629014" lon="17.993027176483">
        <ele>45.2</ele>
        <time>2018-01-27T12:50:03Z</time>
      </trkpt>
      <trkpt lat="62.639538637072" lon="17.993078976625">
        <ele>45.2</ele>
        <time>2018-01-27T12:50:04Z</time>
      </trkpt>
      <trkpt lat="62.639535116674" lon="17.993135051536">
        <ele>45.2</ele>
        <time>2018-01-27T12:50:05Z</time>
      </trkpt>
      <trkpt lat="62.639530171353" lon="17.993196071768">
        <ele>45.2</ele>
        <time>2018-01-27T12:50:06Z</time>
      </trkpt>
      <trkpt lat="62.639527321507" lon="17.993265641538">
        <ele>45.4</ele>
        <time>2018-01-27T12:50:07Z</time>
      </trkpt>
      <trkpt lat="62.639515503028" lon="17.993336384774">
        <ele>45.4</ele>
        <time>2018-01-27T12:50:08Z</time>
      </trkpt>
      <trkpt lat="62.639521789453" lon="17.993406038363">
        <ele>45.6</ele>
        <time>2018-01-27T12:50:09Z</time>
      </trkpt>
      <trkpt lat="62.639507121128" lon="17.993467729147">
        <ele>45.8</ele>
        <time>2018-01-27T12:50:10Z</time>
      </trkpt>
      <trkpt lat="62.639492117527" lon="17.993530090483">
        <ele>45.8</ele>
        <time>2018-01-27T12:50:11Z</time>
      </trkpt>
      <trkpt lat="62.639491111699" lon="17.993598402968">
        <ele>45.8</ele>
        <time>2018-01-27T12:50:12Z</time>
      </trkpt>
      <trkpt lat="62.639468648207" lon="17.993685490909">
        <ele>45.8</ele>
        <time>2018-01-27T12:50:13Z</time>
      </trkpt>
      <trkpt lat="62.639453560787" lon="17.993763023484">
        <ele>45.8</ele>
        <time>2018-01-27T12:50:14Z</time>
      </trkpt>
      <trkpt lat="62.639423469766" lon="17.993813398703">
        <ele>45.8</ele>
        <time>2018-01-27T12:50:15Z</time>
      </trkpt>
      <trkpt lat="62.639404191396" lon="17.993857152221">
        <ele>45.8</ele>
        <time>2018-01-27T12:50:16Z</time>
      </trkpt>
      <trkpt lat="62.639383571922" lon="17.993893948762">
        <ele>46</ele>
        <time>2018-01-27T12:50:17Z</time>
      </trkpt>
      <trkpt lat="62.639355492557" lon="17.993926302896">
        <ele>46</ele>
        <time>2018-01-27T12:50:18Z</time>
      </trkpt>
      <trkpt lat="62.639342249155" lon="17.993986820214">
        <ele>46</ele>
        <time>2018-01-27T12:50:19Z</time>
      </trkpt>
      <trkpt lat="62.639311739039" lon="17.994031076646">
        <ele>46.2</ele>
        <time>2018-01-27T12:50:20Z</time>
      </trkpt>
      <trkpt lat="62.639310481754" lon="17.994083212064">
        <ele>46.2</ele>
        <time>2018-01-27T12:50:21Z</time>
      </trkpt>
      <trkpt lat="62.639286844796" lon="17.994124534831">
        <ele>46.4</ele>
        <time>2018-01-27T12:50:22Z</time>
      </trkpt>
      <trkpt lat="62.63928231857" lon="17.994189075461">
        <ele>46.4</ele>
        <time>2018-01-27T12:50:23Z</time>
      </trkpt>
      <trkpt lat="62.639271170643" lon="17.994240707965">
        <ele>46.6</ele>
        <time>2018-01-27T12:50:24Z</time>
      </trkpt>
      <trkpt lat="62.639245605848" lon="17.994293346297">
        <ele>46.8</ele>
        <time>2018-01-27T12:50:25Z</time>
      </trkpt>
      <trkpt lat="62.639227417125" lon="17.994342799507">
        <ele>47</ele>
        <time>2018-01-27T12:50:26Z</time>
      </trkpt>
      <trkpt lat="62.639217442664" lon="17.994390995432">
        <ele>47.2</ele>
        <time>2018-01-27T12:50:27Z</time>
      </trkpt>
      <trkpt lat="62.63918508853" lon="17.994439945728">
        <ele>47.6</ele>
        <time>2018-01-27T12:50:28Z</time>
      </trkpt>
      <trkpt lat="62.639178047734" lon="17.994486465273">
        <ele>47.6</ele>
        <time>2018-01-27T12:50:29Z</time>
      </trkpt>
      <trkpt lat="62.639159439916" lon="17.994530051153">
        <ele>47.8</ele>
        <time>2018-01-27T12:50:30Z</time>
      </trkpt>
      <trkpt lat="62.639147705256" lon="17.994557376147">
        <ele>47.8</ele>
        <time>2018-01-27T12:50:31Z</time>
      </trkpt>
      <trkpt lat="62.639131695827" lon="17.994597944543">
        <ele>48</ele>
        <time>2018-01-27T12:50:32Z</time>
      </trkpt>
      <trkpt lat="62.639126079954" lon="17.994646643382">
        <ele>48</ele>
        <time>2018-01-27T12:50:33Z</time>
      </trkpt>
      <trkpt lat="62.639098252046" lon="17.994678326964">
        <ele>48.2</ele>
        <time>2018-01-27T12:50:34Z</time>
      </trkpt>
      <trkpt lat="62.639092636173" lon="17.994727780174">
        <ele>48.2</ele>
        <time>2018-01-27T12:50:35Z</time>
      </trkpt>
      <trkpt lat="62.639061623143" lon="17.994761140136">
        <ele>48.4</ele>
        <time>2018-01-27T12:50:36Z</time>
      </trkpt>
      <trkpt lat="62.639058270383" lon="17.994823920567">
        <ele>48.4</ele>
        <time>2018-01-27T12:50:37Z</time>
      </trkpt>
      <trkpt lat="62.639028179362" lon="17.994860800927">
        <ele>48.6</ele>
        <time>2018-01-27T12:50:38Z</time>
      </trkpt>
      <trkpt lat="62.639021473842" lon="17.9949083263">
        <ele>48.4</ele>
        <time>2018-01-27T12:50:39Z</time>
      </trkpt>
      <trkpt lat="62.638991801916" lon="17.994954342931">
        <ele>48.4</ele>
        <time>2018-01-27T12:50:40Z</time>
      </trkpt>
      <trkpt lat="62.638970344252" lon="17.994996000974">
        <ele>48.6</ele>
        <time>2018-01-27T12:50:41Z</time>
      </trkpt>
      <trkpt lat="62.638959363963" lon="17.995037910474">
        <ele>48.6</ele>
        <time>2018-01-27T12:50:42Z</time>
      </trkpt>
      <trkpt lat="62.638932877159" lon="17.995070180789">
        <ele>48.8</ele>
        <time>2018-01-27T12:50:43Z</time>
      </trkpt>
      <trkpt lat="62.638915275169" lon="17.995126423338">
        <ele>49</ele>
        <time>2018-01-27T12:50:44Z</time>
      </trkpt>
      <trkpt lat="62.638898259912" lon="17.995156262902">
        <ele>49.4</ele>
        <time>2018-01-27T12:50:45Z</time>
      </trkpt>
      <trkpt lat="62.63888082556" lon="17.995195322556">
        <ele>49.4</ele>
        <time>2018-01-27T12:50:46Z</time>
      </trkpt>
      <trkpt lat="62.638869007081" lon="17.995239914264">
        <ele>49.6</ele>
        <time>2018-01-27T12:50:47Z</time>
      </trkpt>
      <trkpt lat="62.638831959083" lon="17.995282829592">
        <ele>49.6</ele>
        <time>2018-01-27T12:50:48Z</time>
      </trkpt>
      <trkpt lat="62.638809160315" lon="17.995318536486">
        <ele>49.8</ele>
        <time>2018-01-27T12:50:49Z</time>
      </trkpt>
      <trkpt lat="62.63879616837" lon="17.995360529805">
        <ele>49.8</ele>
        <time>2018-01-27T12:50:50Z</time>
      </trkpt>
      <trkpt lat="62.638768340462" lon="17.995394392681">
        <ele>50</ele>
        <time>2018-01-27T12:50:51Z</time>
      </trkpt>
      <trkpt lat="62.63874671516" lon="17.995446695737">
        <ele>50</ele>
        <time>2018-01-27T12:50:52Z</time>
      </trkpt>
      <trkpt lat="62.638738417079" lon="17.995488689056">
        <ele>50.2</ele>
        <time>2018-01-27T12:50:53Z</time>
      </trkpt>
      <trkpt lat="62.638700363253" lon="17.995538058447">
        <ele>50.4</ele>
        <time>2018-01-27T12:50:54Z</time>
      </trkpt>
      <trkpt lat="62.638683347996" lon="17.995607292941">
        <ele>50.4</ele>
        <time>2018-01-27T12:50:55Z</time>
      </trkpt>
      <trkpt lat="62.63866373435" lon="17.995640820541">
        <ele>50.4</ele>
        <time>2018-01-27T12:50:56Z</time>
      </trkpt>
      <trkpt lat="62.638634230062" lon="17.995712569605">
        <ele>50.6</ele>
        <time>2018-01-27T12:50:57Z</time>
      </trkpt>
      <trkpt lat="62.638611934208" lon="17.995760178797">
        <ele>50.6</ele>
        <time>2018-01-27T12:50:58Z</time>
      </trkpt>
      <trkpt lat="62.63859584096" lon="17.995796053329">
        <ele>50.6</ele>
        <time>2018-01-27T12:50:59Z</time>
      </trkpt>
      <trkpt lat="62.638560553161" lon="17.995858582303">
        <ele>50.8</ele>
        <time>2018-01-27T12:51:00Z</time>
      </trkpt>
      <trkpt lat="62.638553344727" lon="17.995927397702">
        <ele>50.8</ele>
        <time>2018-01-27T12:51:01Z</time>
      </trkpt>
      <trkpt lat="62.638516464367" lon="17.995952794859">
        <ele>50.8</ele>
        <time>2018-01-27T12:51:02Z</time>
      </trkpt>
      <trkpt lat="62.638512105779" lon="17.995994117626">
        <ele>51</ele>
        <time>2018-01-27T12:51:03Z</time>
      </trkpt>
      <trkpt lat="62.63848436169" lon="17.996019095688">
        <ele>51</ele>
        <time>2018-01-27T12:51:04Z</time>
      </trkpt>
      <trkpt lat="62.638473129944" lon="17.996066034328">
        <ele>51</ele>
        <time>2018-01-27T12:51:05Z</time>
      </trkpt>
      <trkpt lat="62.638454605945" lon="17.996091766761">
        <ele>51.2</ele>
        <time>2018-01-27T12:51:06Z</time>
      </trkpt>
      <trkpt lat="62.638428286779" lon="17.996156642667">
        <ele>51.4</ele>
        <time>2018-01-27T12:51:07Z</time>
      </trkpt>
      <trkpt lat="62.638416552119" lon="17.996211963207">
        <ele>51.6</ele>
        <time>2018-01-27T12:51:08Z</time>
      </trkpt>
      <trkpt lat="62.63838796984" lon="17.996240294029">
        <ele>51.8</ele>
        <time>2018-01-27T12:51:09Z</time>
      </trkpt>
      <trkpt lat="62.638374726438" lon="17.996285388651">
        <ele>52.2</ele>
        <time>2018-01-27T12:51:10Z</time>
      </trkpt>
      <trkpt lat="62.638355196611" lon="17.996326376142">
        <ele>52.2</ele>
        <time>2018-01-27T12:51:11Z</time>
      </trkpt>
      <trkpt lat="62.638316891328" lon="17.996387061098">
        <ele>52.4</ele>
        <time>2018-01-27T12:51:12Z</time>
      </trkpt>
      <trkpt lat="62.638311526912" lon="17.99641203916">
        <ele>52.4</ele>
        <time>2018-01-27T12:51:13Z</time>
      </trkpt>
      <trkpt lat="62.638288057592" lon="17.99645311047">
        <ele>52.4</ele>
        <time>2018-01-27T12:51:14Z</time>
      </trkpt>
      <trkpt lat="62.63827984333" lon="17.996498875644">
        <ele>52.4</ele>
        <time>2018-01-27T12:51:15Z</time>
      </trkpt>
      <trkpt lat="62.638250339042" lon="17.996509939752">
        <ele>52.6</ele>
        <time>2018-01-27T12:51:16Z</time>
      </trkpt>
      <trkpt lat="62.638236676545" lon="17.996559979695">
        <ele>52.6</ele>
        <time>2018-01-27T12:51:17Z</time>
      </trkpt>
      <trkpt lat="62.638202562212" lon="17.996591160363">
        <ele>52.6</ele>
        <time>2018-01-27T12:51:18Z</time>
      </trkpt>
      <trkpt lat="62.638183702937" lon="17.996637093175">
        <ele>52.8</ele>
        <time>2018-01-27T12:51:19Z</time>
      </trkpt>
      <trkpt lat="62.638168196422" lon="17.996670704594">
        <ele>52.8</ele>
        <time>2018-01-27T12:51:20Z</time>
      </trkpt>
      <trkpt lat="62.638140284695" lon="17.996702723452">
        <ele>52.8</ele>
        <time>2018-01-27T12:51:21Z</time>
      </trkpt>
      <trkpt lat="62.638126706017" lon="17.996738514165">
        <ele>52.8</ele>
        <time>2018-01-27T12:51:22Z</time>
      </trkpt>
      <trkpt lat="62.638094184245" lon="17.996784614615">
        <ele>53</ele>
        <time>2018-01-27T12:51:23Z</time>
      </trkpt>
      <trkpt lat="62.638066775432" lon="17.996823171355">
        <ele>53</ele>
        <time>2018-01-27T12:51:24Z</time>
      </trkpt>
      <trkpt lat="62.638039701895" lon="17.996837336766">
        <ele>53</ele>
        <time>2018-01-27T12:51:25Z</time>
      </trkpt>
      <trkpt lat="62.638020088249" lon="17.9968696909">
        <ele>53.2</ele>
        <time>2018-01-27T12:51:26Z</time>
      </trkpt>
      <trkpt lat="62.638008353589" lon="17.996894082229">
        <ele>53.4</ele>
        <time>2018-01-27T12:51:27Z</time>
      </trkpt>
      <trkpt lat="62.637979352215" lon="17.996925346716">
        <ele>53.6</ele>
        <time>2018-01-27T12:51:28Z</time>
      </trkpt>
      <trkpt lat="62.637953871239" lon="17.996947223475">
        <ele>53.8</ele>
        <time>2018-01-27T12:51:29Z</time>
      </trkpt>
      <trkpt lat="62.63792445077" lon="17.996972285356">
        <ele>54</ele>
        <time>2018-01-27T12:51:30Z</time>
      </trkpt>
      <trkpt lat="62.637917661431" lon="17.997000867635">
        <ele>54.2</ele>
        <time>2018-01-27T12:51:31Z</time>
      </trkpt>
      <trkpt lat="62.637893102464" lon="17.997031964484">
        <ele>54.4</ele>
        <time>2018-01-27T12:51:32Z</time>
      </trkpt>
      <trkpt lat="62.637871896257" lon="17.997086865929">
        <ele>54.4</ele>
        <time>2018-01-27T12:51:33Z</time>
      </trkpt>
      <trkpt lat="62.637847002014" lon="17.997126344678">
        <ele>54.8</ele>
        <time>2018-01-27T12:51:34Z</time>
      </trkpt>
      <trkpt lat="62.637835518811" lon="17.99715132274">
        <ele>54.8</ele>
        <time>2018-01-27T12:51:35Z</time>
      </trkpt>
      <trkpt lat="62.63781213331" lon="17.997191639679">
        <ele>55</ele>
        <time>2018-01-27T12:51:36Z</time>
      </trkpt>
      <trkpt lat="62.637784137764" lon="17.997233297722">
        <ele>55.2</ele>
        <time>2018-01-27T12:51:37Z</time>
      </trkpt>
      <trkpt lat="62.637765278489" lon="17.997275542498">
        <ele>55.2</ele>
        <time>2018-01-27T12:51:38Z</time>
      </trkpt>
      <trkpt lat="62.637749352879" lon="17.997323570785">
        <ele>55.4</ele>
        <time>2018-01-27T12:51:39Z</time>
      </trkpt>
      <trkpt lat="62.637737282943" lon="17.997380316248">
        <ele>55.2</ele>
        <time>2018-01-27T12:51:40Z</time>
      </trkpt>
      <trkpt lat="62.637717501659" lon="17.997439576281">
        <ele>55.2</ele>
        <time>2018-01-27T12:51:41Z</time>
      </trkpt>
      <trkpt lat="62.637704677352" lon="17.997487856025">
        <ele>55.2</ele>
        <time>2018-01-27T12:51:42Z</time>
      </trkpt>
      <trkpt lat="62.637698810022" lon="17.997534627027">
        <ele>55.2</ele>
        <time>2018-01-27T12:51:43Z</time>
      </trkpt>
      <trkpt lat="62.637677603815" lon="17.997590115205">
        <ele>55.4</ele>
        <time>2018-01-27T12:51:44Z</time>
      </trkpt>
      <trkpt lat="62.637661510567" lon="17.997653314731">
        <ele>55.2</ele>
        <time>2018-01-27T12:51:45Z</time>
      </trkpt>
      <trkpt lat="62.637653463943" lon="17.997691703833">
        <ele>55.4</ele>
        <time>2018-01-27T12:51:46Z</time>
      </trkpt>
      <trkpt lat="62.637630748994" lon="17.997757082653">
        <ele>55.4</ele>
        <time>2018-01-27T12:51:47Z</time>
      </trkpt>
      <trkpt lat="62.637623624379" lon="17.997810056261">
        <ele>55.4</ele>
        <time>2018-01-27T12:51:48Z</time>
      </trkpt>
      <trkpt lat="62.637599484507" lon="17.997862024041">
        <ele>55.6</ele>
        <time>2018-01-27T12:51:49Z</time>
      </trkpt>
      <trkpt lat="62.637589845322" lon="17.997911141975">
        <ele>55.6</ele>
        <time>2018-01-27T12:51:50Z</time>
      </trkpt>
      <trkpt lat="62.637571321323" lon="17.997952129466">
        <ele>55.6</ele>
        <time>2018-01-27T12:51:51Z</time>
      </trkpt>
      <trkpt lat="62.637550785668" lon="17.998003845789">
        <ele>55.6</ele>
        <time>2018-01-27T12:51:52Z</time>
      </trkpt>
      <trkpt lat="62.637530585289" lon="17.998089173531">
        <ele>55.4</ele>
        <time>2018-01-27T12:51:53Z</time>
      </trkpt>
      <trkpt lat="62.637493118196" lon="17.99813032866">
        <ele>55.4</ele>
        <time>2018-01-27T12:51:54Z</time>
      </trkpt>
      <trkpt lat="62.637470319428" lon="17.998166538468">
        <ele>55.4</ele>
        <time>2018-01-27T12:51:55Z</time>
      </trkpt>
      <trkpt lat="62.637458584768" lon="17.998178608404">
        <ele>55.4</ele>
        <time>2018-01-27T12:51:56Z</time>
      </trkpt>
      <trkpt lat="62.637428996661" lon="17.998216578411">
        <ele>55.6</ele>
        <time>2018-01-27T12:51:57Z</time>
      </trkpt>
      <trkpt lat="62.637410137386" lon="17.998235856781">
        <ele>55.8</ele>
        <time>2018-01-27T12:51:58Z</time>
      </trkpt>
      <trkpt lat="62.637387925351" lon="17.998273910607">
        <ele>55.8</ele>
        <time>2018-01-27T12:51:59Z</time>
      </trkpt>
      <trkpt lat="62.637371496827" lon="17.998312551166">
        <ele>56</ele>
        <time>2018-01-27T12:52:00Z</time>
      </trkpt>
      <trkpt lat="62.637337801589" lon="17.998357645788">
        <ele>56.2</ele>
        <time>2018-01-27T12:52:01Z</time>
      </trkpt>
      <trkpt lat="62.637318271762" lon="17.998403327143">
        <ele>56.4</ele>
        <time>2018-01-27T12:52:02Z</time>
      </trkpt>
      <trkpt lat="62.637308129663" lon="17.998451187792">
        <ele>56.4</ele>
        <time>2018-01-27T12:52:03Z</time>
      </trkpt>
      <trkpt lat="62.637287007275" lon="17.998500054269">
        <ele>56.4</ele>
        <time>2018-01-27T12:52:04Z</time>
      </trkpt>
      <trkpt lat="62.637271836036" lon="17.998533330412">
        <ele>56.6</ele>
        <time>2018-01-27T12:52:05Z</time>
      </trkpt>
      <trkpt lat="62.637244259585" lon="17.998600134155">
        <ele>56.6</ele>
        <time>2018-01-27T12:52:06Z</time>
      </trkpt>
      <trkpt lat="62.637223975387" lon="17.998663668957">
        <ele>56.6</ele>
        <time>2018-01-27T12:52:07Z</time>
      </trkpt>
      <trkpt lat="62.637207295406" lon="17.998705494638">
        <ele>56.6</ele>
        <time>2018-01-27T12:52:08Z</time>
      </trkpt>
      <trkpt lat="62.637180640964" lon="17.998740028066">
        <ele>56.6</ele>
        <time>2018-01-27T12:52:09Z</time>
      </trkpt>
      <trkpt lat="62.637145353165" lon="17.998793672226">
        <ele>56.6</ele>
        <time>2018-01-27T12:52:10Z</time>
      </trkpt>
      <trkpt lat="62.637142503319" lon="17.99882015903">
        <ele>56.4</ele>
        <time>2018-01-27T12:52:11Z</time>
      </trkpt>
      <trkpt lat="62.637117106162" lon="17.99885033387">
        <ele>56.4</ele>
        <time>2018-01-27T12:52:12Z</time>
      </trkpt>
      <trkpt lat="62.637097241059" lon="17.998914623043">
        <ele>56.4</ele>
        <time>2018-01-27T12:52:13Z</time>
      </trkpt>
      <trkpt lat="62.637078633241" lon="17.998961561683">
        <ele>56.6</ele>
        <time>2018-01-27T12:52:14Z</time>
      </trkpt>
      <trkpt lat="62.637058768138" lon="17.998972625791">
        <ele>56.6</ele>
        <time>2018-01-27T12:52:15Z</time>
      </trkpt>
      <trkpt lat="62.637031275506" lon="17.998996598025">
        <ele>56.8</ele>
        <time>2018-01-27T12:52:16Z</time>
      </trkpt>
      <trkpt lat="62.637012248593" lon="17.999044207217">
        <ele>57</ele>
        <time>2018-01-27T12:52:17Z</time>
      </trkpt>
      <trkpt lat="62.636992132033" lon="17.999088128373">
        <ele>57.2</ele>
        <time>2018-01-27T12:52:18Z</time>
      </trkpt>
      <trkpt lat="62.636963717392" lon="17.999121739792">
        <ele>57.2</ele>
        <time>2018-01-27T12:52:19Z</time>
      </trkpt>
      <trkpt lat="62.636946953592" lon="17.999158536333">
        <ele>57.4</ele>
        <time>2018-01-27T12:52:20Z</time>
      </trkpt>
      <trkpt lat="62.636930944163" lon="17.999176808875">
        <ele>57.8</ele>
        <time>2018-01-27T12:52:21Z</time>
      </trkpt>
      <trkpt lat="62.636904792635" lon="17.999209330647">
        <ele>57.8</ele>
        <time>2018-01-27T12:52:22Z</time>
      </trkpt>
      <trkpt lat="62.636878641107" lon="17.999257610391">
        <ele>58</ele>
        <time>2018-01-27T12:52:23Z</time>
      </trkpt>
      <trkpt lat="62.636854249778" lon="17.999286108851">
        <ele>58.2</ele>
        <time>2018-01-27T12:52:24Z</time>
      </trkpt>
      <trkpt lat="62.636832875933" lon="17.999321145193">
        <ele>58.2</ele>
        <time>2018-01-27T12:52:25Z</time>
      </trkpt>
      <trkpt lat="62.636808400785" lon="17.999353164051">
        <ele>58.4</ele>
        <time>2018-01-27T12:52:26Z</time>
      </trkpt>
      <trkpt lat="62.636786104931" lon="17.999388787126">
        <ele>58.6</ele>
        <time>2018-01-27T12:52:27Z</time>
      </trkpt>
      <trkpt lat="62.636770179321" lon="17.999422147088">
        <ele>58.8</ele>
        <time>2018-01-27T12:52:28Z</time>
      </trkpt>
      <trkpt lat="62.636743692517" lon="17.999470175375">
        <ele>58.8</ele>
        <time>2018-01-27T12:52:29Z</time>
      </trkpt>
      <trkpt lat="62.636723492138" lon="17.999512336332">
        <ele>58.8</ele>
        <time>2018-01-27T12:52:30Z</time>
      </trkpt>
      <trkpt lat="62.636697759705" lon="17.999554581108">
        <ele>59</ele>
        <time>2018-01-27T12:52:31Z</time>
      </trkpt>
      <trkpt lat="62.636671524358" lon="17.999626246353">
        <ele>59</ele>
        <time>2018-01-27T12:52:32Z</time>
      </trkpt>
      <trkpt lat="62.636657191309" lon="17.999682907997">
        <ele>59.2</ele>
        <time>2018-01-27T12:52:33Z</time>
      </trkpt>
      <trkpt lat="62.636638834948" lon="17.999745939885">
        <ele>59.4</ele>
        <time>2018-01-27T12:52:34Z</time>
      </trkpt>
      <trkpt lat="62.636622154967" lon="17.999812911266">
        <ele>59.4</ele>
        <time>2018-01-27T12:52:35Z</time>
      </trkpt>
      <trkpt lat="62.636611090859" lon="17.999877870991">
        <ele>59.4</ele>
        <time>2018-01-27T12:52:36Z</time>
      </trkpt>
      <trkpt lat="62.636587202444" lon="17.999946518752">
        <ele>59.4</ele>
        <time>2018-01-27T12:52:37Z</time>
      </trkpt>
      <trkpt lat="62.636570103368" lon="17.999997480704">
        <ele>59.2</ele>
        <time>2018-01-27T12:52:38Z</time>
      </trkpt>
      <trkpt lat="62.636560631821" lon="18.000042910602">
        <ele>59</ele>
        <time>2018-01-27T12:52:39Z</time>
      </trkpt>
      <trkpt lat="62.636548813342" lon="18.000093872554">
        <ele>59</ele>
        <time>2018-01-27T12:52:40Z</time>
      </trkpt>
      <trkpt lat="62.636530121705" lon="18.000155228062">
        <ele>59</ele>
        <time>2018-01-27T12:52:41Z</time>
      </trkpt>
      <trkpt lat="62.636520147244" lon="18.000208117851">
        <ele>59</ele>
        <time>2018-01-27T12:52:42Z</time>
      </trkpt>
      <trkpt lat="62.63650204234" lon="18.00026016945">
        <ele>59</ele>
        <time>2018-01-27T12:52:43Z</time>
      </trkpt>
      <trkpt lat="62.636491062051" lon="18.000322027872">
        <ele>59.2</ele>
        <time>2018-01-27T12:52:44Z</time>
      </trkpt>
      <trkpt lat="62.636469269111" lon="18.000377683688">
        <ele>59.2</ele>
        <time>2018-01-27T12:52:45Z</time>
      </trkpt>
      <trkpt lat="62.636450326017" lon="18.000438620101">
        <ele>59.2</ele>
        <time>2018-01-27T12:52:46Z</time>
      </trkpt>
      <trkpt lat="62.636441022108" lon="18.000489498234">
        <ele>59.2</ele>
        <time>2018-01-27T12:52:47Z</time>
      </trkpt>
      <trkpt lat="62.636426186145" lon="18.000551440475">
        <ele>59.2</ele>
        <time>2018-01-27T12:52:48Z</time>
      </trkpt>
      <trkpt lat="62.636405818128" lon="18.000607096291">
        <ele>59.2</ele>
        <time>2018-01-27T12:52:49Z</time>
      </trkpt>
      <trkpt lat="62.636385031016" lon="18.000645150117">
        <ele>59.2</ele>
        <time>2018-01-27T12:52:50Z</time>
      </trkpt>
      <trkpt lat="62.636370195053" lon="18.000695022422">
        <ele>59.2</ele>
        <time>2018-01-27T12:52:51Z</time>
      </trkpt>
      <trkpt lat="62.636352425425" lon="18.00075973069">
        <ele>59.4</ele>
        <time>2018-01-27T12:52:52Z</time>
      </trkpt>
      <trkpt lat="62.636320658024" lon="18.000816559972">
        <ele>59.4</ele>
        <time>2018-01-27T12:52:53Z</time>
      </trkpt>
      <trkpt lat="62.636290064089" lon="18.000884285724">
        <ele>59.4</ele>
        <time>2018-01-27T12:52:54Z</time>
      </trkpt>
      <trkpt lat="62.636277155963" lon="18.000928961251">
        <ele>59.4</ele>
        <time>2018-01-27T12:52:55Z</time>
      </trkpt>
      <trkpt lat="62.636254608652" lon="18.00099023294">
        <ele>59.4</ele>
        <time>2018-01-27T12:52:56Z</time>
      </trkpt>
      <trkpt lat="62.636239437413" lon="18.001048654783">
        <ele>59.4</ele>
        <time>2018-01-27T12:52:57Z</time>
      </trkpt>
      <trkpt lat="62.636241281431" lon="18.00111260868">
        <ele>59.4</ele>
        <time>2018-01-27T12:52:58Z</time>
      </trkpt>
      <trkpt lat="62.63620951403" lon="18.001172623084">
        <ele>59.4</ele>
        <time>2018-01-27T12:52:59Z</time>
      </trkpt>
      <trkpt lat="62.636202976148" lon="18.00125845374">
        <ele>59.4</ele>
        <time>2018-01-27T12:53:00Z</time>
      </trkpt>
      <trkpt lat="62.636166850159" lon="18.001322575275">
        <ele>59.4</ele>
        <time>2018-01-27T12:53:01Z</time>
      </trkpt>
      <trkpt lat="62.636142375011" lon="18.001390133389">
        <ele>59.4</ele>
        <time>2018-01-27T12:53:02Z</time>
      </trkpt>
      <trkpt lat="62.636116391121" lon="18.001438916047">
        <ele>59.2</ele>
        <time>2018-01-27T12:53:03Z</time>
      </trkpt>
      <trkpt lat="62.636099794959" lon="18.001490967646">
        <ele>59.2</ele>
        <time>2018-01-27T12:53:04Z</time>
      </trkpt>
      <trkpt lat="62.636080181313" lon="18.001580653976">
        <ele>59.4</ele>
        <time>2018-01-27T12:53:05Z</time>
      </trkpt>
      <trkpt lat="62.636051850491" lon="18.001641758027">
        <ele>59.4</ele>
        <time>2018-01-27T12:53:06Z</time>
      </trkpt>
      <trkpt lat="62.636040367288" lon="18.001713339453">
        <ele>59.6</ele>
        <time>2018-01-27T12:53:07Z</time>
      </trkpt>
      <trkpt lat="62.636005917679" lon="18.001765726328">
        <ele>59.6</ele>
        <time>2018-01-27T12:53:08Z</time>
      </trkpt>
      <trkpt lat="62.635977419219" lon="18.001835463736">
        <ele>59.6</ele>
        <time>2018-01-27T12:53:09Z</time>
      </trkpt>
      <trkpt lat="62.635950094225" lon="18.001877457055">
        <ele>59.6</ele>
        <time>2018-01-27T12:53:10Z</time>
      </trkpt>
      <trkpt lat="62.635918913557" lon="18.001938644925">
        <ele>59.6</ele>
        <time>2018-01-27T12:53:11Z</time>
      </trkpt>
      <trkpt lat="62.635897874988" lon="18.00200276646">
        <ele>59.6</ele>
        <time>2018-01-27T12:53:12Z</time>
      </trkpt>
      <trkpt lat="62.635861581361" lon="18.002070156936">
        <ele>59.6</ele>
        <time>2018-01-27T12:53:13Z</time>
      </trkpt>
      <trkpt lat="62.635822186431" lon="18.002129836064">
        <ele>59.8</ele>
        <time>2018-01-27T12:53:14Z</time>
      </trkpt>
      <trkpt lat="62.63579963912" lon="18.002185324242">
        <ele>59.8</ele>
        <time>2018-01-27T12:53:15Z</time>
      </trkpt>
      <trkpt lat="62.635769883375" lon="18.002251876528">
        <ele>59.8</ele>
        <time>2018-01-27T12:53:16Z</time>
      </trkpt>
      <trkpt lat="62.635757645801" lon="18.002320608108">
        <ele>59.8</ele>
        <time>2018-01-27T12:53:17Z</time>
      </trkpt>
      <trkpt lat="62.635741887829" lon="18.002409959162">
        <ele>59.8</ele>
        <time>2018-01-27T12:53:18Z</time>
      </trkpt>
      <trkpt lat="62.635717831776" lon="18.002498220569">
        <ele>59.8</ele>
        <time>2018-01-27T12:53:19Z</time>
      </trkpt>
      <trkpt lat="62.635716155396" lon="18.002561420095">
        <ele>59.6</ele>
        <time>2018-01-27T12:53:20Z</time>
      </trkpt>
      <trkpt lat="62.63569486537" lon="18.002626882734">
        <ele>59.6</ele>
        <time>2018-01-27T12:53:21Z</time>
      </trkpt>
      <trkpt lat="62.635676760466" lon="18.00269175864">
        <ele>59.4</ele>
        <time>2018-01-27T12:53:22Z</time>
      </trkpt>
      <trkpt lat="62.635655638078" lon="18.002801645349">
        <ele>59</ele>
        <time>2018-01-27T12:53:23Z</time>
      </trkpt>
      <trkpt lat="62.63562613379" lon="18.002908598393">
        <ele>58.8</ele>
        <time>2018-01-27T12:53:24Z</time>
      </trkpt>
      <trkpt lat="62.635597216235" lon="18.00299099247">
        <ele>58.2</ele>
        <time>2018-01-27T12:53:25Z</time>
      </trkpt>
      <trkpt lat="62.635576429123" lon="18.003073805642">
        <ele>57.8</ele>
        <time>2018-01-27T12:53:26Z</time>
      </trkpt>
      <trkpt lat="62.63554650574" lon="18.003170029854">
        <ele>57.2</ele>
        <time>2018-01-27T12:53:27Z</time>
      </trkpt>
      <trkpt lat="62.635517588185" lon="18.003257788347">
        <ele>57.2</ele>
        <time>2018-01-27T12:53:28Z</time>
      </trkpt>
      <trkpt lat="62.635489676458" lon="18.003354012559">
        <ele>57</ele>
        <time>2018-01-27T12:53:29Z</time>
      </trkpt>
      <trkpt lat="62.635472158287" lon="18.003441184319">
        <ele>57</ele>
        <time>2018-01-27T12:53:30Z</time>
      </trkpt>
      <trkpt lat="62.635440223248" lon="18.003556100168">
        <ele>57.2</ele>
        <time>2018-01-27T12:53:31Z</time>
      </trkpt>
      <trkpt lat="62.635418430308" lon="18.003650983276">
        <ele>57</ele>
        <time>2018-01-27T12:53:32Z</time>
      </trkpt>
      <trkpt lat="62.635377610455" lon="18.003745447289">
        <ele>56.6</ele>
        <time>2018-01-27T12:53:33Z</time>
      </trkpt>
      <trkpt lat="62.635355063144" lon="18.003852903247">
        <ele>56.4</ele>
        <time>2018-01-27T12:53:34Z</time>
      </trkpt>
      <trkpt lat="62.635344753407" lon="18.003933285668">
        <ele>56.4</ele>
        <time>2018-01-27T12:53:35Z</time>
      </trkpt>
      <trkpt lat="62.63532270901" lon="18.004034203744">
        <ele>56</ele>
        <time>2018-01-27T12:53:36Z</time>
      </trkpt>
      <trkpt lat="62.63531767987" lon="18.004135289458">
        <ele>55.8</ele>
        <time>2018-01-27T12:53:37Z</time>
      </trkpt>
      <trkpt lat="62.635293623817" lon="18.004218773182">
        <ele>56</ele>
        <time>2018-01-27T12:53:38Z</time>
      </trkpt>
      <trkpt lat="62.635271327963" lon="18.004327151149">
        <ele>56</ele>
        <time>2018-01-27T12:53:39Z</time>
      </trkpt>
      <trkpt lat="62.635256659638" lon="18.004398648756">
        <ele>55.8</ele>
        <time>2018-01-27T12:53:40Z</time>
      </trkpt>
      <trkpt lat="62.635221790934" lon="18.004476013693">
        <ele>55.6</ele>
        <time>2018-01-27T12:53:41Z</time>
      </trkpt>
      <trkpt lat="62.63518524585" lon="18.004566119118">
        <ele>55.6</ele>
        <time>2018-01-27T12:53:42Z</time>
      </trkpt>
      <trkpt lat="62.635151885888" lon="18.004624038047">
        <ele>55.6</ele>
        <time>2018-01-27T12:53:43Z</time>
      </trkpt>
      <trkpt lat="62.635119950849" lon="18.004685393555">
        <ele>55.6</ele>
        <time>2018-01-27T12:53:44Z</time>
      </trkpt>
      <trkpt lat="62.635089021638" lon="18.004746749063">
        <ele>55.6</ele>
        <time>2018-01-27T12:53:45Z</time>
      </trkpt>
      <trkpt lat="62.635061529006" lon="18.004791089314">
        <ele>55.6</ele>
        <time>2018-01-27T12:53:46Z</time>
      </trkpt>
      <trkpt lat="62.635025403017" lon="18.00486518531">
        <ele>55.8</ele>
        <time>2018-01-27T12:53:47Z</time>
      </trkpt>
      <trkpt lat="62.635006879018" lon="18.004922266049">
        <ele>55.8</ele>
        <time>2018-01-27T12:53:48Z</time>
      </trkpt>
      <trkpt lat="62.634972261771" lon="18.004965600472">
        <ele>56</ele>
        <time>2018-01-27T12:53:49Z</time>
      </trkpt>
      <trkpt lat="62.634943930949" lon="18.005014886044">
        <ele>56</ele>
        <time>2018-01-27T12:53:50Z</time>
      </trkpt>
      <trkpt lat="62.634930687547" lon="18.005053023689">
        <ele>56.2</ele>
        <time>2018-01-27T12:53:51Z</time>
      </trkpt>
      <trkpt lat="62.634900764164" lon="18.00512167145">
        <ele>56.2</ele>
        <time>2018-01-27T12:53:52Z</time>
      </trkpt>
      <trkpt lat="62.634880815242" lon="18.005183529872">
        <ele>56.2</ele>
        <time>2018-01-27T12:53:53Z</time>
      </trkpt>
      <trkpt lat="62.634853490248" lon="18.005240778249">
        <ele>56.2</ele>
        <time>2018-01-27T12:53:54Z</time>
      </trkpt>
      <trkpt lat="62.634828093091" lon="18.005306576164">
        <ele>56.2</ele>
        <time>2018-01-27T12:53:55Z</time>
      </trkpt>
      <trkpt lat="62.634805294323" lon="18.005338511203">
        <ele>56.4</ele>
        <time>2018-01-27T12:53:56Z</time>
      </trkpt>
      <trkpt lat="62.634782830831" lon="18.005383522006">
        <ele>56.4</ele>
        <time>2018-01-27T12:53:57Z</time>
      </trkpt>
      <trkpt lat="62.634755841113" lon="18.005415121769">
        <ele>56.4</ele>
        <time>2018-01-27T12:53:58Z</time>
      </trkpt>
      <trkpt lat="62.634723486979" lon="18.005431550293">
        <ele>56.4</ele>
        <time>2018-01-27T12:53:59Z</time>
      </trkpt>
      <trkpt lat="62.634695994347" lon="18.005461725133">
        <ele>56.4</ele>
        <time>2018-01-27T12:54:00Z</time>
      </trkpt>
      <trkpt lat="62.634681326022" lon="18.005489217765">
        <ele>56.4</ele>
        <time>2018-01-27T12:54:01Z</time>
      </trkpt>
      <trkpt lat="62.634650229173" lon="18.005518219139">
        <ele>56.4</ele>
        <time>2018-01-27T12:54:02Z</time>
      </trkpt>
      <trkpt lat="62.634624915835" lon="18.005541017907">
        <ele>56.4</ele>
        <time>2018-01-27T12:54:03Z</time>
      </trkpt>
      <trkpt lat="62.634613348813" lon="18.00558016138">
        <ele>56.6</ele>
        <time>2018-01-27T12:54:04Z</time>
      </trkpt>
      <trkpt lat="62.634585688543" lon="18.005606480546">
        <ele>56.6</ele>
        <time>2018-01-27T12:54:05Z</time>
      </trkpt>
      <trkpt lat="62.634568254191" lon="18.005644199096">
        <ele>56.6</ele>
        <time>2018-01-27T12:54:06Z</time>
      </trkpt>
      <trkpt lat="62.634558615006" lon="18.005678648705">
        <ele>56.8</ele>
        <time>2018-01-27T12:54:07Z</time>
      </trkpt>
      <trkpt lat="62.634533553125" lon="18.005724581517">
        <ele>56.8</ele>
        <time>2018-01-27T12:54:08Z</time>
      </trkpt>
      <trkpt lat="62.634521064094" lon="18.005764646999">
        <ele>57</ele>
        <time>2018-01-27T12:54:09Z</time>
      </trkpt>
      <trkpt lat="62.634510754357" lon="18.005803874291">
        <ele>57.2</ele>
        <time>2018-01-27T12:54:10Z</time>
      </trkpt>
      <trkpt lat="62.634483345544" lon="18.005859362469">
        <ele>57.2</ele>
        <time>2018-01-27T12:54:11Z</time>
      </trkpt>
      <trkpt lat="62.634462809889" lon="18.005912168439">
        <ele>57.2</ele>
        <time>2018-01-27T12:54:12Z</time>
      </trkpt>
      <trkpt lat="62.634441268406" lon="18.005955586681">
        <ele>57.4</ele>
        <time>2018-01-27T12:54:13Z</time>
      </trkpt>
      <trkpt lat="62.634413691955" lon="18.006016103999">
        <ele>57.4</ele>
        <time>2018-01-27T12:54:14Z</time>
      </trkpt>
      <trkpt lat="62.634399442725" lon="18.006068407055">
        <ele>57.4</ele>
        <time>2018-01-27T12:54:15Z</time>
      </trkpt>
      <trkpt lat="62.634371279541" lon="18.006124901061">
        <ele>57.2</ele>
        <time>2018-01-27T12:54:16Z</time>
      </trkpt>
      <trkpt lat="62.634361221261" lon="18.006170163321">
        <ele>57.2</ele>
        <time>2018-01-27T12:54:17Z</time>
      </trkpt>
      <trkpt lat="62.634323251254" lon="18.006219029798">
        <ele>57.4</ele>
        <time>2018-01-27T12:54:18Z</time>
      </trkpt>
      <trkpt lat="62.634298524649" lon="18.006270327026">
        <ele>57.4</ele>
        <time>2018-01-27T12:54:19Z</time>
      </trkpt>
      <trkpt lat="62.634285951799" lon="18.006307542662">
        <ele>57.6</ele>
        <time>2018-01-27T12:54:20Z</time>
      </trkpt>
      <trkpt lat="62.634266254334" lon="18.006358336976">
        <ele>57.6</ele>
        <time>2018-01-27T12:54:21Z</time>
      </trkpt>
      <trkpt lat="62.634252424199" lon="18.006415501534">
        <ele>57.6</ele>
        <time>2018-01-27T12:54:22Z</time>
      </trkpt>
      <trkpt lat="62.634225769757" lon="18.006467636952">
        <ele>57.6</ele>
        <time>2018-01-27T12:54:23Z</time>
      </trkpt>
      <trkpt lat="62.634211352889" lon="18.006516251972">
        <ele>57.4</ele>
        <time>2018-01-27T12:54:24Z</time>
      </trkpt>
      <trkpt lat="62.634188302664" lon="18.006558077653">
        <ele>57.4</ele>
        <time>2018-01-27T12:54:25Z</time>
      </trkpt>
      <trkpt lat="62.634164833344" lon="18.00661532603">
        <ele>57.4</ele>
        <time>2018-01-27T12:54:26Z</time>
      </trkpt>
      <trkpt lat="62.634153182503" lon="18.0066597501">
        <ele>57.4</ele>
        <time>2018-01-27T12:54:27Z</time>
      </trkpt>
      <trkpt lat="62.634128707355" lon="18.006708281301">
        <ele>57.4</ele>
        <time>2018-01-27T12:54:28Z</time>
      </trkpt>
      <trkpt lat="62.634107836424" lon="18.006763015108">
        <ele>57.6</ele>
        <time>2018-01-27T12:54:29Z</time>
      </trkpt>
      <trkpt lat="62.634088641873" lon="18.006815401983">
        <ele>57.6</ele>
        <time>2018-01-27T12:54:30Z</time>
      </trkpt>
      <trkpt lat="62.634066346019" lon="18.006874242921">
        <ele>57.6</ele>
        <time>2018-01-27T12:54:31Z</time>
      </trkpt>
      <trkpt lat="62.63405285116" lon="18.006933502954">
        <ele>57.6</ele>
        <time>2018-01-27T12:54:32Z</time>
      </trkpt>
      <trkpt lat="62.634028292193" lon="18.00700256981">
        <ele>57.6</ele>
        <time>2018-01-27T12:54:33Z</time>
      </trkpt>
      <trkpt lat="62.634012115126" lon="18.007064428232">
        <ele>57.6</ele>
        <time>2018-01-27T12:54:34Z</time>
      </trkpt>
      <trkpt lat="62.633998201172" lon="18.007093681063">
        <ele>57.6</ele>
        <time>2018-01-27T12:54:35Z</time>
      </trkpt>
      <trkpt lat="62.633973642205" lon="18.007168950525">
        <ele>57.6</ele>
        <time>2018-01-27T12:54:36Z</time>
      </trkpt>
      <trkpt lat="62.633945227564" lon="18.007225193074">
        <ele>57.6</ele>
        <time>2018-01-27T12:54:37Z</time>
      </trkpt>
      <trkpt lat="62.633913041068" lon="18.007291326265">
        <ele>57.8</ele>
        <time>2018-01-27T12:54:38Z</time>
      </trkpt>
      <trkpt lat="62.633888901196" lon="18.007347317357">
        <ele>57.6</ele>
        <time>2018-01-27T12:54:39Z</time>
      </trkpt>
      <trkpt lat="62.63385922927" lon="18.007393836902">
        <ele>57.6</ele>
        <time>2018-01-27T12:54:40Z</time>
      </trkpt>
      <trkpt lat="62.633833413018" lon="18.007423257371">
        <ele>57.4</ele>
        <time>2018-01-27T12:54:41Z</time>
      </trkpt>
      <trkpt lat="62.633798125219" lon="18.007433064194">
        <ele>57.4</ele>
        <time>2018-01-27T12:54:42Z</time>
      </trkpt>
      <trkpt lat="62.63377457208" lon="18.007426442493">
        <ele>57.2</ele>
        <time>2018-01-27T12:54:43Z</time>
      </trkpt>
      <trkpt lat="62.633736182978" lon="18.00740657739">
        <ele>57.6</ele>
        <time>2018-01-27T12:54:44Z</time>
      </trkpt>
      <trkpt lat="62.633714054762" lon="18.007394926549">
        <ele>57.6</ele>
        <time>2018-01-27T12:54:45Z</time>
      </trkpt>
      <trkpt lat="62.63368991489" lon="18.007374223256">
        <ele>57.6</ele>
        <time>2018-01-27T12:54:46Z</time>
      </trkpt>
      <trkpt lat="62.633661835525" lon="18.00736047694">
        <ele>57.6</ele>
        <time>2018-01-27T12:54:47Z</time>
      </trkpt>
      <trkpt lat="62.633635181083" lon="18.007345640977">
        <ele>57.8</ele>
        <time>2018-01-27T12:54:48Z</time>
      </trkpt>
      <trkpt lat="62.633614393971" lon="18.007315969051">
        <ele>57.8</ele>
        <time>2018-01-27T12:54:49Z</time>
      </trkpt>
      <trkpt lat="62.633590673194" lon="18.007298702337">
        <ele>57.8</ele>
        <time>2018-01-27T12:54:50Z</time>
      </trkpt>
      <trkpt lat="62.633568880254" lon="18.007276155026">
        <ele>58</ele>
        <time>2018-01-27T12:54:51Z</time>
      </trkpt>
      <trkpt lat="62.633545578572" lon="18.007268946592">
        <ele>58</ele>
        <time>2018-01-27T12:54:52Z</time>
      </trkpt>
      <trkpt lat="62.633521606338" lon="18.007233994069">
        <ele>58.4</ele>
        <time>2018-01-27T12:54:53Z</time>
      </trkpt>
      <trkpt lat="62.633496712095" lon="18.007233826431">
        <ele>58.6</ele>
        <time>2018-01-27T12:54:54Z</time>
      </trkpt>
      <trkpt lat="62.633468129816" lon="18.007195185872">
        <ele>58.8</ele>
        <time>2018-01-27T12:54:55Z</time>
      </trkpt>
      <trkpt lat="62.633440888641" lon="18.007196275519">
        <ele>59</ele>
        <time>2018-01-27T12:54:56Z</time>
      </trkpt>
      <trkpt lat="62.633417586959" lon="18.007166184498">
        <ele>59</ele>
        <time>2018-01-27T12:54:57Z</time>
      </trkpt>
      <trkpt lat="62.6333957102" lon="18.007132153984">
        <ele>59.2</ele>
        <time>2018-01-27T12:54:58Z</time>
      </trkpt>
      <trkpt lat="62.633376850925" lon="18.00711656365">
        <ele>59.2</ele>
        <time>2018-01-27T12:54:59Z</time>
      </trkpt>
      <trkpt lat="62.633355896175" lon="18.00705286121">
        <ele>59.4</ele>
        <time>2018-01-27T12:55:00Z</time>
      </trkpt>
      <trkpt lat="62.633335863434" lon="18.007028218424">
        <ele>59.4</ele>
        <time>2018-01-27T12:55:01Z</time>
      </trkpt>
      <trkpt lat="62.633319099634" lon="18.006956553179">
        <ele>59.6</ele>
        <time>2018-01-27T12:55:02Z</time>
      </trkpt>
      <trkpt lat="62.633301916739" lon="18.006904920675">
        <ele>59.6</ele>
        <time>2018-01-27T12:55:03Z</time>
      </trkpt>
      <trkpt lat="62.633292109916" lon="18.006876338396">
        <ele>59.6</ele>
        <time>2018-01-27T12:55:04Z</time>
      </trkpt>
      <trkpt lat="62.633289846803" lon="18.006800733658">
        <ele>59.6</ele>
        <time>2018-01-27T12:55:05Z</time>
      </trkpt>
      <trkpt lat="62.633279704704" lon="18.006748095326">
        <ele>59.8</ele>
        <time>2018-01-27T12:55:06Z</time>
      </trkpt>
      <trkpt lat="62.633280207618" lon="18.006689170569">
        <ele>59.8</ele>
        <time>2018-01-27T12:55:07Z</time>
      </trkpt>
      <trkpt lat="62.633279704704" lon="18.006632676563">
        <ele>60</ele>
        <time>2018-01-27T12:55:08Z</time>
      </trkpt>
      <trkpt lat="62.633272328632" lon="18.006594036004">
        <ele>60.2</ele>
        <time>2018-01-27T12:55:09Z</time>
      </trkpt>
      <trkpt lat="62.633272747727" lon="18.006535278885">
        <ele>60.4</ele>
        <time>2018-01-27T12:55:10Z</time>
      </trkpt>
      <trkpt lat="62.633270065519" lon="18.006522957492">
        <ele>60.4</ele>
        <time>2018-01-27T12:55:11Z</time>
      </trkpt>
      <trkpt lat="62.633265371655" lon="18.006452214256">
        <ele>60.4</ele>
        <time>2018-01-27T12:55:12Z</time>
      </trkpt>
      <trkpt lat="62.633266964216" lon="18.006386248703">
        <ele>60.4</ele>
        <time>2018-01-27T12:55:13Z</time>
      </trkpt>
      <trkpt lat="62.633262270352" lon="18.006336544036">
        <ele>60.6</ele>
        <time>2018-01-27T12:55:14Z</time>
      </trkpt>
      <trkpt lat="62.633260845429" lon="18.006268147732">
        <ele>60.8</ele>
        <time>2018-01-27T12:55:15Z</time>
      </trkpt>
      <trkpt lat="62.633263611456" lon="18.006223556024">
        <ele>60.8</ele>
        <time>2018-01-27T12:55:16Z</time>
      </trkpt>
      <trkpt lat="62.633256654479" lon="18.006172258796">
        <ele>61.2</ele>
        <time>2018-01-27T12:55:17Z</time>
      </trkpt>
      <trkpt lat="62.63325405609" lon="18.006120961568">
        <ele>61.4</ele>
        <time>2018-01-27T12:55:18Z</time>
      </trkpt>
      <trkpt lat="62.633252882624" lon="18.006074944937">
        <ele>61.6</ele>
        <time>2018-01-27T12:55:19Z</time>
      </trkpt>
      <trkpt lat="62.63325154152" lon="18.006043428993">
        <ele>61.8</ele>
        <time>2018-01-27T12:55:20Z</time>
      </trkpt>
      <trkpt lat="62.633257660307" lon="18.005984671874">
        <ele>62</ele>
        <time>2018-01-27T12:55:21Z</time>
      </trkpt>
      <trkpt lat="62.633258749954" lon="18.005935470121">
        <ele>62.2</ele>
        <time>2018-01-27T12:55:22Z</time>
      </trkpt>
      <trkpt lat="62.633254810461" lon="18.005893476802">
        <ele>62.4</ele>
        <time>2018-01-27T12:55:23Z</time>
      </trkpt>
      <trkpt lat="62.633252798805" lon="18.005871935319">
        <ele>62.6</ele>
        <time>2018-01-27T12:55:24Z</time>
      </trkpt>
      <trkpt lat="62.633255983927" lon="18.005862463772">
        <ele>62.8</ele>
        <time>2018-01-27T12:55:25Z</time>
      </trkpt>
      <trkpt lat="62.633256905936" lon="18.00585341132">
        <ele>63</ele>
        <time>2018-01-27T12:55:26Z</time>
      </trkpt>
      <trkpt lat="62.633250032778" lon="18.005828517077">
        <ele>63.2</ele>
        <time>2018-01-27T12:55:27Z</time>
      </trkpt>
      <trkpt lat="62.633247685846" lon="18.005809741621">
        <ele>63.4</ele>
        <time>2018-01-27T12:55:28Z</time>
      </trkpt>
      <trkpt lat="62.633242489068" lon="18.005794067468">
        <ele>63.8</ele>
        <time>2018-01-27T12:55:29Z</time>
      </trkpt>
      <trkpt lat="62.633238884851" lon="18.005781494618">
        <ele>64.2</ele>
        <time>2018-01-27T12:55:30Z</time>
      </trkpt>
      <trkpt lat="62.633239303946" lon="18.005771771614">
        <ele>64.2</ele>
        <time>2018-01-27T12:55:31Z</time>
      </trkpt>
      <trkpt lat="62.633237376109" lon="18.005750733045">
        <ele>64.6</ele>
        <time>2018-01-27T12:55:32Z</time>
      </trkpt>
      <trkpt lat="62.63323142496" lon="18.005720055291">
        <ele>64.8</ele>
        <time>2018-01-27T12:55:33Z</time>
      </trkpt>
      <trkpt lat="62.633229413304" lon="18.005701950387">
        <ele>65</ele>
        <time>2018-01-27T12:55:34Z</time>
      </trkpt>
      <trkpt lat="62.633232179331" lon="18.005697088885">
        <ele>65</ele>
        <time>2018-01-27T12:55:35Z</time>
      </trkpt>
      <trkpt lat="62.633231592598" lon="18.005690383365">
        <ele>65.2</ele>
        <time>2018-01-27T12:55:36Z</time>
      </trkpt>
      <trkpt lat="62.633229497123" lon="18.005657861593">
        <ele>65.6</ele>
        <time>2018-01-27T12:55:37Z</time>
      </trkpt>
      <trkpt lat="62.63322136668" lon="18.005626094192">
        <ele>65.8</ele>
        <time>2018-01-27T12:55:38Z</time>
      </trkpt>
      <trkpt lat="62.633225976725" lon="18.00561871812">
        <ele>66.2</ele>
        <time>2018-01-27T12:55:39Z</time>
      </trkpt>
      <trkpt lat="62.633225976725" lon="18.005606564365">
        <ele>66.8</ele>
        <time>2018-01-27T12:55:40Z</time>
      </trkpt>
      <trkpt lat="62.633228239838" lon="18.005590806393">
        <ele>67</ele>
        <time>2018-01-27T12:55:41Z</time>
      </trkpt>
      <trkpt lat="62.633230754408" lon="18.005564990141">
        <ele>67</ele>
        <time>2018-01-27T12:55:42Z</time>
      </trkpt>
      <trkpt lat="62.633231257322" lon="18.005534982939">
        <ele>67.2</ele>
        <time>2018-01-27T12:55:43Z</time>
      </trkpt>
      <trkpt lat="62.63322639582" lon="18.00551478256">
        <ele>67.4</ele>
        <time>2018-01-27T12:55:44Z</time>
      </trkpt>
      <trkpt lat="62.633223545974" lon="18.00550975342">
        <ele>67.4</ele>
        <time>2018-01-27T12:55:45Z</time>
      </trkpt>
      <trkpt lat="62.633223629793" lon="18.005498186398">
        <ele>67.6</ele>
        <time>2018-01-27T12:55:46Z</time>
      </trkpt>
      <trkpt lat="62.633224887078" lon="18.005469268843">
        <ele>67.8</ele>
        <time>2018-01-27T12:55:47Z</time>
      </trkpt>
      <trkpt lat="62.633228323657" lon="18.005447392084">
        <ele>68</ele>
        <time>2018-01-27T12:55:48Z</time>
      </trkpt>
      <trkpt lat="62.633226479639" lon="18.005429790094">
        <ele>68.2</ele>
        <time>2018-01-27T12:55:49Z</time>
      </trkpt>
      <trkpt lat="62.6332280722" lon="18.005418642167">
        <ele>68.4</ele>
        <time>2018-01-27T12:55:50Z</time>
      </trkpt>
      <trkpt lat="62.633227485467" lon="18.005404057661">
        <ele>68.6</ele>
        <time>2018-01-27T12:55:51Z</time>
      </trkpt>
      <trkpt lat="62.633224467983" lon="18.005382180902">
        <ele>68.6</ele>
        <time>2018-01-27T12:55:52Z</time>
      </trkpt>
      <trkpt lat="62.633226898734" lon="18.005353514804">
        <ele>68.8</ele>
        <time>2018-01-27T12:55:53Z</time>
      </trkpt>
      <trkpt lat="62.633225725268" lon="18.005325686896">
        <ele>69</ele>
        <time>2018-01-27T12:55:54Z</time>
      </trkpt>
      <trkpt lat="62.633226731096" lon="18.005308001087">
        <ele>69.2</ele>
        <time>2018-01-27T12:55:55Z</time>
      </trkpt>
      <trkpt lat="62.633227401648" lon="18.005293751857">
        <ele>69.4</ele>
        <time>2018-01-27T12:55:56Z</time>
      </trkpt>
      <trkpt lat="62.633222456327" lon="18.005282436292">
        <ele>69.8</ele>
        <time>2018-01-27T12:55:57Z</time>
      </trkpt>
      <trkpt lat="62.633224970897" lon="18.005255446574">
        <ele>70.2</ele>
        <time>2018-01-27T12:55:58Z</time>
      </trkpt>
      <trkpt lat="62.633222623965" lon="18.005225858467">
        <ele>70.6</ele>
        <time>2018-01-27T12:55:59Z</time>
      </trkpt>
      <trkpt lat="62.633223378336" lon="18.005198282016">
        <ele>70.8</ele>
        <time>2018-01-27T12:56:00Z</time>
      </trkpt>
      <trkpt lat="62.633222959241" lon="18.005180512388">
        <ele>71</ele>
        <time>2018-01-27T12:56:01Z</time>
      </trkpt>
      <trkpt lat="62.633221450499" lon="18.005155366688">
        <ele>71.2</ele>
        <time>2018-01-27T12:56:02Z</time>
      </trkpt>
      <trkpt lat="62.633222288689" lon="18.005134831033">
        <ele>71.4</ele>
        <time>2018-01-27T12:56:03Z</time>
      </trkpt>
      <trkpt lat="62.633219187386" lon="18.005113205731">
        <ele>71.4</ele>
        <time>2018-01-27T12:56:04Z</time>
      </trkpt>
      <trkpt lat="62.633221031404" lon="18.005095017008">
        <ele>71.6</ele>
        <time>2018-01-27T12:56:05Z</time>
      </trkpt>
      <trkpt lat="62.633218516834" lon="18.005080097226">
        <ele>71.8</ele>
        <time>2018-01-27T12:56:06Z</time>
      </trkpt>
      <trkpt lat="62.63321717573" lon="18.005042797771">
        <ele>72</ele>
        <time>2018-01-27T12:56:07Z</time>
      </trkpt>
      <trkpt lat="62.633212481866" lon="18.005018322623">
        <ele>72</ele>
        <time>2018-01-27T12:56:08Z</time>
      </trkpt>
      <trkpt lat="62.633207452726" lon="18.00499259019">
        <ele>72.2</ele>
        <time>2018-01-27T12:56:09Z</time>
      </trkpt>
      <trkpt lat="62.633202758862" lon="18.004982448091">
        <ele>72.4</ele>
        <time>2018-01-27T12:56:10Z</time>
      </trkpt>
      <trkpt lat="62.633196807713" lon="18.00496325354">
        <ele>72.4</ele>
        <time>2018-01-27T12:56:11Z</time>
      </trkpt>
      <trkpt lat="62.633194041686" lon="18.004946741197">
        <ele>72.6</ele>
        <time>2018-01-27T12:56:12Z</time>
      </trkpt>
      <trkpt lat="62.633187671442" lon="18.00492637318">
        <ele>73</ele>
        <time>2018-01-27T12:56:13Z</time>
      </trkpt>
      <trkpt lat="62.633179121904" lon="18.004905921344">
        <ele>73.2</ele>
        <time>2018-01-27T12:56:14Z</time>
      </trkpt>
      <trkpt lat="62.633173003117" lon="18.004891085381">
        <ele>73.4</ele>
        <time>2018-01-27T12:56:15Z</time>
      </trkpt>
      <trkpt lat="62.633166968149" lon="18.00487691997">
        <ele>73.4</ele>
        <time>2018-01-27T12:56:16Z</time>
      </trkpt>
      <trkpt lat="62.633159508258" lon="18.004863844206">
        <ele>73.6</ele>
        <time>2018-01-27T12:56:17Z</time>
      </trkpt>
      <trkpt lat="62.633151629272" lon="18.004848924424">
        <ele>73.8</ele>
        <time>2018-01-27T12:56:18Z</time>
      </trkpt>
      <trkpt lat="62.63314676777" lon="18.004837860316">
        <ele>74</ele>
        <time>2018-01-27T12:56:19Z</time>
      </trkpt>
      <trkpt lat="62.633140313707" lon="18.004831322434">
        <ele>74.2</ele>
        <time>2018-01-27T12:56:20Z</time>
      </trkpt>
      <trkpt lat="62.633131428893" lon="18.004825874199">
        <ele>74.4</ele>
        <time>2018-01-27T12:56:21Z</time>
      </trkpt>
      <trkpt lat="62.633114665093" lon="18.004816235014">
        <ele>74.6</ele>
        <time>2018-01-27T12:56:22Z</time>
      </trkpt>
      <trkpt lat="62.633097985112" lon="18.004812295521">
        <ele>75.2</ele>
        <time>2018-01-27T12:56:23Z</time>
      </trkpt>
      <trkpt lat="62.633085747538" lon="18.004815648281">
        <ele>75.4</ele>
        <time>2018-01-27T12:56:24Z</time>
      </trkpt>
      <trkpt lat="62.6330688161" lon="18.004824197819">
        <ele>75.8</ele>
        <time>2018-01-27T12:56:25Z</time>
      </trkpt>
      <trkpt lat="62.633048196626" lon="18.004837776497">
        <ele>76</ele>
        <time>2018-01-27T12:56:26Z</time>
      </trkpt>
      <trkpt lat="62.633027577152" lon="18.004853283012">
        <ele>76.2</ele>
        <time>2018-01-27T12:56:27Z</time>
      </trkpt>
      <trkpt lat="62.633002515271" lon="18.0048744054">
        <ele>76.2</ele>
        <time>2018-01-27T12:56:28Z</time>
      </trkpt>
      <trkpt lat="62.632983655996" lon="18.004905837525">
        <ele>76.4</ele>
        <time>2018-01-27T12:56:29Z</time>
      </trkpt>
      <trkpt lat="62.632966389282" lon="18.004935341813">
        <ele>76.4</ele>
        <time>2018-01-27T12:56:30Z</time>
      </trkpt>
      <trkpt lat="62.632947027093" lon="18.004966941576">
        <ele>76.8</ele>
        <time>2018-01-27T12:56:31Z</time>
      </trkpt>
      <trkpt lat="62.632934454243" lon="18.005001391185">
        <ele>76.8</ele>
        <time>2018-01-27T12:56:32Z</time>
      </trkpt>
      <trkpt lat="62.632923054859" lon="18.005033242405">
        <ele>77</ele>
        <time>2018-01-27T12:56:33Z</time>
      </trkpt>
      <trkpt lat="62.63290620724" lon="18.005084707271">
        <ele>77</ele>
        <time>2018-01-27T12:56:34Z</time>
      </trkpt>
      <trkpt lat="62.632889862535" lon="18.005140446906">
        <ele>77.2</ele>
        <time>2018-01-27T12:56:35Z</time>
      </trkpt>
      <trkpt lat="62.632868991604" lon="18.005194342523">
        <ele>77.4</ele>
        <time>2018-01-27T12:56:36Z</time>
      </trkpt>
      <trkpt lat="62.63284669575" lon="18.005240862068">
        <ele>77.2</ele>
        <time>2018-01-27T12:56:37Z</time>
      </trkpt>
      <trkpt lat="62.632816185634" lon="18.005282017197">
        <ele>77.2</ele>
        <time>2018-01-27T12:56:38Z</time>
      </trkpt>
      <trkpt lat="62.632788106269" lon="18.005310431838">
        <ele>77.2</ele>
        <time>2018-01-27T12:56:39Z</time>
      </trkpt>
      <trkpt lat="62.632758099067" lon="18.005322250317">
        <ele>77.2</ele>
        <time>2018-01-27T12:56:40Z</time>
      </trkpt>
      <trkpt lat="62.632726164028" lon="18.005326944181">
        <ele>77.2</ele>
        <time>2018-01-27T12:56:41Z</time>
      </trkpt>
      <trkpt lat="62.632708310581" lon="18.005333565882">
        <ele>77.2</ele>
        <time>2018-01-27T12:56:42Z</time>
      </trkpt>
      <trkpt lat="62.632691462962" lon="18.005338595022">
        <ele>77</ele>
        <time>2018-01-27T12:56:43Z</time>
      </trkpt>
      <trkpt lat="62.632673860972" lon="18.00533624809">
        <ele>77</ele>
        <time>2018-01-27T12:56:44Z</time>
      </trkpt>
      <trkpt lat="62.632656678077" lon="18.005339181755">
        <ele>77</ele>
        <time>2018-01-27T12:56:45Z</time>
      </trkpt>
      <trkpt lat="62.632635052775" lon="18.005343456524">
        <ele>77.2</ele>
        <time>2018-01-27T12:56:46Z</time>
      </trkpt>
      <trkpt lat="62.632614098025" lon="18.005341612506">
        <ele>77.4</ele>
        <time>2018-01-27T12:56:47Z</time>
      </trkpt>
      <trkpt lat="62.632593813827" lon="18.005340690497">
        <ele>77.6</ele>
        <time>2018-01-27T12:56:48Z</time>
      </trkpt>
      <trkpt lat="62.632571434154" lon="18.005340522859">
        <ele>78.2</ele>
        <time>2018-01-27T12:56:49Z</time>
      </trkpt>
      <trkpt lat="62.632553915983" lon="18.005342534515">
        <ele>78.6</ele>
        <time>2018-01-27T12:56:50Z</time>
      </trkpt>
      <trkpt lat="62.632534637613" lon="18.005346054913">
        <ele>79</ele>
        <time>2018-01-27T12:56:51Z</time>
      </trkpt>
      <trkpt lat="62.632521729487" lon="18.005344462352">
        <ele>79.2</ele>
        <time>2018-01-27T12:56:52Z</time>
      </trkpt>
      <trkpt lat="62.632513263768" lon="18.005341863963">
        <ele>79.2</ele>
        <time>2018-01-27T12:56:53Z</time>
      </trkpt>
      <trkpt lat="62.632503792221" lon="18.005338595022">
        <ele>79.2</ele>
        <time>2018-01-27T12:56:54Z</time>
      </trkpt>
      <trkpt lat="62.632490967914" lon="18.005329710208">
        <ele>79.4</ele>
        <time>2018-01-27T12:56:55Z</time>
      </trkpt>
      <trkpt lat="62.632475209942" lon="18.005315880073">
        <ele>79.4</ele>
        <time>2018-01-27T12:56:56Z</time>
      </trkpt>
      <trkpt lat="62.632461463626" lon="18.005305737974">
        <ele>79.4</ele>
        <time>2018-01-27T12:56:57Z</time>
      </trkpt>
      <trkpt lat="62.632450567156" lon="18.005300960291">
        <ele>79.4</ele>
        <time>2018-01-27T12:56:58Z</time>
      </trkpt>
      <trkpt lat="62.632434809184" lon="18.005303223404">
        <ele>79.4</ele>
        <time>2018-01-27T12:56:59Z</time>
      </trkpt>
      <trkpt lat="62.632412597149" lon="18.005311018571">
        <ele>79.4</ele>
        <time>2018-01-27T12:57:00Z</time>
      </trkpt>
      <trkpt lat="62.632387786725" lon="18.005332140959">
        <ele>79.4</ele>
        <time>2018-01-27T12:57:01Z</time>
      </trkpt>
      <trkpt lat="62.63236725107" lon="18.005347815112">
        <ele>79.2</ele>
        <time>2018-01-27T12:57:02Z</time>
      </trkpt>
      <trkpt lat="62.63234294356" lon="18.00536139379">
        <ele>79.2</ele>
        <time>2018-01-27T12:57:03Z</time>
      </trkpt>
      <trkpt lat="62.632321737353" lon="18.005378492866">
        <ele>79.2</ele>
        <time>2018-01-27T12:57:04Z</time>
      </trkpt>
      <trkpt lat="62.632299525318" lon="18.005392574458">
        <ele>79.2</ele>
        <time>2018-01-27T12:57:05Z</time>
      </trkpt>
      <trkpt lat="62.632271445953" lon="18.005403470928">
        <ele>79.2</ele>
        <time>2018-01-27T12:57:06Z</time>
      </trkpt>
      <trkpt lat="62.632245042968" lon="18.005421240556">
        <ele>79.4</ele>
        <time>2018-01-27T12:57:07Z</time>
      </trkpt>
      <trkpt lat="62.632217466517" lon="18.005436495614">
        <ele>79.4</ele>
        <time>2018-01-27T12:57:08Z</time>
      </trkpt>
      <trkpt lat="62.632189303333" lon="18.005448817007">
        <ele>79.6</ele>
        <time>2018-01-27T12:57:09Z</time>
      </trkpt>
      <trkpt lat="62.632168264764" lon="18.005462647142">
        <ele>79.8</ele>
        <time>2018-01-27T12:57:10Z</time>
      </trkpt>
      <trkpt lat="62.632143538159" lon="18.005475136173">
        <ele>79.8</ele>
        <time>2018-01-27T12:57:11Z</time>
      </trkpt>
      <trkpt lat="62.632120655572" lon="18.005491145602">
        <ele>80.2</ele>
        <time>2018-01-27T12:57:12Z</time>
      </trkpt>
      <trkpt lat="62.632089139628" lon="18.005500449511">
        <ele>80.2</ele>
        <time>2018-01-27T12:57:13Z</time>
      </trkpt>
      <trkpt lat="62.63206047353" lon="18.005514866379">
        <ele>80.2</ele>
        <time>2018-01-27T12:57:14Z</time>
      </trkpt>
      <trkpt lat="62.632034992554" lon="18.005515956026">
        <ele>80.2</ele>
        <time>2018-01-27T12:57:15Z</time>
      </trkpt>
      <trkpt lat="62.632003728067" lon="18.005529534704">
        <ele>80.4</ele>
        <time>2018-01-27T12:57:16Z</time>
      </trkpt>
      <trkpt lat="62.631975397245" lon="18.005540514993">
        <ele>80.2</ele>
        <time>2018-01-27T12:57:17Z</time>
      </trkpt>
      <trkpt lat="62.631944132758" lon="18.005539760622">
        <ele>80.2</ele>
        <time>2018-01-27T12:57:18Z</time>
      </trkpt>
      <trkpt lat="62.631916053393" lon="18.005547304332">
        <ele>80.2</ele>
        <time>2018-01-27T12:57:19Z</time>
      </trkpt>
      <trkpt lat="62.631888560761" lon="18.005549232169">
        <ele>80.2</ele>
        <time>2018-01-27T12:57:20Z</time>
      </trkpt>
      <trkpt lat="62.631858134464" lon="18.005550489454">
        <ele>80.2</ele>
        <time>2018-01-27T12:57:21Z</time>
      </trkpt>
      <trkpt lat="62.631828713995" lon="18.005541688459">
        <ele>80.2</ele>
        <time>2018-01-27T12:57:22Z</time>
      </trkpt>
      <trkpt lat="62.631799880259" lon="18.005522996822">
        <ele>80.2</ele>
        <time>2018-01-27T12:57:23Z</time>
      </trkpt>
      <trkpt lat="62.631775405111" lon="18.005499276045">
        <ele>80.2</ele>
        <time>2018-01-27T12:57:24Z</time>
      </trkpt>
      <trkpt lat="62.631752103429" lon="18.005465832264">
        <ele>80.4</ele>
        <time>2018-01-27T12:57:25Z</time>
      </trkpt>
      <trkpt lat="62.631721593313" lon="18.005435489786">
        <ele>80.4</ele>
        <time>2018-01-27T12:57:26Z</time>
      </trkpt>
      <trkpt lat="62.631697704898" lon="18.005397771236">
        <ele>80.4</ele>
        <time>2018-01-27T12:57:27Z</time>
      </trkpt>
      <trkpt lat="62.631675157587" lon="18.005340271402">
        <ele>80.4</ele>
        <time>2018-01-27T12:57:28Z</time>
      </trkpt>
      <trkpt lat="62.631652945552" lon="18.005287130156">
        <ele>80.6</ele>
        <time>2018-01-27T12:57:29Z</time>
      </trkpt>
      <trkpt lat="62.631635343562" lon="18.00524404719">
        <ele>81</ele>
        <time>2018-01-27T12:57:30Z</time>
      </trkpt>
      <trkpt lat="62.631617154839" lon="18.005188810469">
        <ele>81</ele>
        <time>2018-01-27T12:57:31Z</time>
      </trkpt>
      <trkpt lat="62.631599133754" lon="18.005140530725">
        <ele>81.2</ele>
        <time>2018-01-27T12:57:32Z</time>
      </trkpt>
      <trkpt lat="62.631577759909" lon="18.005088730583">
        <ele>81.2</ele>
        <time>2018-01-27T12:57:33Z</time>
      </trkpt>
      <trkpt lat="62.631556553702" lon="18.005042462495">
        <ele>81.2</ele>
        <time>2018-01-27T12:57:34Z</time>
      </trkpt>
      <trkpt lat="62.631538951712" lon="18.005007090877">
        <ele>81.2</ele>
        <time>2018-01-27T12:57:35Z</time>
      </trkpt>
      <trkpt lat="62.631521768817" lon="18.004977335132">
        <ele>81.4</ele>
        <time>2018-01-27T12:57:36Z</time>
      </trkpt>
      <trkpt lat="62.631505843207" lon="18.004956631839">
        <ele>81.6</ele>
        <time>2018-01-27T12:57:37Z</time>
      </trkpt>
      <trkpt lat="62.631487067751" lon="18.004927379008">
        <ele>81.8</ele>
        <time>2018-01-27T12:57:38Z</time>
      </trkpt>
      <trkpt lat="62.631468208476" lon="18.004894102865">
        <ele>82</ele>
        <time>2018-01-27T12:57:39Z</time>
      </trkpt>
      <trkpt lat="62.631451444676" lon="18.004859485618">
        <ele>82.2</ele>
        <time>2018-01-27T12:57:40Z</time>
      </trkpt>
      <trkpt lat="62.631428562089" lon="18.004817743756">
        <ele>82</ele>
        <time>2018-01-27T12:57:41Z</time>
      </trkpt>
      <trkpt lat="62.631407942615" lon="18.004799890309">
        <ele>82</ele>
        <time>2018-01-27T12:57:42Z</time>
      </trkpt>
      <trkpt lat="62.631380785259" lon="18.004778097369">
        <ele>82.4</ele>
        <time>2018-01-27T12:57:43Z</time>
      </trkpt>
      <trkpt lat="62.631355220464" lon="18.004760914474">
        <ele>82.4</ele>
        <time>2018-01-27T12:57:44Z</time>
      </trkpt>
      <trkpt lat="62.631334936266" lon="18.004745743235">
        <ele>82.6</ele>
        <time>2018-01-27T12:57:45Z</time>
      </trkpt>
      <trkpt lat="62.631311634584" lon="18.00473023672">
        <ele>82.6</ele>
        <time>2018-01-27T12:57:46Z</time>
      </trkpt>
      <trkpt lat="62.631293864956" lon="18.004713892015">
        <ele>82.8</ele>
        <time>2018-01-27T12:57:47Z</time>
      </trkpt>
      <trkpt lat="62.63127089855" lon="18.004706851219">
        <ele>82.6</ele>
        <time>2018-01-27T12:57:48Z</time>
      </trkpt>
      <trkpt lat="62.631248015963" lon="18.004690925609">
        <ele>83</ele>
        <time>2018-01-27T12:57:49Z</time>
      </trkpt>
      <trkpt lat="62.631229911059" lon="18.004677514569">
        <ele>83</ele>
        <time>2018-01-27T12:57:50Z</time>
      </trkpt>
      <trkpt lat="62.631210213594" lon="18.004666953375">
        <ele>83</ele>
        <time>2018-01-27T12:57:51Z</time>
      </trkpt>
      <trkpt lat="62.631191354319" lon="18.004651865955">
        <ele>83</ele>
        <time>2018-01-27T12:57:52Z</time>
      </trkpt>
      <trkpt lat="62.631167968818" lon="18.004641304761">
        <ele>83.2</ele>
        <time>2018-01-27T12:57:53Z</time>
      </trkpt>
      <trkpt lat="62.631147181706" lon="18.004623954228">
        <ele>83.2</ele>
        <time>2018-01-27T12:57:54Z</time>
      </trkpt>
      <trkpt lat="62.631125975499" lon="18.00460953736">
        <ele>83.4</ele>
        <time>2018-01-27T12:57:55Z</time>
      </trkpt>
      <trkpt lat="62.63110326055" lon="18.004585481307">
        <ele>83.6</ele>
        <time>2018-01-27T12:57:56Z</time>
      </trkpt>
      <trkpt lat="62.631082976352" lon="18.004559162141">
        <ele>83.8</ele>
        <time>2018-01-27T12:57:57Z</time>
      </trkpt>
      <trkpt lat="62.631059590851" lon="18.00453493845">
        <ele>83.8</ele>
        <time>2018-01-27T12:57:58Z</time>
      </trkpt>
      <trkpt lat="62.631037211178" lon="18.004505434162">
        <ele>84</ele>
        <time>2018-01-27T12:57:59Z</time>
      </trkpt>
      <trkpt lat="62.631013658039" lon="18.00448380886">
        <ele>84.2</ele>
        <time>2018-01-27T12:58:00Z</time>
      </trkpt>
      <trkpt lat="62.630994798764" lon="18.004446174129">
        <ele>84.4</ele>
        <time>2018-01-27T12:58:01Z</time>
      </trkpt>
      <trkpt lat="62.630974514566" lon="18.004420190239">
        <ele>84.4</ele>
        <time>2018-01-27T12:58:02Z</time>
      </trkpt>
      <trkpt lat="62.630954565644" lon="18.00438574063">
        <ele>84.6</ele>
        <time>2018-01-27T12:58:03Z</time>
      </trkpt>
      <trkpt lat="62.630930341953" lon="18.00435053665">
        <ele>84.8</ele>
        <time>2018-01-27T12:58:04Z</time>
      </trkpt>
      <trkpt lat="62.630912404687" lon="18.004316757593">
        <ele>84.8</ele>
        <time>2018-01-27T12:58:05Z</time>
      </trkpt>
      <trkpt lat="62.630895137973" lon="18.004269567496">
        <ele>84.8</ele>
        <time>2018-01-27T12:58:06Z</time>
      </trkpt>
      <trkpt lat="62.630881224019" lon="18.004230256385">
        <ele>85</ele>
        <time>2018-01-27T12:58:07Z</time>
      </trkpt>
      <trkpt lat="62.630871836291" lon="18.0042038534">
        <ele>85</ele>
        <time>2018-01-27T12:58:08Z</time>
      </trkpt>
      <trkpt lat="62.630864208762" lon="18.004188849799">
        <ele>85</ele>
        <time>2018-01-27T12:58:09Z</time>
      </trkpt>
      <trkpt lat="62.630857335604" lon="18.004170661076">
        <ele>85.2</ele>
        <time>2018-01-27T12:58:10Z</time>
      </trkpt>
      <trkpt lat="62.6308476126" lon="18.00414266553">
        <ele>85.4</ele>
        <time>2018-01-27T12:58:11Z</time>
      </trkpt>
      <trkpt lat="62.630840571804" lon="18.00411332888">
        <ele>85.6</ele>
        <time>2018-01-27T12:58:12Z</time>
      </trkpt>
      <trkpt lat="62.630832692818" lon="18.004076113244">
        <ele>85.8</ele>
        <time>2018-01-27T12:58:13Z</time>
      </trkpt>
      <trkpt lat="62.630826322574" lon="18.004048452974">
        <ele>86.2</ele>
        <time>2018-01-27T12:58:14Z</time>
      </trkpt>
      <trkpt lat="62.630821880167" lon="18.00401693703">
        <ele>86.2</ele>
        <time>2018-01-27T12:58:15Z</time>
      </trkpt>
      <trkpt lat="62.630818695045" lon="18.003980811041">
        <ele>86.4</ele>
        <time>2018-01-27T12:58:16Z</time>
      </trkpt>
      <trkpt lat="62.630815677561" lon="18.00394569088">
        <ele>86.4</ele>
        <time>2018-01-27T12:58:17Z</time>
      </trkpt>
      <trkpt lat="62.630809642593" lon="18.003893974557">
        <ele>86.6</ele>
        <time>2018-01-27T12:58:18Z</time>
      </trkpt>
      <trkpt lat="62.63080318853" lon="18.003835636533">
        <ele>86.6</ele>
        <time>2018-01-27T12:58:19Z</time>
      </trkpt>
      <trkpt lat="62.630803523806" lon="18.003779310165">
        <ele>86.8</ele>
        <time>2018-01-27T12:58:20Z</time>
      </trkpt>
      <trkpt lat="62.630803272349" lon="18.003716697372">
        <ele>86.8</ele>
        <time>2018-01-27T12:58:21Z</time>
      </trkpt>
      <trkpt lat="62.630806206014" lon="18.003656012416">
        <ele>86.8</ele>
        <time>2018-01-27T12:58:22Z</time>
      </trkpt>
      <trkpt lat="62.630808133851" lon="18.003590968872">
        <ele>86.8</ele>
        <time>2018-01-27T12:58:23Z</time>
      </trkpt>
      <trkpt lat="62.630806625109" lon="18.003534223409">
        <ele>86.8</ele>
        <time>2018-01-27T12:58:24Z</time>
      </trkpt>
      <trkpt lat="62.630808469127" lon="18.003477561765">
        <ele>86.8</ele>
        <time>2018-01-27T12:58:25Z</time>
      </trkpt>
      <trkpt lat="62.630809223498" lon="18.003416038619">
        <ele>87</ele>
        <time>2018-01-27T12:58:26Z</time>
      </trkpt>
      <trkpt lat="62.630812240982" lon="18.003360131346">
        <ele>87</ele>
        <time>2018-01-27T12:58:27Z</time>
      </trkpt>
      <trkpt lat="62.630816348113" lon="18.003291735042">
        <ele>87.2</ele>
        <time>2018-01-27T12:58:28Z</time>
      </trkpt>
      <trkpt lat="62.630819197959" lon="18.003230128077">
        <ele>87.2</ele>
        <time>2018-01-27T12:58:29Z</time>
      </trkpt>
      <trkpt lat="62.630821041977" lon="18.003165755085">
        <ele>87.4</ele>
        <time>2018-01-27T12:58:30Z</time>
      </trkpt>
      <trkpt lat="62.630820203787" lon="18.003099035161">
        <ele>87.6</ele>
        <time>2018-01-27T12:58:31Z</time>
      </trkpt>
      <trkpt lat="62.630819784692" lon="18.003041619146">
        <ele>87.6</ele>
        <time>2018-01-27T12:58:32Z</time>
      </trkpt>
      <trkpt lat="62.630818108312" lon="18.002993590859">
        <ele>87.8</ele>
        <time>2018-01-27T12:58:33Z</time>
      </trkpt>
      <trkpt lat="62.630818695045" lon="18.002947071314">
        <ele>88</ele>
        <time>2018-01-27T12:58:34Z</time>
      </trkpt>
      <trkpt lat="62.630815342285" lon="18.002898372475">
        <ele>88.2</ele>
        <time>2018-01-27T12:58:35Z</time>
      </trkpt>
      <trkpt lat="62.630807128023" lon="18.002834502397">
        <ele>88.4</ele>
        <time>2018-01-27T12:58:36Z</time>
      </trkpt>
      <trkpt lat="62.630803859082" lon="18.002774068898">
        <ele>88.6</ele>
        <time>2018-01-27T12:58:37Z</time>
      </trkpt>
      <trkpt lat="62.630799500494" lon="18.002723274584">
        <ele>88.8</ele>
        <time>2018-01-27T12:58:38Z</time>
      </trkpt>
      <trkpt lat="62.630798075571" lon="18.002665355655">
        <ele>89</ele>
        <time>2018-01-27T12:58:39Z</time>
      </trkpt>
      <trkpt lat="62.630791537689" lon="18.002619087567">
        <ele>89.2</ele>
        <time>2018-01-27T12:58:40Z</time>
      </trkpt>
      <trkpt lat="62.630787514377" lon="18.002558989344">
        <ele>89.4</ele>
        <time>2018-01-27T12:58:41Z</time>
      </trkpt>
      <trkpt lat="62.630781982323" lon="18.002509284677">
        <ele>89.4</ele>
        <time>2018-01-27T12:58:42Z</time>
      </trkpt>
      <trkpt lat="62.630774438613" lon="18.002451030472">
        <ele>89.4</ele>
        <time>2018-01-27T12:58:43Z</time>
      </trkpt>
      <trkpt lat="62.630774857708" lon="18.002395207018">
        <ele>89.8</ele>
        <time>2018-01-27T12:58:44Z</time>
      </trkpt>
      <trkpt lat="62.630772343138" lon="18.002344412704">
        <ele>89.6</ele>
        <time>2018-01-27T12:58:45Z</time>
      </trkpt>
      <trkpt lat="62.630767397817" lon="18.002287164327">
        <ele>89.8</ele>
        <time>2018-01-27T12:58:46Z</time>
      </trkpt>
      <trkpt lat="62.630759015917" lon="18.002238130212">
        <ele>89.8</ele>
        <time>2018-01-27T12:58:47Z</time>
      </trkpt>
      <trkpt lat="62.630754824967" lon="18.002189515192">
        <ele>89.8</ele>
        <time>2018-01-27T12:58:48Z</time>
      </trkpt>
      <trkpt lat="62.63075038256" lon="18.002143247104">
        <ele>90</ele>
        <time>2018-01-27T12:58:49Z</time>
      </trkpt>
      <trkpt lat="62.630746610705" lon="18.002090524953">
        <ele>90.2</ele>
        <time>2018-01-27T12:58:50Z</time>
      </trkpt>
      <trkpt lat="62.630740827194" lon="18.002035539689">
        <ele>90.4</ele>
        <time>2018-01-27T12:58:51Z</time>
      </trkpt>
      <trkpt lat="62.630734792226" lon="18.001970412326">
        <ele>90.6</ele>
        <time>2018-01-27T12:58:52Z</time>
      </trkpt>
      <trkpt lat="62.630734373131" lon="18.001907296619">
        <ele>90.6</ele>
        <time>2018-01-27T12:58:53Z</time>
      </trkpt>
      <trkpt lat="62.630737222977" lon="18.001848874776">
        <ele>90.8</ele>
        <time>2018-01-27T12:58:54Z</time>
      </trkpt>
      <trkpt lat="62.630734205493" lon="18.001793889512">
        <ele>90.8</ele>
        <time>2018-01-27T12:58:55Z</time>
      </trkpt>
      <trkpt lat="62.630730852733" lon="18.001729935615">
        <ele>90.8</ele>
        <time>2018-01-27T12:58:56Z</time>
      </trkpt>
      <trkpt lat="62.630728254344" lon="18.001679392758">
        <ele>90.8</ele>
        <time>2018-01-27T12:58:57Z</time>
      </trkpt>
      <trkpt lat="62.630726661783" lon="18.00161887544">
        <ele>90.8</ele>
        <time>2018-01-27T12:58:58Z</time>
      </trkpt>
      <trkpt lat="62.630723057566" lon="18.00155601119">
        <ele>90.8</ele>
        <time>2018-01-27T12:58:59Z</time>
      </trkpt>
      <trkpt lat="62.630720626815" lon="18.001499684822">
        <ele>91</ele>
        <time>2018-01-27T12:59:00Z</time>
      </trkpt>
      <trkpt lat="62.630714005114" lon="18.001429947414">
        <ele>91</ele>
        <time>2018-01-27T12:59:01Z</time>
      </trkpt>
      <trkpt lat="62.630707383413" lon="18.001369765372">
        <ele>91.2</ele>
        <time>2018-01-27T12:59:02Z</time>
      </trkpt>
      <trkpt lat="62.630701432264" lon="18.001316791764">
        <ele>91.2</ele>
        <time>2018-01-27T12:59:03Z</time>
      </trkpt>
      <trkpt lat="62.630694559106" lon="18.001267170916">
        <ele>91.4</ele>
        <time>2018-01-27T12:59:04Z</time>
      </trkpt>
      <trkpt lat="62.630688607957" lon="18.001211179824">
        <ele>91.4</ele>
        <time>2018-01-27T12:59:05Z</time>
      </trkpt>
      <trkpt lat="62.630680980428" lon="18.001160134053">
        <ele>91.4</ele>
        <time>2018-01-27T12:59:06Z</time>
      </trkpt>
      <trkpt lat="62.630675616012" lon="18.001101376934">
        <ele>91.6</ele>
        <time>2018-01-27T12:59:07Z</time>
      </trkpt>
      <trkpt lat="62.630664803361" lon="18.001044799109">
        <ele>91.4</ele>
        <time>2018-01-27T12:59:08Z</time>
      </trkpt>
      <trkpt lat="62.630655499452" lon="18.000982270135">
        <ele>91.4</ele>
        <time>2018-01-27T12:59:09Z</time>
      </trkpt>
      <trkpt lat="62.630647369009" lon="18.000929212708">
        <ele>91.4</ele>
        <time>2018-01-27T12:59:10Z</time>
      </trkpt>
      <trkpt lat="62.63063722691" lon="18.000871126141">
        <ele>91.4</ele>
        <time>2018-01-27T12:59:11Z</time>
      </trkpt>
      <trkpt lat="62.630628090639" lon="18.000815637963">
        <ele>91.6</ele>
        <time>2018-01-27T12:59:12Z</time>
      </trkpt>
      <trkpt lat="62.630615601608" lon="18.000758724862">
        <ele>91.6</ele>
        <time>2018-01-27T12:59:13Z</time>
      </trkpt>
      <trkpt lat="62.63060537569" lon="18.00069854282">
        <ele>91.8</ele>
        <time>2018-01-27T12:59:14Z</time>
      </trkpt>
      <trkpt lat="62.630595568867" lon="18.000644479565">
        <ele>92</ele>
        <time>2018-01-27T12:59:15Z</time>
      </trkpt>
      <trkpt lat="62.630585342949" lon="18.000584381342">
        <ele>92.2</ele>
        <time>2018-01-27T12:59:16Z</time>
      </trkpt>
      <trkpt lat="62.630570506986" lon="18.000525288947">
        <ele>92.4</ele>
        <time>2018-01-27T12:59:17Z</time>
      </trkpt>
      <trkpt lat="62.630556676851" lon="18.00046636419">
        <ele>92.4</ele>
        <time>2018-01-27T12:59:18Z</time>
      </trkpt>
      <trkpt lat="62.630541337974" lon="18.000406433605">
        <ele>92.6</ele>
        <time>2018-01-27T12:59:19Z</time>
      </trkpt>
      <trkpt lat="62.630531531151" lon="18.000348933771">
        <ele>92.8</ele>
        <time>2018-01-27T12:59:20Z</time>
      </trkpt>
      <trkpt lat="62.630519125939" lon="18.000290679566">
        <ele>92.8</ele>
        <time>2018-01-27T12:59:21Z</time>
      </trkpt>
      <trkpt lat="62.630509486754" lon="18.000236616311">
        <ele>93</ele>
        <time>2018-01-27T12:59:22Z</time>
      </trkpt>
      <trkpt lat="62.630502026863" lon="18.000170147844">
        <ele>92.8</ele>
        <time>2018-01-27T12:59:23Z</time>
      </trkpt>
      <trkpt lat="62.630492303859" lon="18.000111139268">
        <ele>93</ele>
        <time>2018-01-27T12:59:24Z</time>
      </trkpt>
      <trkpt lat="62.630483754321" lon="18.00005146014">
        <ele>93</ele>
        <time>2018-01-27T12:59:25Z</time>
      </trkpt>
      <trkpt lat="62.630471181471" lon="17.999985578406">
        <ele>93.2</ele>
        <time>2018-01-27T12:59:26Z</time>
      </trkpt>
      <trkpt lat="62.630459782087" lon="17.99993159897">
        <ele>93.2</ele>
        <time>2018-01-27T12:59:27Z</time>
      </trkpt>
      <trkpt lat="62.630445700495" lon="17.999871416928">
        <ele>93.2</ele>
        <time>2018-01-27T12:59:28Z</time>
      </trkpt>
      <trkpt lat="62.63043019398" lon="17.999820622614">
        <ele>93.4</ele>
        <time>2018-01-27T12:59:29Z</time>
      </trkpt>
      <trkpt lat="62.630415860931" lon="17.999769744481">
        <ele>93.4</ele>
        <time>2018-01-27T12:59:30Z</time>
      </trkpt>
      <trkpt lat="62.630396917837" lon="17.999723895488">
        <ele>93.4</ele>
        <time>2018-01-27T12:59:31Z</time>
      </trkpt>
      <trkpt lat="62.630383003883" lon="17.999675867201">
        <ele>93.6</ele>
        <time>2018-01-27T12:59:32Z</time>
      </trkpt>
      <trkpt lat="62.630373867612" lon="17.999622558317">
        <ele>93.8</ele>
        <time>2018-01-27T12:59:33Z</time>
      </trkpt>
      <trkpt lat="62.630354337785" lon="17.99958123555">
        <ele>93.8</ele>
        <time>2018-01-27T12:59:34Z</time>
      </trkpt>
      <trkpt lat="62.630340423831" lon="17.999536057109">
        <ele>93.8</ele>
        <time>2018-01-27T12:59:35Z</time>
      </trkpt>
      <trkpt lat="62.630325504049" lon="17.999480149836">
        <ele>94</ele>
        <time>2018-01-27T12:59:36Z</time>
      </trkpt>
      <trkpt lat="62.630312093009" lon="17.999423236735">
        <ele>94.2</ele>
        <time>2018-01-27T12:59:37Z</time>
      </trkpt>
      <trkpt lat="62.63029775996" lon="17.999367413281">
        <ele>94.4</ele>
        <time>2018-01-27T12:59:38Z</time>
      </trkpt>
      <trkpt lat="62.630285941481" lon="17.999307650334">
        <ele>94.4</ele>
        <time>2018-01-27T12:59:39Z</time>
      </trkpt>
      <trkpt lat="62.630275045011" lon="17.999243109704">
        <ele>94.6</ele>
        <time>2018-01-27T12:59:40Z</time>
      </trkpt>
      <trkpt lat="62.630267166025" lon="17.9991747134">
        <ele>94.8</ele>
        <time>2018-01-27T12:59:41Z</time>
      </trkpt>
      <trkpt lat="62.63026255598" lon="17.999117213566">
        <ele>94.8</ele>
        <time>2018-01-27T12:59:42Z</time>
      </trkpt>
      <trkpt lat="62.63025668865" lon="17.999054684592">
        <ele>94.8</ele>
        <time>2018-01-27T12:59:43Z</time>
      </trkpt>
      <trkpt lat="62.630251408053" lon="17.999000621337">
        <ele>94.8</ele>
        <time>2018-01-27T12:59:44Z</time>
      </trkpt>
      <trkpt lat="62.630246881827" lon="17.998954101792">
        <ele>95</ele>
        <time>2018-01-27T12:59:45Z</time>
      </trkpt>
      <trkpt lat="62.630240595402" lon="17.998890734628">
        <ele>95</ele>
        <time>2018-01-27T12:59:46Z</time>
      </trkpt>
      <trkpt lat="62.630235482443" lon="17.998828960025">
        <ele>95.2</ele>
        <time>2018-01-27T12:59:47Z</time>
      </trkpt>
      <trkpt lat="62.63022986657" lon="17.998765341404">
        <ele>95.2</ele>
        <time>2018-01-27T12:59:48Z</time>
      </trkpt>
      <trkpt lat="62.630225759439" lon="17.998701806602">
        <ele>95.2</ele>
        <time>2018-01-27T12:59:49Z</time>
      </trkpt>
      <trkpt lat="62.630223412507" lon="17.998636427782">
        <ele>95.4</ele>
        <time>2018-01-27T12:59:50Z</time>
      </trkpt>
      <trkpt lat="62.630220311204" lon="17.998572222428">
        <ele>95.2</ele>
        <time>2018-01-27T12:59:51Z</time>
      </trkpt>
      <trkpt lat="62.630219137738" lon="17.998507933255">
        <ele>95.2</ele>
        <time>2018-01-27T12:59:52Z</time>
      </trkpt>
      <trkpt lat="62.630216790806" lon="17.998443727901">
        <ele>95.2</ele>
        <time>2018-01-27T12:59:53Z</time>
      </trkpt>
      <trkpt lat="62.630220981756" lon="17.998371392104">
        <ele>95.2</ele>
        <time>2018-01-27T12:59:54Z</time>
      </trkpt>
      <trkpt lat="62.630220059747" lon="17.998305678008">
        <ele>95.4</ele>
        <time>2018-01-27T12:59:55Z</time>
      </trkpt>
      <trkpt lat="62.630220227385" lon="17.998226971967">
        <ele>95.4</ele>
        <time>2018-01-27T12:59:56Z</time>
      </trkpt>
      <trkpt lat="62.630225591801" lon="17.998155641998">
        <ele>95.6</ele>
        <time>2018-01-27T12:59:57Z</time>
      </trkpt>
      <trkpt lat="62.630231626769" lon="17.998077857966">
        <ele>95.6</ele>
        <time>2018-01-27T12:59:58Z</time>
      </trkpt>
      <trkpt lat="62.630240092488" lon="17.998006444178">
        <ele>95.6</ele>
        <time>2018-01-27T12:59:59Z</time>
      </trkpt>
      <trkpt lat="62.630246127456" lon="17.997938299331">
        <ele>96</ele>
        <time>2018-01-27T13:00:00Z</time>
      </trkpt>
      <trkpt lat="62.630250737501" lon="17.997876860004">
        <ele>96</ele>
        <time>2018-01-27T13:00:01Z</time>
      </trkpt>
      <trkpt lat="62.630254006442" lon="17.99781600741">
        <ele>96</ele>
        <time>2018-01-27T13:00:02Z</time>
      </trkpt>
      <trkpt lat="62.630257694478" lon="17.997752053513">
        <ele>96.2</ele>
        <time>2018-01-27T13:00:03Z</time>
      </trkpt>
      <trkpt lat="62.630266579292" lon="17.997687680521">
        <ele>96.2</ele>
        <time>2018-01-27T13:00:04Z</time>
      </trkpt>
      <trkpt lat="62.630273368631" lon="17.997624648633">
        <ele>95.8</ele>
        <time>2018-01-27T13:00:05Z</time>
      </trkpt>
      <trkpt lat="62.630282337264" lon="17.997550804094">
        <ele>95.8</ele>
        <time>2018-01-27T13:00:06Z</time>
      </trkpt>
      <trkpt lat="62.630288707508" lon="17.997485676731">
        <ele>96</ele>
        <time>2018-01-27T13:00:07Z</time>
      </trkpt>
      <trkpt lat="62.630294574838" lon="17.997419794997">
        <ele>96</ele>
        <time>2018-01-27T13:00:08Z</time>
      </trkpt>
      <trkpt lat="62.630308991706" lon="17.997364306819">
        <ele>96</ele>
        <time>2018-01-27T13:00:09Z</time>
      </trkpt>
      <trkpt lat="62.630328605352" lon="17.997302532216">
        <ele>96</ele>
        <time>2018-01-27T13:00:10Z</time>
      </trkpt>
      <trkpt lat="62.630353667233" lon="17.997228184763">
        <ele>96</ele>
        <time>2018-01-27T13:00:11Z</time>
      </trkpt>
      <trkpt lat="62.630368503196" lon="17.997163560314">
        <ele>96</ele>
        <time>2018-01-27T13:00:12Z</time>
      </trkpt>
      <trkpt lat="62.630389206489" lon="17.997097259485">
        <ele>95.8</ele>
        <time>2018-01-27T13:00:13Z</time>
      </trkpt>
      <trkpt lat="62.630414352189" lon="17.997039592013">
        <ele>95.8</ele>
        <time>2018-01-27T13:00:14Z</time>
      </trkpt>
      <trkpt lat="62.630433211464" lon="17.996987791871">
        <ele>96</ele>
        <time>2018-01-27T13:00:15Z</time>
      </trkpt>
      <trkpt lat="62.630455926413" lon="17.996922832146">
        <ele>95.8</ele>
        <time>2018-01-27T13:00:16Z</time>
      </trkpt>
      <trkpt lat="62.630475288602" lon="17.996857201869">
        <ele>95.8</ele>
        <time>2018-01-27T13:00:17Z</time>
      </trkpt>
      <trkpt lat="62.630496830085" lon="17.996801965148">
        <ele>95.8</ele>
        <time>2018-01-27T13:00:18Z</time>
      </trkpt>
      <trkpt lat="62.630521053776" lon="17.996738430346">
        <ele>96</ele>
        <time>2018-01-27T13:00:19Z</time>
      </trkpt>
      <trkpt lat="62.63054083506" lon="17.996676404286">
        <ele>96</ele>
        <time>2018-01-27T13:00:20Z</time>
      </trkpt>
      <trkpt lat="62.630561286896" lon="17.996601218643">
        <ele>96</ele>
        <time>2018-01-27T13:00:21Z</time>
      </trkpt>
      <trkpt lat="62.630580816723" lon="17.996532319425">
        <ele>96.2</ele>
        <time>2018-01-27T13:00:22Z</time>
      </trkpt>
      <trkpt lat="62.630603028758" lon="17.996464509854">
        <ele>96.2</ele>
        <time>2018-01-27T13:00:23Z</time>
      </trkpt>
      <trkpt lat="62.630612332667" lon="17.996399885405">
        <ele>96.2</ele>
        <time>2018-01-27T13:00:24Z</time>
      </trkpt>
      <trkpt lat="62.630626498078" lon="17.996340122458">
        <ele>96.2</ele>
        <time>2018-01-27T13:00:25Z</time>
      </trkpt>
      <trkpt lat="62.63064979976" lon="17.996264014806">
        <ele>96.4</ele>
        <time>2018-01-27T13:00:26Z</time>
      </trkpt>
      <trkpt lat="62.63066069623" lon="17.99619578614">
        <ele>96.4</ele>
        <time>2018-01-27T13:00:27Z</time>
      </trkpt>
      <trkpt lat="62.63068248917" lon="17.996126300189">
        <ele>96.4</ele>
        <time>2018-01-27T13:00:28Z</time>
      </trkpt>
      <trkpt lat="62.630714424209" lon="17.996060166998">
        <ele>96.4</ele>
        <time>2018-01-27T13:00:29Z</time>
      </trkpt>
      <trkpt lat="62.630744934325" lon="17.996012138711">
        <ele>96.4</ele>
        <time>2018-01-27T13:00:30Z</time>
      </trkpt>
      <trkpt lat="62.630781814685" lon="17.995954471239">
        <ele>96.4</ele>
        <time>2018-01-27T13:00:31Z</time>
      </trkpt>
      <trkpt lat="62.630818695045" lon="17.995913651386">
        <ele>96.4</ele>
        <time>2018-01-27T13:00:32Z</time>
      </trkpt>
      <trkpt lat="62.630849624256" lon="17.995876184293">
        <ele>96.6</ele>
        <time>2018-01-27T13:00:33Z</time>
      </trkpt>
      <trkpt lat="62.630876446336" lon="17.995833185146">
        <ele>96.4</ele>
        <time>2018-01-27T13:00:34Z</time>
      </trkpt>
      <trkpt lat="62.630906202081" lon="17.995791191827">
        <ele>96.4</ele>
        <time>2018-01-27T13:00:35Z</time>
      </trkpt>
      <trkpt lat="62.63094148988" lon="17.995744588463">
        <ele>96.4</ele>
        <time>2018-01-27T13:00:36Z</time>
      </trkpt>
      <trkpt lat="62.63097669386" lon="17.995705361171">
        <ele>96.4</ele>
        <time>2018-01-27T13:00:37Z</time>
      </trkpt>
      <trkpt lat="62.631005946691" lon="17.995673677589">
        <ele>96.4</ele>
        <time>2018-01-27T13:00:38Z</time>
      </trkpt>
      <trkpt lat="62.631037630273" lon="17.995638222152">
        <ele>96.4</ele>
        <time>2018-01-27T13:00:39Z</time>
      </trkpt>
      <trkpt lat="62.631066715466" lon="17.995600922697">
        <ele>96.2</ele>
        <time>2018-01-27T13:00:40Z</time>
      </trkpt>
      <trkpt lat="62.631102673817" lon="17.995562868871">
        <ele>96.4</ele>
        <time>2018-01-27T13:00:41Z</time>
      </trkpt>
      <trkpt lat="62.631136704331" lon="17.995522384294">
        <ele>96.6</ele>
        <time>2018-01-27T13:00:42Z</time>
      </trkpt>
      <trkpt lat="62.631170231931" lon="17.995476451482">
        <ele>96.6</ele>
        <time>2018-01-27T13:00:43Z</time>
      </trkpt>
      <trkpt lat="62.6311996524" lon="17.995434961077">
        <ele>96.6</ele>
        <time>2018-01-27T13:00:44Z</time>
      </trkpt>
      <trkpt lat="62.631225301014" lon="17.995388357713">
        <ele>96.8</ele>
        <time>2018-01-27T13:00:45Z</time>
      </trkpt>
      <trkpt lat="62.631254889121" lon="17.995335384105">
        <ele>97</ele>
        <time>2018-01-27T13:00:46Z</time>
      </trkpt>
      <trkpt lat="62.631281124468" lon="17.995283248687">
        <ele>97</ele>
        <time>2018-01-27T13:00:47Z</time>
      </trkpt>
      <trkpt lat="62.63130442615" lon="17.995231364726">
        <ele>97.2</ele>
        <time>2018-01-27T13:00:48Z</time>
      </trkpt>
      <trkpt lat="62.63133124823" lon="17.995174535444">
        <ele>97.2</ele>
        <time>2018-01-27T13:00:49Z</time>
      </trkpt>
      <trkpt lat="62.631353627903" lon="17.99511284466">
        <ele>97.4</ele>
        <time>2018-01-27T13:00:50Z</time>
      </trkpt>
      <trkpt lat="62.631375839938" lon="17.995047884935">
        <ele>97.2</ele>
        <time>2018-01-27T13:00:51Z</time>
      </trkpt>
      <trkpt lat="62.631396375593" lon="17.994991726205">
        <ele>97.2</ele>
        <time>2018-01-27T13:00:52Z</time>
      </trkpt>
      <trkpt lat="62.631410708642" lon="17.994922743168">
        <ele>97.2</ele>
        <time>2018-01-27T13:00:53Z</time>
      </trkpt>
      <trkpt lat="62.631426885709" lon="17.994846467878">
        <ele>97.2</ele>
        <time>2018-01-27T13:00:54Z</time>
      </trkpt>
      <trkpt lat="62.631441302577" lon="17.994774048262">
        <ele>97.4</ele>
        <time>2018-01-27T13:00:55Z</time>
      </trkpt>
      <trkpt lat="62.631455635626" lon="17.994683272285">
        <ele>97.4</ele>
        <time>2018-01-27T13:00:56Z</time>
      </trkpt>
      <trkpt lat="62.631467286467" lon="17.994604230968">
        <ele>97.4</ele>
        <time>2018-01-27T13:00:57Z</time>
      </trkpt>
      <trkpt lat="62.631475919824" lon="17.99451270062">
        <ele>97.4</ele>
        <time>2018-01-27T13:00:58Z</time>
      </trkpt>
      <trkpt lat="62.631477596204" lon="17.994428294887">
        <ele>97.4</ele>
        <time>2018-01-27T13:00:59Z</time>
      </trkpt>
      <trkpt lat="62.631477428566" lon="17.994353612158">
        <ele>97.6</ele>
        <time>2018-01-27T13:01:00Z</time>
      </trkpt>
      <trkpt lat="62.631471393598" lon="17.994257471765">
        <ele>97.4</ele>
        <time>2018-01-27T13:01:01Z</time>
      </trkpt>
      <trkpt lat="62.63146116768" lon="17.994171305833">
        <ele>97.4</ele>
        <time>2018-01-27T13:01:02Z</time>
      </trkpt>
      <trkpt lat="62.631450019753" lon="17.99409192924">
        <ele>97.2</ele>
        <time>2018-01-27T13:01:03Z</time>
      </trkpt>
      <trkpt lat="62.631451863771" lon="17.994082625331">
        <ele>97</ele>
        <time>2018-01-27T13:01:04Z</time>
      </trkpt>
      <trkpt lat="62.63144188931" lon="17.993979947056">
        <ele>97</ele>
        <time>2018-01-27T13:01:05Z</time>
      </trkpt>
      <trkpt lat="62.631429735555" lon="17.993821026232">
        <ele>96.6</ele>
        <time>2018-01-27T13:01:06Z</time>
      </trkpt>
      <trkpt lat="62.631426885709" lon="17.993718431776">
        <ele>96.2</ele>
        <time>2018-01-27T13:01:07Z</time>
      </trkpt>
      <trkpt lat="62.63142512551" lon="17.993629499817">
        <ele>96</ele>
        <time>2018-01-27T13:01:08Z</time>
      </trkpt>
      <trkpt lat="62.631424454958" lon="17.993498323082">
        <ele>96</ele>
        <time>2018-01-27T13:01:10Z</time>
      </trkpt>
      <trkpt lat="62.631436273437" lon="17.993398578472">
        <ele>95.8</ele>
        <time>2018-01-27T13:01:11Z</time>
      </trkpt>
      <trkpt lat="62.63145194759" lon="17.993293217989">
        <ele>95.8</ele>
        <time>2018-01-27T13:01:12Z</time>
      </trkpt>
      <trkpt lat="62.631472231788" lon="17.993199508347">
        <ele>95.8</ele>
        <time>2018-01-27T13:01:13Z</time>
      </trkpt>
      <trkpt lat="62.631490671968" lon="17.993100015194">
        <ele>95.8</ele>
        <time>2018-01-27T13:01:14Z</time>
      </trkpt>
      <trkpt lat="62.631501316981" lon="17.993016699108">
        <ele>95.6</ele>
        <time>2018-01-27T13:01:15Z</time>
      </trkpt>
      <trkpt lat="62.631514392745" lon="17.992924833484">
        <ele>95.4</ele>
        <time>2018-01-27T13:01:16Z</time>
      </trkpt>
      <trkpt lat="62.631525373034" lon="17.99283883519">
        <ele>95.2</ele>
        <time>2018-01-27T13:01:17Z</time>
      </trkpt>
      <trkpt lat="62.631534676943" lon="17.992771444714">
        <ele>95.2</ele>
        <time>2018-01-27T13:01:18Z</time>
      </trkpt>
      <trkpt lat="62.63154750125" lon="17.992718554925">
        <ele>94.8</ele>
        <time>2018-01-27T13:01:19Z</time>
      </trkpt>
      <trkpt lat="62.631558146263" lon="17.992675471959">
        <ele>94.8</ele>
        <time>2018-01-27T13:01:20Z</time>
      </trkpt>
      <trkpt lat="62.631571473484" lon="17.992620570514">
        <ele>95</ele>
        <time>2018-01-27T13:01:21Z</time>
      </trkpt>
      <trkpt lat="62.631590165121" lon="17.992555024056">
        <ele>95.2</ele>
        <time>2018-01-27T13:01:22Z</time>
      </trkpt>
      <trkpt lat="62.631615562278" lon="17.992496686032">
        <ele>95.2</ele>
        <time>2018-01-27T13:01:23Z</time>
      </trkpt>
      <trkpt lat="62.63164137853" lon="17.992453938342">
        <ele>95.2</ele>
        <time>2018-01-27T13:01:24Z</time>
      </trkpt>
      <trkpt lat="62.631675492863" lon="17.992419069638">
        <ele>95.2</ele>
        <time>2018-01-27T13:01:25Z</time>
      </trkpt>
      <trkpt lat="62.631706170617" lon="17.992369029695">
        <ele>95</ele>
        <time>2018-01-27T13:01:26Z</time>
      </trkpt>
      <trkpt lat="62.631740536407" lon="17.992335585914">
        <ele>94.8</ele>
        <time>2018-01-27T13:01:27Z</time>
      </trkpt>
      <trkpt lat="62.631770711247" lon="17.992327371652">
        <ele>94.8</ele>
        <time>2018-01-27T13:01:28Z</time>
      </trkpt>
      <trkpt lat="62.631800718449" lon="17.992317145734">
        <ele>95</ele>
        <time>2018-01-27T13:01:29Z</time>
      </trkpt>
      <trkpt lat="62.631831060927" lon="17.992290994206">
        <ele>95</ele>
        <time>2018-01-27T13:01:30Z</time>
      </trkpt>
      <trkpt lat="62.631854697885" lon="17.992274398044">
        <ele>95</ele>
        <time>2018-01-27T13:01:31Z</time>
      </trkpt>
      <trkpt lat="62.631886381467" lon="17.992257550425">
        <ele>95.2</ele>
        <time>2018-01-27T13:01:32Z</time>
      </trkpt>
      <trkpt lat="62.631905324561" lon="17.992235086933">
        <ele>95.4</ele>
        <time>2018-01-27T13:01:33Z</time>
      </trkpt>
      <trkpt lat="62.631923597103" lon="17.992214886554">
        <ele>95.4</ele>
        <time>2018-01-27T13:01:34Z</time>
      </trkpt>
      <trkpt lat="62.63195067064" lon="17.992186807189">
        <ele>95.4</ele>
        <time>2018-01-27T13:01:35Z</time>
      </trkpt>
      <trkpt lat="62.631978247091" lon="17.992163170231">
        <ele>95.4</ele>
        <time>2018-01-27T13:01:36Z</time>
      </trkpt>
      <trkpt lat="62.632008673388" lon="17.992143808042">
        <ele>95.6</ele>
        <time>2018-01-27T13:01:37Z</time>
      </trkpt>
      <trkpt lat="62.632041111341" lon="17.992122350378">
        <ele>95.6</ele>
        <time>2018-01-27T13:01:38Z</time>
      </trkpt>
      <trkpt lat="62.63206969362" lon="17.992110028985">
        <ele>95.8</ele>
        <time>2018-01-27T13:01:39Z</time>
      </trkpt>
      <trkpt lat="62.632099281727" lon="17.992087649312">
        <ele>95.8</ele>
        <time>2018-01-27T13:01:40Z</time>
      </trkpt>
      <trkpt lat="62.632121326124" lon="17.992072142797">
        <ele>96.2</ele>
        <time>2018-01-27T13:01:41Z</time>
      </trkpt>
      <trkpt lat="62.632158122665" lon="17.992057390653">
        <ele>96.2</ele>
        <time>2018-01-27T13:01:42Z</time>
      </trkpt>
      <trkpt lat="62.632177568673" lon="17.992032580229">
        <ele>96.4</ele>
        <time>2018-01-27T13:01:43Z</time>
      </trkpt>
      <trkpt lat="62.632213359386" lon="17.992024701243">
        <ele>96.6</ele>
        <time>2018-01-27T13:01:44Z</time>
      </trkpt>
      <trkpt lat="62.632246635529" lon="17.992009530004">
        <ele>96.8</ele>
        <time>2018-01-27T13:01:45Z</time>
      </trkpt>
      <trkpt lat="62.632279073482" lon="17.991994610222">
        <ele>96.8</ele>
        <time>2018-01-27T13:01:46Z</time>
      </trkpt>
      <trkpt lat="62.632319977154" lon="17.991981869734">
        <ele>96.8</ele>
        <time>2018-01-27T13:01:47Z</time>
      </trkpt>
      <trkpt lat="62.632358533894" lon="17.99194783922">
        <ele>96.8</ele>
        <time>2018-01-27T13:01:48Z</time>
      </trkpt>
      <trkpt lat="62.632399605204" lon="17.991929985773">
        <ele>96.6</ele>
        <time>2018-01-27T13:01:49Z</time>
      </trkpt>
      <trkpt lat="62.632440844152" lon="17.991891429033">
        <ele>96.6</ele>
        <time>2018-01-27T13:01:50Z</time>
      </trkpt>
      <trkpt lat="62.632477389236" lon="17.991874413776">
        <ele>96.6</ele>
        <time>2018-01-27T13:01:51Z</time>
      </trkpt>
      <trkpt lat="62.632519466374" lon="17.991868127351">
        <ele>96.6</ele>
        <time>2018-01-27T13:01:52Z</time>
      </trkpt>
      <trkpt lat="62.6325575202" lon="17.991864774591">
        <ele>96.6</ele>
        <time>2018-01-27T13:01:53Z</time>
      </trkpt>
      <trkpt lat="62.632591634533" lon="17.991852117922">
        <ele>96.4</ele>
        <time>2018-01-27T13:01:54Z</time>
      </trkpt>
      <trkpt lat="62.632612756921" lon="17.99182630167">
        <ele>96.4</ele>
        <time>2018-01-27T13:01:55Z</time>
      </trkpt>
      <trkpt lat="62.632623569572" lon="17.991775926451">
        <ele>96.4</ele>
        <time>2018-01-27T13:01:56Z</time>
      </trkpt>
      <trkpt lat="62.632628850169" lon="17.991715744409">
        <ele>96.4</ele>
        <time>2018-01-27T13:01:57Z</time>
      </trkpt>
      <trkpt lat="62.632638489354" lon="17.991655813824">
        <ele>96.4</ele>
        <time>2018-01-27T13:01:58Z</time>
      </trkpt>
      <trkpt lat="62.632652570946" lon="17.991592530479">
        <ele>96.6</ele>
        <time>2018-01-27T13:01:59Z</time>
      </trkpt>
      <trkpt lat="62.632673944791" lon="17.991539975966">
        <ele>96.6</ele>
        <time>2018-01-27T13:02:00Z</time>
      </trkpt>
      <trkpt lat="62.632695989188" lon="17.991489265471">
        <ele>96.6</ele>
        <time>2018-01-27T13:02:01Z</time>
      </trkpt>
      <trkpt lat="62.632714345549" lon="17.991434615483">
        <ele>96.6</ele>
        <time>2018-01-27T13:02:02Z</time>
      </trkpt>
      <trkpt lat="62.632734126833" lon="17.991367057369">
        <ele>96.4</ele>
        <time>2018-01-27T13:02:03Z</time>
      </trkpt>
      <trkpt lat="62.632753153746" lon="17.99130075654">
        <ele>96.4</ele>
        <time>2018-01-27T13:02:04Z</time>
      </trkpt>
      <trkpt lat="62.632776036333" lon="17.991283825102">
        <ele>96.4</ele>
        <time>2018-01-27T13:02:05Z</time>
      </trkpt>
      <trkpt lat="62.632800427662" lon="17.991242586154">
        <ele>96.2</ele>
        <time>2018-01-27T13:02:06Z</time>
      </trkpt>
      <trkpt lat="62.632823310249" lon="17.991204280871">
        <ele>96</ele>
        <time>2018-01-27T13:02:07Z</time>
      </trkpt>
      <trkpt lat="62.632847701578" lon="17.991152145453">
        <ele>96</ele>
        <time>2018-01-27T13:02:08Z</time>
      </trkpt>
      <trkpt lat="62.632871589993" lon="17.991094897076">
        <ele>95.8</ele>
        <time>2018-01-27T13:02:09Z</time>
      </trkpt>
      <trkpt lat="62.632895226951" lon="17.991023734745">
        <ele>95.8</ele>
        <time>2018-01-27T13:02:10Z</time>
      </trkpt>
      <trkpt lat="62.632909979095" lon="17.990966989282">
        <ele>95.6</ele>
        <time>2018-01-27T13:02:11Z</time>
      </trkpt>
      <trkpt lat="62.632937387908" lon="17.990915356778">
        <ele>95.8</ele>
        <time>2018-01-27T13:02:12Z</time>
      </trkpt>
      <trkpt lat="62.632955744269" lon="17.990857186392">
        <ele>96</ele>
        <time>2018-01-27T13:02:13Z</time>
      </trkpt>
      <trkpt lat="62.632966305463" lon="17.990793819228">
        <ele>96</ele>
        <time>2018-01-27T13:02:14Z</time>
      </trkpt>
      <trkpt lat="62.632983907453" lon="17.990726177295">
        <ele>96</ele>
        <time>2018-01-27T13:02:15Z</time>
      </trkpt>
      <trkpt lat="62.633001006529" lon="17.990664905606">
        <ele>96.2</ele>
        <time>2018-01-27T13:02:16Z</time>
      </trkpt>
      <trkpt lat="62.63302103927" lon="17.990598018044">
        <ele>96.2</ele>
        <time>2018-01-27T13:02:17Z</time>
      </trkpt>
      <trkpt lat="62.633044257133" lon="17.990538171278">
        <ele>96.2</ele>
        <time>2018-01-27T13:02:18Z</time>
      </trkpt>
      <trkpt lat="62.633081053674" lon="17.990485030032">
        <ele>96</ele>
        <time>2018-01-27T13:02:19Z</time>
      </trkpt>
      <trkpt lat="62.633114413636" lon="17.990442617618">
        <ele>96</ele>
        <time>2018-01-27T13:02:20Z</time>
      </trkpt>
      <trkpt lat="62.633142157725" lon="17.990399115557">
        <ele>96</ele>
        <time>2018-01-27T13:02:21Z</time>
      </trkpt>
      <trkpt lat="62.633170320909" lon="17.990377490255">
        <ele>96</ele>
        <time>2018-01-27T13:02:22Z</time>
      </trkpt>
      <trkpt lat="62.633201836853" lon="17.990361313188">
        <ele>96</ele>
        <time>2018-01-27T13:02:23Z</time>
      </trkpt>
      <trkpt lat="62.633241315602" lon="17.990334072013">
        <ele>96</ele>
        <time>2018-01-27T13:02:24Z</time>
      </trkpt>
      <trkpt lat="62.633273250641" lon="17.990298365119">
        <ele>96</ele>
        <time>2018-01-27T13:02:25Z</time>
      </trkpt>
      <trkpt lat="62.633302168196" lon="17.990279338206">
        <ele>96</ele>
        <time>2018-01-27T13:02:26Z</time>
      </trkpt>
      <trkpt lat="62.633337958909" lon="17.990257880542">
        <ele>96</ele>
        <time>2018-01-27T13:02:27Z</time>
      </trkpt>
      <trkpt lat="62.633365283903" lon="17.990231477557">
        <ele>96</ele>
        <time>2018-01-27T13:02:28Z</time>
      </trkpt>
      <trkpt lat="62.633396045476" lon="17.990195100111">
        <ele>96</ele>
        <time>2018-01-27T13:02:29Z</time>
      </trkpt>
      <trkpt lat="62.633418760425" lon="17.990170122049">
        <ele>96</ele>
        <time>2018-01-27T13:02:30Z</time>
      </trkpt>
      <trkpt lat="62.633442062107" lon="17.990145060168">
        <ele>96</ele>
        <time>2018-01-27T13:02:31Z</time>
      </trkpt>
      <trkpt lat="62.633471063481" lon="17.990101893383">
        <ele>95.8</ele>
        <time>2018-01-27T13:02:32Z</time>
      </trkpt>
      <trkpt lat="62.6335046749" lon="17.990052188716">
        <ele>95.8</ele>
        <time>2018-01-27T13:02:33Z</time>
      </trkpt>
      <trkpt lat="62.633536190844" lon="17.990003992791">
        <ele>95.4</ele>
        <time>2018-01-27T13:02:34Z</time>
      </trkpt>
      <trkpt lat="62.633577010697" lon="17.989940541808">
        <ele>95.2</ele>
        <time>2018-01-27T13:02:35Z</time>
      </trkpt>
      <trkpt lat="62.633598719818" lon="17.989856806627">
        <ele>95.2</ele>
        <time>2018-01-27T13:02:36Z</time>
      </trkpt>
      <trkpt lat="62.633627637373" lon="17.989781453346">
        <ele>95</ele>
        <time>2018-01-27T13:02:37Z</time>
      </trkpt>
      <trkpt lat="62.633652699254" lon="17.989711799757">
        <ele>94.8</ele>
        <time>2018-01-27T13:02:38Z</time>
      </trkpt>
      <trkpt lat="62.63368404756" lon="17.989660502529">
        <ele>94.4</ele>
        <time>2018-01-27T13:02:39Z</time>
      </trkpt>
      <trkpt lat="62.633716066418" lon="17.989616916649">
        <ele>94.4</ele>
        <time>2018-01-27T13:02:40Z</time>
      </trkpt>
      <trkpt lat="62.633740373928" lon="17.989568301629">
        <ele>94.6</ele>
        <time>2018-01-27T13:02:41Z</time>
      </trkpt>
      <trkpt lat="62.633781445238" lon="17.989525973034">
        <ele>94.6</ele>
        <time>2018-01-27T13:02:42Z</time>
      </trkpt>
      <trkpt lat="62.633818074141" lon="17.98948272243">
        <ele>94.8</ele>
        <time>2018-01-27T13:02:43Z</time>
      </trkpt>
      <trkpt lat="62.633853445759" lon="17.989452799047">
        <ele>94.8</ele>
        <time>2018-01-27T13:02:44Z</time>
      </trkpt>
      <trkpt lat="62.633888817377" lon="17.989417259791">
        <ele>95</ele>
        <time>2018-01-27T13:02:45Z</time>
      </trkpt>
      <trkpt lat="62.633923686081" lon="17.989383732191">
        <ele>95</ele>
        <time>2018-01-27T13:02:46Z</time>
      </trkpt>
      <trkpt lat="62.633960901717" lon="17.989349198763">
        <ele>95</ele>
        <time>2018-01-27T13:02:47Z</time>
      </trkpt>
      <trkpt lat="62.633999626095" lon="17.98930418796">
        <ele>95</ele>
        <time>2018-01-27T13:02:48Z</time>
      </trkpt>
      <trkpt lat="62.634032986057" lon="17.989254315655">
        <ele>94.6</ele>
        <time>2018-01-27T13:02:49Z</time>
      </trkpt>
      <trkpt lat="62.634065256372" lon="17.98919773783">
        <ele>94.6</ele>
        <time>2018-01-27T13:02:50Z</time>
      </trkpt>
      <trkpt lat="62.634095095936" lon="17.989149709543">
        <ele>94.4</ele>
        <time>2018-01-27T13:02:51Z</time>
      </trkpt>
      <trkpt lat="62.634129797002" lon="17.989111571898">
        <ele>94.2</ele>
        <time>2018-01-27T13:02:52Z</time>
      </trkpt>
      <trkpt lat="62.634162570231" lon="17.989060023213">
        <ele>94</ele>
        <time>2018-01-27T13:02:53Z</time>
      </trkpt>
      <trkpt lat="62.634198780039" lon="17.98898483757">
        <ele>94</ele>
        <time>2018-01-27T13:02:54Z</time>
      </trkpt>
      <trkpt lat="62.634220572979" lon="17.988937144559">
        <ele>93.6</ele>
        <time>2018-01-27T13:02:55Z</time>
      </trkpt>
      <trkpt lat="62.634243455566" lon="17.988880315277">
        <ele>93.4</ele>
        <time>2018-01-27T13:02:56Z</time>
      </trkpt>
      <trkpt lat="62.634262985393" lon="17.988826922574">
        <ele>93.2</ele>
        <time>2018-01-27T13:02:57Z</time>
      </trkpt>
      <trkpt lat="62.634288969283" lon="17.988775373889">
        <ele>93</ele>
        <time>2018-01-27T13:02:58Z</time>
      </trkpt>
      <trkpt lat="62.634319060304" lon="17.988713766924">
        <ele>93</ele>
        <time>2018-01-27T13:02:59Z</time>
      </trkpt>
      <trkpt lat="62.634358371415" lon="17.988667331198">
        <ele>93</ele>
        <time>2018-01-27T13:03:00Z</time>
      </trkpt>
      <trkpt lat="62.634394665042" lon="17.988616620703">
        <ele>92.8</ele>
        <time>2018-01-27T13:03:01Z</time>
      </trkpt>
      <trkpt lat="62.634433808515" lon="17.988577896325">
        <ele>92.8</ele>
        <time>2018-01-27T13:03:02Z</time>
      </trkpt>
      <trkpt lat="62.634469012495" lon="17.988546967114">
        <ele>92.8</ele>
        <time>2018-01-27T13:03:03Z</time>
      </trkpt>
      <trkpt lat="62.634508658882" lon="17.988516540817">
        <ele>92.6</ele>
        <time>2018-01-27T13:03:04Z</time>
      </trkpt>
      <trkpt lat="62.634552580038" lon="17.988493155316">
        <ele>92.4</ele>
        <time>2018-01-27T13:03:05Z</time>
      </trkpt>
      <trkpt lat="62.634596585013" lon="17.988472368204">
        <ele>92</ele>
        <time>2018-01-27T13:03:06Z</time>
      </trkpt>
      <trkpt lat="62.63464545149" lon="17.988452251644">
        <ele>92</ele>
        <time>2018-01-27T13:03:07Z</time>
      </trkpt>
      <trkpt lat="62.634692725406" lon="17.98841905932">
        <ele>91.6</ele>
        <time>2018-01-27T13:03:08Z</time>
      </trkpt>
      <trkpt lat="62.634739664046" lon="17.988401038235">
        <ele>91.2</ele>
        <time>2018-01-27T13:03:09Z</time>
      </trkpt>
      <trkpt lat="62.634784423392" lon="17.98837547344">
        <ele>91</ele>
        <time>2018-01-27T13:03:10Z</time>
      </trkpt>
      <trkpt lat="62.634822393399" lon="17.988348902817">
        <ele>91</ele>
        <time>2018-01-27T13:03:11Z</time>
      </trkpt>
      <trkpt lat="62.634866985107" lon="17.988316381045">
        <ele>90.6</ele>
        <time>2018-01-27T13:03:12Z</time>
      </trkpt>
      <trkpt lat="62.634905793304" lon="17.988290229517">
        <ele>90.4</ele>
        <time>2018-01-27T13:03:13Z</time>
      </trkpt>
      <trkpt lat="62.634943428035" lon="17.98824974494">
        <ele>90.4</ele>
        <time>2018-01-27T13:03:14Z</time>
      </trkpt>
      <trkpt lat="62.634974273427" lon="17.988202303386">
        <ele>90.2</ele>
        <time>2018-01-27T13:03:15Z</time>
      </trkpt>
      <trkpt lat="62.634999922041" lon="17.98814329481">
        <ele>90.2</ele>
        <time>2018-01-27T13:03:16Z</time>
      </trkpt>
      <trkpt lat="62.635023558999" lon="17.988067606253">
        <ele>90.2</ele>
        <time>2018-01-27T13:03:17Z</time>
      </trkpt>
      <trkpt lat="62.635036131849" lon="17.987988481117">
        <ele>90</ele>
        <time>2018-01-27T13:03:18Z</time>
      </trkpt>
      <trkpt lat="62.635049878165" lon="17.987912038189">
        <ele>89.8</ele>
        <time>2018-01-27T13:03:19Z</time>
      </trkpt>
      <trkpt lat="62.635054236753" lon="17.987842133143">
        <ele>89.8</ele>
        <time>2018-01-27T13:03:20Z</time>
      </trkpt>
      <trkpt lat="62.635060020264" lon="17.987776251409">
        <ele>89.6</ele>
        <time>2018-01-27T13:03:21Z</time>
      </trkpt>
      <trkpt lat="62.635065552318" lon="17.987707519829">
        <ele>89.4</ele>
        <time>2018-01-27T13:03:22Z</time>
      </trkpt>
      <trkpt lat="62.635072844571" lon="17.987653121298">
        <ele>89.2</ele>
        <time>2018-01-27T13:03:23Z</time>
      </trkpt>
      <trkpt lat="62.635069910906" lon="17.987616576214">
        <ele>89</ele>
        <time>2018-01-27T13:03:24Z</time>
      </trkpt>
      <trkpt lat="62.635054991124" lon="17.987599728595">
        <ele>88.8</ele>
        <time>2018-01-27T13:03:25Z</time>
      </trkpt>
      <trkpt lat="62.635044513749" lon="17.987610708884">
        <ele>88.8</ele>
        <time>2018-01-27T13:03:26Z</time>
      </trkpt>
      <trkpt lat="62.635030851252" lon="17.987648259796">
        <ele>88.6</ele>
        <time>2018-01-27T13:03:27Z</time>
      </trkpt>
      <trkpt lat="62.635017524031" lon="17.987689079649">
        <ele>88.6</ele>
        <time>2018-01-27T13:03:28Z</time>
      </trkpt>
      <trkpt lat="62.634994809082" lon="17.987730989149">
        <ele>88.6</ele>
        <time>2018-01-27T13:03:29Z</time>
      </trkpt>
      <trkpt lat="62.634969244287" lon="17.987771389907">
        <ele>88.4</ele>
        <time>2018-01-27T13:03:30Z</time>
      </trkpt>
      <trkpt lat="62.634952731944" lon="17.987805923335">
        <ele>88.2</ele>
        <time>2018-01-27T13:03:31Z</time>
      </trkpt>
      <trkpt lat="62.63492792152" lon="17.987849173939">
        <ele>88.2</ele>
        <time>2018-01-27T13:03:32Z</time>
      </trkpt>
      <trkpt lat="62.634902440544" lon="17.987889574697">
        <ele>88.4</ele>
        <time>2018-01-27T13:03:33Z</time>
      </trkpt>
      <trkpt lat="62.634879138862" lon="17.987921761193">
        <ele>88.4</ele>
        <time>2018-01-27T13:03:34Z</time>
      </trkpt>
      <trkpt lat="62.634855669542" lon="17.98795051111">
        <ele>88.6</ele>
        <time>2018-01-27T13:03:35Z</time>
      </trkpt>
      <trkpt lat="62.634834463335" lon="17.98798990604">
        <ele>88.6</ele>
        <time>2018-01-27T13:03:36Z</time>
      </trkpt>
      <trkpt lat="62.634804623771" lon="17.988012285713">
        <ele>88.8</ele>
        <time>2018-01-27T13:03:37Z</time>
      </trkpt>
      <trkpt lat="62.634786686505" lon="17.988053357023">
        <ele>88.8</ele>
        <time>2018-01-27T13:03:38Z</time>
      </trkpt>
      <trkpt lat="62.63475944533" lon="17.988067773891">
        <ele>89</ele>
        <time>2018-01-27T13:03:39Z</time>
      </trkpt>
      <trkpt lat="62.634732036517" lon="17.988085040605">
        <ele>89.2</ele>
        <time>2018-01-27T13:03:40Z</time>
      </trkpt>
      <trkpt lat="62.63470663936" lon="17.988089734469">
        <ele>89.2</ele>
        <time>2018-01-27T13:03:41Z</time>
      </trkpt>
      <trkpt lat="62.634674117588" lon="17.988093590143">
        <ele>89.4</ele>
        <time>2018-01-27T13:03:42Z</time>
      </trkpt>
      <trkpt lat="62.634648636612" lon="17.988100798577">
        <ele>89.4</ele>
        <time>2018-01-27T13:03:43Z</time>
      </trkpt>
      <trkpt lat="62.634614354641" lon="17.988101804405">
        <ele>89.6</ele>
        <time>2018-01-27T13:03:44Z</time>
      </trkpt>
      <trkpt lat="62.634584766534" lon="17.988102894052">
        <ele>89.6</ele>
        <time>2018-01-27T13:03:45Z</time>
      </trkpt>
      <trkpt lat="62.634555848979" lon="17.988099960387">
        <ele>89.8</ele>
        <time>2018-01-27T13:03:46Z</time>
      </trkpt>
      <trkpt lat="62.634520896456" lon="17.988136086376">
        <ele>90</ele>
        <time>2018-01-27T13:03:47Z</time>
      </trkpt>
      <trkpt lat="62.634485776295" lon="17.988135583462">
        <ele>90.2</ele>
        <time>2018-01-27T13:03:48Z</time>
      </trkpt>
      <trkpt lat="62.634457613111" lon="17.988152598719">
        <ele>90.4</ele>
        <time>2018-01-27T13:03:49Z</time>
      </trkpt>
      <trkpt lat="62.634423414959" lon="17.988142372801">
        <ele>90.6</ele>
        <time>2018-01-27T13:03:50Z</time>
      </trkpt>
      <trkpt lat="62.634397598707" lon="17.988153688366">
        <ele>90.4</ele>
        <time>2018-01-27T13:03:51Z</time>
      </trkpt>
      <trkpt lat="62.634367926781" lon="17.9881525149">
        <ele>90.6</ele>
        <time>2018-01-27T13:03:52Z</time>
      </trkpt>
      <trkpt lat="62.634333058077" lon="17.988161483533">
        <ele>90.8</ele>
        <time>2018-01-27T13:03:53Z</time>
      </trkpt>
      <trkpt lat="62.634295590984" lon="17.988178582609">
        <ele>91</ele>
        <time>2018-01-27T13:03:54Z</time>
      </trkpt>
      <trkpt lat="62.634258123891" lon="17.988188640889">
        <ele>91</ele>
        <time>2018-01-27T13:03:55Z</time>
      </trkpt>
      <trkpt lat="62.634220656798" lon="17.988193334753">
        <ele>91.4</ele>
        <time>2018-01-27T13:03:56Z</time>
      </trkpt>
      <trkpt lat="62.634181429506" lon="17.988187551242">
        <ele>91.4</ele>
        <time>2018-01-27T13:03:57Z</time>
      </trkpt>
      <trkpt lat="62.63413834654" lon="17.988181348636">
        <ele>91.6</ele>
        <time>2018-01-27T13:03:58Z</time>
      </trkpt>
      <trkpt lat="62.634100544171" lon="17.988180594265">
        <ele>91.6</ele>
        <time>2018-01-27T13:03:59Z</time>
      </trkpt>
      <trkpt lat="62.634060730146" lon="17.988158214592">
        <ele>91.6</ele>
        <time>2018-01-27T13:04:00Z</time>
      </trkpt>
      <trkpt lat="62.634024017424" lon="17.988136505471">
        <ele>91.6</ele>
        <time>2018-01-27T13:04:01Z</time>
      </trkpt>
      <trkpt lat="62.633989651634" lon="17.98813994205">
        <ele>91.6</ele>
        <time>2018-01-27T13:04:02Z</time>
      </trkpt>
      <trkpt lat="62.633953860921" lon="17.988109431934">
        <ele>91.4</ele>
        <time>2018-01-27T13:04:03Z</time>
      </trkpt>
      <trkpt lat="62.633914046896" lon="17.988113790522">
        <ele>91.6</ele>
        <time>2018-01-27T13:04:04Z</time>
      </trkpt>
      <trkpt lat="62.633885380798" lon="17.988076491067">
        <ele>91.6</ele>
        <time>2018-01-27T13:04:05Z</time>
      </trkpt>
      <trkpt lat="62.633853026664" lon="17.988053524661">
        <ele>91.8</ele>
        <time>2018-01-27T13:04:06Z</time>
      </trkpt>
      <trkpt lat="62.633824695842" lon="17.988009687324">
        <ele>92</ele>
        <time>2018-01-27T13:04:07Z</time>
      </trkpt>
      <trkpt lat="62.633796281201" lon="17.987994264628">
        <ele>92.2</ele>
        <time>2018-01-27T13:04:08Z</time>
      </trkpt>
      <trkpt lat="62.63376870475" lon="17.987953444775">
        <ele>92.4</ele>
        <time>2018-01-27T13:04:09Z</time>
      </trkpt>
      <trkpt lat="62.633738362272" lon="17.987927209428">
        <ele>92.4</ele>
        <time>2018-01-27T13:04:10Z</time>
      </trkpt>
      <trkpt lat="62.6337142224" lon="17.987909691257">
        <ele>92.6</ele>
        <time>2018-01-27T13:04:11Z</time>
      </trkpt>
      <trkpt lat="62.633678599325" lon="17.987872224164">
        <ele>92.4</ele>
        <time>2018-01-27T13:04:12Z</time>
      </trkpt>
      <trkpt lat="62.633649262675" lon="17.987846072636">
        <ele>92.6</ele>
        <time>2018-01-27T13:04:13Z</time>
      </trkpt>
      <trkpt lat="62.633623530242" lon="17.987818244728">
        <ele>92.6</ele>
        <time>2018-01-27T13:04:14Z</time>
      </trkpt>
      <trkpt lat="62.633600731474" lon="17.987785136223">
        <ele>93</ele>
        <time>2018-01-27T13:04:15Z</time>
      </trkpt>
      <trkpt lat="62.633580698733" lon="17.987760325799">
        <ele>93.2</ele>
        <time>2018-01-27T13:04:16Z</time>
      </trkpt>
      <trkpt lat="62.633553792834" lon="17.98771162696">
        <ele>93.6</ele>
        <time>2018-01-27T13:04:17Z</time>
      </trkpt>
      <trkpt lat="62.633522025433" lon="17.987683547595">
        <ele>93.8</ele>
        <time>2018-01-27T13:04:18Z</time>
      </trkpt>
      <trkpt lat="62.633497550285" lon="17.987633004738">
        <ele>94</ele>
        <time>2018-01-27T13:04:19Z</time>
      </trkpt>
      <trkpt lat="62.633471063481" lon="17.98759344217">
        <ele>94</ele>
        <time>2018-01-27T13:04:20Z</time>
      </trkpt>
      <trkpt lat="62.633448097075" lon="17.987559495475">
        <ele>94</ele>
        <time>2018-01-27T13:04:21Z</time>
      </trkpt>
      <trkpt lat="62.633425465945" lon="17.98751800507">
        <ele>94.2</ele>
        <time>2018-01-27T13:04:22Z</time>
      </trkpt>
      <trkpt lat="62.633407361041" lon="17.98747441919">
        <ele>94.2</ele>
        <time>2018-01-27T13:04:23Z</time>
      </trkpt>
      <trkpt lat="62.633390345784" lon="17.987429827482">
        <ele>94.6</ele>
        <time>2018-01-27T13:04:24Z</time>
      </trkpt>
      <trkpt lat="62.633373246708" lon="17.987374758399">
        <ele>94.6</ele>
        <time>2018-01-27T13:04:25Z</time>
      </trkpt>
      <trkpt lat="62.633351872863" lon="17.987317007108">
        <ele>94.6</ele>
        <time>2018-01-27T13:04:26Z</time>
      </trkpt>
      <trkpt lat="62.633328403543" lon="17.987267050984">
        <ele>95</ele>
        <time>2018-01-27T13:04:27Z</time>
      </trkpt>
      <trkpt lat="62.633303174024" lon="17.987200414879">
        <ele>95.2</ele>
        <time>2018-01-27T13:04:28Z</time>
      </trkpt>
      <trkpt lat="62.633272412451" lon="17.987092958921">
        <ele>95.4</ele>
        <time>2018-01-27T13:04:29Z</time>
      </trkpt>
      <trkpt lat="62.633237459928" lon="17.98698156347">
        <ele>95</ele>
        <time>2018-01-27T13:04:30Z</time>
      </trkpt>
      <trkpt lat="62.633221031404" lon="17.986873353141">
        <ele>94.4</ele>
        <time>2018-01-27T13:04:31Z</time>
      </trkpt>
      <trkpt lat="62.633205273432" lon="17.986749133383">
        <ele>93.6</ele>
        <time>2018-01-27T13:04:32Z</time>
      </trkpt>
      <trkpt lat="62.633192532944" lon="17.986633882258">
        <ele>92.8</ele>
        <time>2018-01-27T13:04:33Z</time>
      </trkpt>
      <trkpt lat="62.633181804112" lon="17.986526845395">
        <ele>92</ele>
        <time>2018-01-27T13:04:34Z</time>
      </trkpt>
      <trkpt lat="62.633175936782" lon="17.986424837672">
        <ele>91.6</ele>
        <time>2018-01-27T13:04:35Z</time>
      </trkpt>
      <trkpt lat="62.633169985633" lon="17.98632190794">
        <ele>91.6</ele>
        <time>2018-01-27T13:04:36Z</time>
      </trkpt>
      <trkpt lat="62.633158418611" lon="17.986210680127">
        <ele>91.6</ele>
        <time>2018-01-27T13:04:37Z</time>
      </trkpt>
      <trkpt lat="62.633167554882" lon="17.986093249708">
        <ele>91.8</ele>
        <time>2018-01-27T13:04:38Z</time>
      </trkpt>
      <trkpt lat="62.633177110248" lon="17.985970790149">
        <ele>91.8</ele>
        <time>2018-01-27T13:04:39Z</time>
      </trkpt>
      <trkpt lat="62.633179876275" lon="17.985844642554">
        <ele>91.4</ele>
        <time>2018-01-27T13:04:40Z</time>
      </trkpt>
      <trkpt lat="62.633182390845" lon="17.985725368117">
        <ele>91</ele>
        <time>2018-01-27T13:04:41Z</time>
      </trkpt>
      <trkpt lat="62.63318364813" lon="17.985595532486">
        <ele>90.6</ele>
        <time>2018-01-27T13:04:42Z</time>
      </trkpt>
      <trkpt lat="62.633186665614" lon="17.985484304673">
        <ele>89.8</ele>
        <time>2018-01-27T13:04:43Z</time>
      </trkpt>
      <trkpt lat="62.633197226808" lon="17.985361090743">
        <ele>89.2</ele>
        <time>2018-01-27T13:04:44Z</time>
      </trkpt>
      <trkpt lat="62.633209548201" lon="17.985222789393">
        <ele>89</ele>
        <time>2018-01-27T13:04:45Z</time>
      </trkpt>
      <trkpt lat="62.633221701956" lon="17.985086499699">
        <ele>88.8</ele>
        <time>2018-01-27T13:04:46Z</time>
      </trkpt>
      <trkpt lat="62.633244416905" lon="17.984937301879">
        <ele>88.6</ele>
        <time>2018-01-27T13:04:47Z</time>
      </trkpt>
      <trkpt lat="62.63326830532" lon="17.984798832891">
        <ele>88.4</ele>
        <time>2018-01-27T13:04:48Z</time>
      </trkpt>
      <trkpt lat="62.633296133228" lon="17.984673355848">
        <ele>87.8</ele>
        <time>2018-01-27T13:04:49Z</time>
      </trkpt>
      <trkpt lat="62.633325134602" lon="17.98455835618">
        <ele>87.2</ele>
        <time>2018-01-27T13:04:50Z</time>
      </trkpt>
      <trkpt lat="62.633347765732" lon="17.984454504439">
        <ele>86.6</ele>
        <time>2018-01-27T13:04:51Z</time>
      </trkpt>
      <trkpt lat="62.633368217568" lon="17.984345288282">
        <ele>86.2</ele>
        <time>2018-01-27T13:04:52Z</time>
      </trkpt>
      <trkpt lat="62.6333789464" lon="17.984243112921">
        <ele>86</ele>
        <time>2018-01-27T13:04:53Z</time>
      </trkpt>
      <trkpt lat="62.6333873283" lon="17.98414345213">
        <ele>86</ele>
        <time>2018-01-27T13:04:54Z</time>
      </trkpt>
      <trkpt lat="62.633396799847" lon="17.984058962578">
        <ele>86</ele>
        <time>2018-01-27T13:04:55Z</time>
      </trkpt>
      <trkpt lat="62.633407863955" lon="17.983970617352">
        <ele>86.4</ele>
        <time>2018-01-27T13:04:56Z</time>
      </trkpt>
      <trkpt lat="62.633418425149" lon="17.983878751728">
        <ele>86.8</ele>
        <time>2018-01-27T13:04:57Z</time>
      </trkpt>
      <trkpt lat="62.633419682434" lon="17.983800464782">
        <ele>87</ele>
        <time>2018-01-27T13:04:58Z</time>
      </trkpt>
      <trkpt lat="62.633418676606" lon="17.983723938035">
        <ele>87.2</ele>
        <time>2018-01-27T13:04:59Z</time>
      </trkpt>
      <trkpt lat="62.633434769854" lon="17.983632659144">
        <ele>87.4</ele>
        <time>2018-01-27T13:05:00Z</time>
      </trkpt>
      <trkpt lat="62.633438793166" lon="17.983550432705">
        <ele>87.6</ele>
        <time>2018-01-27T13:05:01Z</time>
      </trkpt>
      <trkpt lat="62.633447761799" lon="17.983477342537">
        <ele>87.4</ele>
        <time>2018-01-27T13:05:02Z</time>
      </trkpt>
      <trkpt lat="62.633466369617" lon="17.983405761111">
        <ele>87.6</ele>
        <time>2018-01-27T13:05:03Z</time>
      </trkpt>
      <trkpt lat="62.633480786485" lon="17.983336778074">
        <ele>87.6</ele>
        <time>2018-01-27T13:05:04Z</time>
      </trkpt>
      <trkpt lat="62.63349294024" lon="17.983276428394">
        <ele>87.8</ele>
        <time>2018-01-27T13:05:05Z</time>
      </trkpt>
      <trkpt lat="62.63351138042" lon="17.983182970209">
        <ele>87.8</ele>
        <time>2018-01-27T13:05:06Z</time>
      </trkpt>
      <trkpt lat="62.633515990465" lon="17.983127062936">
        <ele>87.8</ele>
        <time>2018-01-27T13:05:07Z</time>
      </trkpt>
      <trkpt lat="62.633521941614" lon="17.983055565329">
        <ele>87.8</ele>
        <time>2018-01-27T13:05:08Z</time>
      </trkpt>
      <trkpt lat="62.633535771749" lon="17.982989432138">
        <ele>87.8</ele>
        <time>2018-01-27T13:05:09Z</time>
      </trkpt>
      <trkpt lat="62.633545494753" lon="17.982931513209">
        <ele>87.8</ele>
        <time>2018-01-27T13:05:10Z</time>
      </trkpt>
      <trkpt lat="62.633562090915" lon="17.982855740833">
        <ele>88</ele>
        <time>2018-01-27T13:05:11Z</time>
      </trkpt>
      <trkpt lat="62.633569886082" lon="17.982791535479">
        <ele>87.8</ele>
        <time>2018-01-27T13:05:12Z</time>
      </trkpt>
      <trkpt lat="62.633581369285" lon="17.982729928514">
        <ele>87.8</ele>
        <time>2018-01-27T13:05:13Z</time>
      </trkpt>
      <trkpt lat="62.633594277411" lon="17.982655078147">
        <ele>87.8</ele>
        <time>2018-01-27T13:05:14Z</time>
      </trkpt>
      <trkpt lat="62.633597965447" lon="17.982582407074">
        <ele>87.8</ele>
        <time>2018-01-27T13:05:15Z</time>
      </trkpt>
      <trkpt lat="62.633611460306" lon="17.982501354101">
        <ele>87.8</ele>
        <time>2018-01-27T13:05:16Z</time>
      </trkpt>
      <trkpt lat="62.633620512758" lon="17.982422480422">
        <ele>87.8</ele>
        <time>2018-01-27T13:05:17Z</time>
      </trkpt>
      <trkpt lat="62.633635348721" lon="17.982331033893">
        <ele>87.8</ele>
        <time>2018-01-27T13:05:18Z</time>
      </trkpt>
      <trkpt lat="62.633648508304" lon="17.982243443038">
        <ele>87.8</ele>
        <time>2018-01-27T13:05:19Z</time>
      </trkpt>
      <trkpt lat="62.633652028702" lon="17.98217119106">
        <ele>87.6</ele>
        <time>2018-01-27T13:05:20Z</time>
      </trkpt>
      <trkpt lat="62.633660494421" lon="17.982095167227">
        <ele>87.6</ele>
        <time>2018-01-27T13:05:21Z</time>
      </trkpt>
      <trkpt lat="62.633663511905" lon="17.982018472842">
        <ele>87.6</ele>
        <time>2018-01-27T13:05:22Z</time>
      </trkpt>
      <trkpt lat="62.633665942656" lon="17.981940856448">
        <ele>87.8</ele>
        <time>2018-01-27T13:05:23Z</time>
      </trkpt>
      <trkpt lat="62.63367566566" lon="17.981861479855">
        <ele>87.8</ele>
        <time>2018-01-27T13:05:24Z</time>
      </trkpt>
      <trkpt lat="62.633677593497" lon="17.981794592293">
        <ele>88</ele>
        <time>2018-01-27T13:05:25Z</time>
      </trkpt>
      <trkpt lat="62.633683963741" lon="17.981726698903">
        <ele>88.2</ele>
        <time>2018-01-27T13:05:26Z</time>
      </trkpt>
      <trkpt lat="62.633687651777" lon="17.981641119704">
        <ele>88.2</ele>
        <time>2018-01-27T13:05:27Z</time>
      </trkpt>
      <trkpt lat="62.633690417804" lon="17.981573226314">
        <ele>88.4</ele>
        <time>2018-01-27T13:05:28Z</time>
      </trkpt>
      <trkpt lat="62.633701230455" lon="17.981487898572">
        <ele>88.4</ele>
        <time>2018-01-27T13:05:29Z</time>
      </trkpt>
      <trkpt lat="62.63370667869" lon="17.981427381254">
        <ele>88.6</ele>
        <time>2018-01-27T13:05:30Z</time>
      </trkpt>
      <trkpt lat="62.633717156065" lon="17.981361415701">
        <ele>88.4</ele>
        <time>2018-01-27T13:05:31Z</time>
      </trkpt>
      <trkpt lat="62.633744145783" lon="17.981290756284">
        <ele>88.4</ele>
        <time>2018-01-27T13:05:32Z</time>
      </trkpt>
      <trkpt lat="62.633754287882" lon="17.981212134062">
        <ele>88.6</ele>
        <time>2018-01-27T13:05:33Z</time>
      </trkpt>
      <trkpt lat="62.633762083049" lon="17.981140384998">
        <ele>88.4</ele>
        <time>2018-01-27T13:05:34Z</time>
      </trkpt>
      <trkpt lat="62.633795107735" lon="17.981101995896">
        <ele>88.4</ele>
        <time>2018-01-27T13:05:35Z</time>
      </trkpt>
      <trkpt lat="62.633812709725" lon="17.981042065311">
        <ele>88.4</ele>
        <time>2018-01-27T13:05:36Z</time>
      </trkpt>
      <trkpt lat="62.633829389706" lon="17.980987247685">
        <ele>88.4</ele>
        <time>2018-01-27T13:05:37Z</time>
      </trkpt>
      <trkpt lat="62.633848248981" lon="17.98093653719">
        <ele>88.4</ele>
        <time>2018-01-27T13:05:38Z</time>
      </trkpt>
      <trkpt lat="62.633870880111" lon="17.980871577465">
        <ele>88.6</ele>
        <time>2018-01-27T13:05:39Z</time>
      </trkpt>
      <trkpt lat="62.633886470445" lon="17.980814412907">
        <ele>88.8</ele>
        <time>2018-01-27T13:05:40Z</time>
      </trkpt>
      <trkpt lat="62.633895439078" lon="17.980770827027">
        <ele>88.8</ele>
        <time>2018-01-27T13:05:41Z</time>
      </trkpt>
      <trkpt lat="62.633915052724" lon="17.980702346904">
        <ele>89</ele>
        <time>2018-01-27T13:05:42Z</time>
      </trkpt>
      <trkpt lat="62.633928966678" lon="17.980654653893">
        <ele>89</ele>
        <time>2018-01-27T13:05:43Z</time>
      </trkpt>
      <trkpt lat="62.633946820125" lon="17.980595226222">
        <ele>89.2</ele>
        <time>2018-01-27T13:05:44Z</time>
      </trkpt>
      <trkpt lat="62.633959225337" lon="17.980531775239">
        <ele>89.2</ele>
        <time>2018-01-27T13:05:45Z</time>
      </trkpt>
      <trkpt lat="62.633976324413" lon="17.980472263749">
        <ele>89.4</ele>
        <time>2018-01-27T13:05:46Z</time>
      </trkpt>
      <trkpt lat="62.633996943887" lon="17.980414512458">
        <ele>89.4</ele>
        <time>2018-01-27T13:05:47Z</time>
      </trkpt>
      <trkpt lat="62.634019742655" lon="17.980359359556">
        <ele>89.4</ele>
        <time>2018-01-27T13:05:48Z</time>
      </trkpt>
      <trkpt lat="62.634038937206" lon="17.980316192771">
        <ele>89.4</ele>
        <time>2018-01-27T13:05:49Z</time>
      </trkpt>
      <trkpt lat="62.634067435666" lon="17.980260034041">
        <ele>89.6</ele>
        <time>2018-01-27T13:05:50Z</time>
      </trkpt>
      <trkpt lat="62.634095682669" lon="17.980206306062">
        <ele>89.8</ele>
        <time>2018-01-27T13:05:51Z</time>
      </trkpt>
      <trkpt lat="62.634123510577" lon="17.980149895875">
        <ele>89.8</ele>
        <time>2018-01-27T13:05:52Z</time>
      </trkpt>
      <trkpt lat="62.634153098684" lon="17.980102286683">
        <ele>89.8</ele>
        <time>2018-01-27T13:05:53Z</time>
      </trkpt>
      <trkpt lat="62.63417606509" lon="17.980044786849">
        <ele>89.8</ele>
        <time>2018-01-27T13:05:54Z</time>
      </trkpt>
      <trkpt lat="62.634208586862" lon="17.979982257875">
        <ele>89.8</ele>
        <time>2018-01-27T13:05:55Z</time>
      </trkpt>
      <trkpt lat="62.63422803287" lon="17.979924087489">
        <ele>89.8</ele>
        <time>2018-01-27T13:05:56Z</time>
      </trkpt>
      <trkpt lat="62.634243790842" lon="17.979848063656">
        <ele>89.6</ele>
        <time>2018-01-27T13:05:57Z</time>
      </trkpt>
      <trkpt lat="62.634260889918" lon="17.979772961832">
        <ele>89.6</ele>
        <time>2018-01-27T13:05:58Z</time>
      </trkpt>
      <trkpt lat="62.63427832427" lon="17.979691154488">
        <ele>89.6</ele>
        <time>2018-01-27T13:05:59Z</time>
      </trkpt>
      <trkpt lat="62.634296680631" lon="17.979606497298">
        <ele>89.6</ele>
        <time>2018-01-27T13:06:00Z</time>
      </trkpt>
      <trkpt lat="62.634313695888" lon="17.979539693555">
        <ele>89.6</ele>
        <time>2018-01-27T13:06:01Z</time>
      </trkpt>
      <trkpt lat="62.634336829932" lon="17.979458389125">
        <ele>89.6</ele>
        <time>2018-01-27T13:06:02Z</time>
      </trkpt>
      <trkpt lat="62.634345295651" lon="17.979383874034">
        <ele>89.6</ele>
        <time>2018-01-27T13:06:03Z</time>
      </trkpt>
      <trkpt lat="62.634367507686" lon="17.979311202961">
        <ele>89.4</ele>
        <time>2018-01-27T13:06:04Z</time>
      </trkpt>
      <trkpt lat="62.634385277314" lon="17.979235765861">
        <ele>89.4</ele>
        <time>2018-01-27T13:06:05Z</time>
      </trkpt>
      <trkpt lat="62.634411680299" lon="17.979170135584">
        <ele>89.2</ele>
        <time>2018-01-27T13:06:06Z</time>
      </trkpt>
      <trkpt lat="62.634438670017" lon="17.979096374864">
        <ele>89.4</ele>
        <time>2018-01-27T13:06:07Z</time>
      </trkpt>
      <trkpt lat="62.634459708586" lon="17.979027391827">
        <ele>89.4</ele>
        <time>2018-01-27T13:06:08Z</time>
      </trkpt>
      <trkpt lat="62.634480495698" lon="17.978964946672">
        <ele>89.6</ele>
        <time>2018-01-27T13:06:09Z</time>
      </trkpt>
      <trkpt lat="62.634492481815" lon="17.978891185952">
        <ele>89.6</ele>
        <time>2018-01-27T13:06:10Z</time>
      </trkpt>
      <trkpt lat="62.634506228131" lon="17.978800409975">
        <ele>89.8</ele>
        <time>2018-01-27T13:06:11Z</time>
      </trkpt>
      <trkpt lat="62.634521147913" lon="17.978714830776">
        <ele>89.8</ele>
        <time>2018-01-27T13:06:12Z</time>
      </trkpt>
      <trkpt lat="62.634534642772" lon="17.978638387848">
        <ele>89.6</ele>
        <time>2018-01-27T13:06:13Z</time>
      </trkpt>
      <trkpt lat="62.634548892002" lon="17.978557921608">
        <ele>89.6</ele>
        <time>2018-01-27T13:06:14Z</time>
      </trkpt>
      <trkpt lat="62.634561716309" lon="17.978481730137">
        <ele>89.6</ele>
        <time>2018-01-27T13:06:15Z</time>
      </trkpt>
      <trkpt lat="62.63457588172" lon="17.978401934449">
        <ele>89.6</ele>
        <time>2018-01-27T13:06:16Z</time>
      </trkpt>
      <trkpt lat="62.634589795674" lon="17.978310823196">
        <ele>89.4</ele>
        <time>2018-01-27T13:06:17Z</time>
      </trkpt>
      <trkpt lat="62.634605386008" lon="17.978219544305">
        <ele>89.2</ele>
        <time>2018-01-27T13:06:18Z</time>
      </trkpt>
      <trkpt lat="62.634624412921" lon="17.978123655369">
        <ele>89</ele>
        <time>2018-01-27T13:06:19Z</time>
      </trkpt>
      <trkpt lat="62.634636566676" lon="17.978022485836">
        <ele>88.8</ele>
        <time>2018-01-27T13:06:20Z</time>
      </trkpt>
      <trkpt lat="62.63465467158" lon="17.97792072957">
        <ele>88.6</ele>
        <time>2018-01-27T13:06:21Z</time>
      </trkpt>
      <trkpt lat="62.634668417896" lon="17.977820482046">
        <ele>88.6</ele>
        <time>2018-01-27T13:06:22Z</time>
      </trkpt>
      <trkpt lat="62.63467562633" lon="17.977731717725">
        <ele>88.4</ele>
        <time>2018-01-27T13:06:23Z</time>
      </trkpt>
      <trkpt lat="62.634686355162" lon="17.977617388609">
        <ele>88.4</ele>
        <time>2018-01-27T13:06:24Z</time>
      </trkpt>
      <trkpt lat="62.634705633532" lon="17.977529378659">
        <ele>88.2</ele>
        <time>2018-01-27T13:06:25Z</time>
      </trkpt>
      <trkpt lat="62.634725414816" lon="17.977449499152">
        <ele>88.2</ele>
        <time>2018-01-27T13:06:26Z</time>
      </trkpt>
      <trkpt lat="62.634748884136" lon="17.977354196949">
        <ele>87.8</ele>
        <time>2018-01-27T13:06:27Z</time>
      </trkpt>
      <trkpt lat="62.634764977384" lon="17.977277418745">
        <ele>87.8</ele>
        <time>2018-01-27T13:06:28Z</time>
      </trkpt>
      <trkpt lat="62.63477788551" lon="17.977196281953">
        <ele>87.8</ele>
        <time>2018-01-27T13:06:29Z</time>
      </trkpt>
      <trkpt lat="62.634795319862" lon="17.977102488492">
        <ele>87.6</ele>
        <time>2018-01-27T13:06:30Z</time>
      </trkpt>
      <trkpt lat="62.634802360658" lon="17.977013640352">
        <ele>87.8</ele>
        <time>2018-01-27T13:06:31Z</time>
      </trkpt>
      <trkpt lat="62.634815520241" lon="17.976921523271">
        <ele>87.6</ele>
        <time>2018-01-27T13:06:32Z</time>
      </trkpt>
      <trkpt lat="62.634825243245" lon="17.976825131421">
        <ele>87.8</ele>
        <time>2018-01-27T13:06:33Z</time>
      </trkpt>
      <trkpt lat="62.634831613489" lon="17.976733768711">
        <ele>87.8</ele>
        <time>2018-01-27T13:06:34Z</time>
      </trkpt>
      <trkpt lat="62.634847287642" lon="17.976638969422">
        <ele>87.6</ele>
        <time>2018-01-27T13:06:35Z</time>
      </trkpt>
      <trkpt lat="62.634864889632" lon="17.976549953644">
        <ele>87.6</ele>
        <time>2018-01-27T13:06:36Z</time>
      </trkpt>
      <trkpt lat="62.63489020297" lon="17.976470325594">
        <ele>87.6</ele>
        <time>2018-01-27T13:06:37Z</time>
      </trkpt>
      <trkpt lat="62.634915600127" lon="17.976381309816">
        <ele>87.4</ele>
        <time>2018-01-27T13:06:38Z</time>
      </trkpt>
      <trkpt lat="62.634937560705" lon="17.976298748101">
        <ele>87</ele>
        <time>2018-01-27T13:06:39Z</time>
      </trkpt>
      <trkpt lat="62.634961365301" lon="17.976227250494">
        <ele>86.8</ele>
        <time>2018-01-27T13:06:40Z</time>
      </trkpt>
      <trkpt lat="62.63498240387" lon="17.976127673522">
        <ele>86.6</ele>
        <time>2018-01-27T13:06:41Z</time>
      </trkpt>
      <trkpt lat="62.635004280629" lon="17.976040837038">
        <ele>86.4</ele>
        <time>2018-01-27T13:06:42Z</time>
      </trkpt>
      <trkpt lat="62.635021128248" lon="17.975945702473">
        <ele>86.2</ele>
        <time>2018-01-27T13:06:43Z</time>
      </trkpt>
      <trkpt lat="62.635043843197" lon="17.975838246515">
        <ele>86</ele>
        <time>2018-01-27T13:06:44Z</time>
      </trkpt>
      <trkpt lat="62.635064295033" lon="17.975741351751">
        <ele>86</ele>
        <time>2018-01-27T13:06:45Z</time>
      </trkpt>
      <trkpt lat="62.635078376625" lon="17.975646217186">
        <ele>86</ele>
        <time>2018-01-27T13:06:46Z</time>
      </trkpt>
      <trkpt lat="62.635096900624" lon="17.975540186151">
        <ele>85.8</ele>
        <time>2018-01-27T13:06:47Z</time>
      </trkpt>
      <trkpt lat="62.635121459591" lon="17.975432311098">
        <ele>85.6</ele>
        <time>2018-01-27T13:06:48Z</time>
      </trkpt>
      <trkpt lat="62.635129170939" lon="17.975321083285">
        <ele>85.4</ele>
        <time>2018-01-27T13:06:49Z</time>
      </trkpt>
      <trkpt lat="62.635122800695" lon="17.975209520196">
        <ele>85</ele>
        <time>2018-01-27T13:06:50Z</time>
      </trkpt>
      <trkpt lat="62.63510813237" lon="17.975101812781">
        <ele>84.8</ele>
        <time>2018-01-27T13:06:51Z</time>
      </trkpt>
      <trkpt lat="62.635079801548" lon="17.974977173928">
        <ele>84.2</ele>
        <time>2018-01-27T13:06:52Z</time>
      </trkpt>
      <trkpt lat="62.635050381079" lon="17.974874328015">
        <ele>83.6</ele>
        <time>2018-01-27T13:06:53Z</time>
      </trkpt>
      <trkpt lat="62.635014003633" lon="17.974757903424">
        <ele>83.2</ele>
        <time>2018-01-27T13:06:54Z</time>
      </trkpt>
      <trkpt lat="62.634979386386" lon="17.974643155213">
        <ele>82.8</ele>
        <time>2018-01-27T13:06:55Z</time>
      </trkpt>
      <trkpt lat="62.634953318677" lon="17.9745319274">
        <ele>82.4</ele>
        <time>2018-01-27T13:06:56Z</time>
      </trkpt>
      <trkpt lat="62.634924065846" lon="17.974408042918">
        <ele>82</ele>
        <time>2018-01-27T13:06:57Z</time>
      </trkpt>
      <trkpt lat="62.634904200743" lon="17.974312656896">
        <ele>81.6</ele>
        <time>2018-01-27T13:06:58Z</time>
      </trkpt>
      <trkpt lat="62.634893723368" lon="17.974235291959">
        <ele>81.2</ele>
        <time>2018-01-27T13:06:59Z</time>
      </trkpt>
      <trkpt lat="62.634893136635" lon="17.974131859313">
        <ele>81.2</ele>
        <time>2018-01-27T13:07:00Z</time>
      </trkpt>
      <trkpt lat="62.634878384491" lon="17.974033120531">
        <ele>81.4</ele>
        <time>2018-01-27T13:07:01Z</time>
      </trkpt>
      <trkpt lat="62.634855920999" lon="17.973931196627">
        <ele>81.6</ele>
        <time>2018-01-27T13:07:02Z</time>
      </trkpt>
      <trkpt lat="62.634835636801" lon="17.973835978243">
        <ele>81.8</ele>
        <time>2018-01-27T13:07:03Z</time>
      </trkpt>
      <trkpt lat="62.634820214105" lon="17.973734724891">
        <ele>82</ele>
        <time>2018-01-27T13:07:04Z</time>
      </trkpt>
      <trkpt lat="62.634795068405" lon="17.973651744081">
        <ele>82</ele>
        <time>2018-01-27T13:07:05Z</time>
      </trkpt>
      <trkpt lat="62.634779478071" lon="17.973545042494">
        <ele>82</ele>
        <time>2018-01-27T13:07:06Z</time>
      </trkpt>
      <trkpt lat="62.634762965728" lon="17.973430210464">
        <ele>82</ele>
        <time>2018-01-27T13:07:07Z</time>
      </trkpt>
      <trkpt lat="62.634764642108" lon="17.973320491393">
        <ele>82</ele>
        <time>2018-01-27T13:07:08Z</time>
      </trkpt>
      <trkpt lat="62.634758858597" lon="17.97321010177">
        <ele>81.8</ele>
        <time>2018-01-27T13:07:09Z</time>
      </trkpt>
      <trkpt lat="62.634760199701" lon="17.973107172038">
        <ele>81.6</ele>
        <time>2018-01-27T13:07:10Z</time>
      </trkpt>
      <trkpt lat="62.634773275465" lon="17.973003739392">
        <ele>81.4</ele>
        <time>2018-01-27T13:07:11Z</time>
      </trkpt>
      <trkpt lat="62.63479297293" lon="17.972880944557">
        <ele>81.2</ele>
        <time>2018-01-27T13:07:12Z</time>
      </trkpt>
      <trkpt lat="62.634816526069" lon="17.97279184496">
        <ele>81</ele>
        <time>2018-01-27T13:07:13Z</time>
      </trkpt>
      <trkpt lat="62.634843431968" lon="17.972684975735">
        <ele>80.8</ele>
        <time>2018-01-27T13:07:14Z</time>
      </trkpt>
      <trkpt lat="62.634852316782" lon="17.972586907505">
        <ele>80.6</ele>
        <time>2018-01-27T13:07:15Z</time>
      </trkpt>
      <trkpt lat="62.634876708111" lon="17.972498227003">
        <ele>80.6</ele>
        <time>2018-01-27T13:07:16Z</time>
      </trkpt>
      <trkpt lat="62.634909984254" lon="17.97239873385">
        <ele>80.6</ele>
        <time>2018-01-27T13:07:17Z</time>
      </trkpt>
      <trkpt lat="62.634940913465" lon="17.972315250126">
        <ele>80.6</ele>
        <time>2018-01-27T13:07:18Z</time>
      </trkpt>
      <trkpt lat="62.634965472432" lon="17.972230090022">
        <ele>80.4</ele>
        <time>2018-01-27T13:07:19Z</time>
      </trkpt>
      <trkpt lat="62.634998916213" lon="17.972133279077">
        <ele>80.2</ele>
        <time>2018-01-27T13:07:20Z</time>
      </trkpt>
      <trkpt lat="62.635027163216" lon="17.972048286611">
        <ele>80.4</ele>
        <time>2018-01-27T13:07:21Z</time>
      </trkpt>
      <trkpt lat="62.635055074943" lon="17.971943177585">
        <ele>80</ele>
        <time>2018-01-27T13:07:22Z</time>
      </trkpt>
      <trkpt lat="62.635079969186" lon="17.97182541189">
        <ele>79.8</ele>
        <time>2018-01-27T13:07:23Z</time>
      </trkpt>
      <trkpt lat="62.635101845945" lon="17.971700353942">
        <ele>79.6</ele>
        <time>2018-01-27T13:07:24Z</time>
      </trkpt>
      <trkpt lat="62.635120202306" lon="17.971572110872">
        <ele>79.4</ele>
        <time>2018-01-27T13:07:25Z</time>
      </trkpt>
      <trkpt lat="62.63513579264" lon="17.971447639657">
        <ele>79.2</ele>
        <time>2018-01-27T13:07:26Z</time>
      </trkpt>
      <trkpt lat="62.635150712422" lon="17.97131746875">
        <ele>79</ele>
        <time>2018-01-27T13:07:27Z</time>
      </trkpt>
      <trkpt lat="62.6351642911" lon="17.971212192086">
        <ele>78.6</ele>
        <time>2018-01-27T13:07:28Z</time>
      </trkpt>
      <trkpt lat="62.635180132891" lon="17.971073220184">
        <ele>78.2</ele>
        <time>2018-01-27T13:07:29Z</time>
      </trkpt>
      <trkpt lat="62.635194214483" lon="17.970939109784">
        <ele>77.8</ele>
        <time>2018-01-27T13:07:30Z</time>
      </trkpt>
      <trkpt lat="62.635207290247" lon="17.970822014641">
        <ele>77.4</ele>
        <time>2018-01-27T13:07:31Z</time>
      </trkpt>
      <trkpt lat="62.635221371839" lon="17.970690083535">
        <ele>77</ele>
        <time>2018-01-27T13:07:32Z</time>
      </trkpt>
      <trkpt lat="62.635235872526" lon="17.970566282872">
        <ele>76.6</ele>
        <time>2018-01-27T13:07:33Z</time>
      </trkpt>
      <trkpt lat="62.635250121756" lon="17.970450947928">
        <ele>76.2</ele>
        <time>2018-01-27T13:07:34Z</time>
      </trkpt>
      <trkpt lat="62.635263448977" lon="17.970331589672">
        <ele>75.6</ele>
        <time>2018-01-27T13:07:35Z</time>
      </trkpt>
      <trkpt lat="62.635277865845" lon="17.970228995216">
        <ele>75.4</ele>
        <time>2018-01-27T13:07:36Z</time>
      </trkpt>
      <trkpt lat="62.635294545826" lon="17.970106451838">
        <ele>74.8</ele>
        <time>2018-01-27T13:07:37Z</time>
      </trkpt>
      <trkpt lat="62.635314746205" lon="17.969994721111">
        <ele>74.4</ele>
        <time>2018-01-27T13:07:38Z</time>
      </trkpt>
      <trkpt lat="62.635340562457" lon="17.969890617913">
        <ele>74</ele>
        <time>2018-01-27T13:07:39Z</time>
      </trkpt>
      <trkpt lat="62.6353654567" lon="17.969794142244">
        <ele>73.6</ele>
        <time>2018-01-27T13:07:40Z</time>
      </trkpt>
      <trkpt lat="62.635389512753" lon="17.969701773706">
        <ele>73.2</ele>
        <time>2018-01-27T13:07:41Z</time>
      </trkpt>
      <trkpt lat="62.635417675937" lon="17.969599849802">
        <ele>72.8</ele>
        <time>2018-01-27T13:07:42Z</time>
      </trkpt>
      <trkpt lat="62.635440139429" lon="17.969511420757">
        <ele>72.2</ele>
        <time>2018-01-27T13:07:43Z</time>
      </trkpt>
      <trkpt lat="62.635465788043" lon="17.969408491025">
        <ele>71.6</ele>
        <time>2018-01-27T13:07:44Z</time>
      </trkpt>
      <trkpt lat="62.635490682286" lon="17.96931168008">
        <ele>71.2</ele>
        <time>2018-01-27T13:07:45Z</time>
      </trkpt>
      <trkpt lat="62.635514235425" lon="17.969220485008">
        <ele>70.6</ele>
        <time>2018-01-27T13:07:46Z</time>
      </trkpt>
      <trkpt lat="62.635544661722" lon="17.969110263023">
        <ele>70</ele>
        <time>2018-01-27T13:07:47Z</time>
      </trkpt>
      <trkpt lat="62.635574417467" lon="17.96900238797">
        <ele>69.4</ele>
        <time>2018-01-27T13:07:48Z</time>
      </trkpt>
      <trkpt lat="62.635600485176" lon="17.968914797115">
        <ele>69</ele>
        <time>2018-01-27T13:07:49Z</time>
      </trkpt>
      <trkpt lat="62.63562864836" lon="17.968826032794">
        <ele>68.4</ele>
        <time>2018-01-27T13:07:50Z</time>
      </trkpt>
      <trkpt lat="62.635657398277" lon="17.968747159115">
        <ele>67.8</ele>
        <time>2018-01-27T13:07:51Z</time>
      </trkpt>
      <trkpt lat="62.635690506782" lon="17.968660741726">
        <ele>67.2</ele>
        <time>2018-01-27T13:07:52Z</time>
      </trkpt>
      <trkpt lat="62.635727890056" lon="17.968581281314">
        <ele>66.6</ele>
        <time>2018-01-27T13:07:53Z</time>
      </trkpt>
      <trkpt lat="62.635768290814" lon="17.968517997969">
        <ele>66.4</ele>
        <time>2018-01-27T13:07:54Z</time>
      </trkpt>
      <trkpt lat="62.635815397092" lon="17.968466281646">
        <ele>66</ele>
        <time>2018-01-27T13:07:55Z</time>
      </trkpt>
      <trkpt lat="62.635862335732" lon="17.968437280272">
        <ele>65.8</ele>
        <time>2018-01-27T13:07:56Z</time>
      </trkpt>
      <trkpt lat="62.635918745919" lon="17.968416241703">
        <ele>65.6</ele>
        <time>2018-01-27T13:07:57Z</time>
      </trkpt>
      <trkpt lat="62.635970546061" lon="17.96839553841">
        <ele>65.6</ele>
        <time>2018-01-27T13:07:58Z</time>
      </trkpt>
      <trkpt lat="62.636004576575" lon="17.968402663025">
        <ele>65.4</ele>
        <time>2018-01-27T13:07:59Z</time>
      </trkpt>
      <trkpt lat="62.636061070581" lon="17.968415068237">
        <ele>65.4</ele>
        <time>2018-01-27T13:08:00Z</time>
      </trkpt>
      <trkpt lat="62.636093759991" lon="17.968426802897">
        <ele>65.2</ele>
        <time>2018-01-27T13:08:01Z</time>
      </trkpt>
    </trkseg>
  </trk>
</gpx>